[[{"header":{"parameterUnit":"m.s-1","parameterCategory":1,"la1":30.6,"la2":28.766,"lo1":-90.7593,"lo2":-88.6598,"dy":0.0162,"dx":0.0183,"nx":116,"ny":114,"refTime":"2024-05-23T12:00:00:Z","depth":0,"parameterNumber":2,"parameterNumberName":"U-component_of_WINDS"},"data":[0.0,0.0,0.0,0.0,0.0,0.0,0.0,0.0,0.0,0.0,0.0,0.0,0.0,0.0,0.0,0.0,0.0,0.0,0.0,0.0,0.0,0.0,0.0,0.0,0.0,0.0,0.0,0.0,0.0,0.0,0.0,0.0,0.0,0.0,0.0,0.0,0.0,0.0,0.0,0.0,0.0,0.0,0.0,0.0,0.0,0.0,0.0,0.0,0.0,0.0,0.0,0.0,0.0,0.0,0.0,0.0,0.0,0.0,0.0,0.0,0.0,0.0,0.0,0.0,0.0,0.0,0.0,0.0,0.0,0.0,0.0,0.0,0.0,0.0,0.0,0.0,0.0,0.0,0.0,0.0,0.0,0.0,0.0,0.0,0.0,0.0,0.0,0.0,0.0,0.0,0.0,0.0,0.0,0.0,0.0,0.0,0.0,0.0,0.0,0.0,0.0,0.0,0.0,0.0,0.0,0.0,0.0,0.0,0.0,0.0,0.0,0.0,0.0,0.0,0.0,0.0,0.0,0.0,0.0,0.0,0.0,0.0,0.0,0.0,0.0,0.0,0.0,0.0,0.0,0.0,0.0,0.0,0.0,0.0,0.0,0.0,0.0,0.0,0.0,0.0,0.0,0.0,0.0,0.0,0.0,0.0,0.0,0.0,0.0,0.0,0.0,0.0,0.0,0.0,0.0,0.0,0.0,0.0,0.0,0.0,0.0,0.0,0.0,0.0,0.0,0.0,0.0,0.0,0.0,0.0,0.0,0.0,0.0,0.0,0.0,0.0,0.0,0.0,0.0,0.0,0.0,0.0,0.0,0.0,0.0,0.0,0.0,0.0,0.0,0.0,0.0,0.0,0.0,0.0,0.0,0.0,0.0,0.0,0.0,0.0,0.0,0.0,0.0,0.0,0.0,0.0,0.0,0.0,0.0,0.0,0.0,0.0,0.0,0.0,0.0,0.0,0.0,0.0,0.0,0.0,0.0,0.0,0.0,0.0,0.0,0.0,0.0,0.0,0.0,0.0,0.0,0.0,0.0,0.0,0.0,0.0,0.0,0.0,0.0,0.0,0.0,0.0,0.0,0.0,0.0,0.0,0.0,0.0,0.0,0.0,0.0,0.0,0.0,0.0,0.0,0.0,0.0,0.0,0.0,0.0,0.0,0.0,0.0,0.0,0.0,0.0,0.0,0.0,0.0,0.0,0.0,0.0,0.0,0.0,0.0,0.0,0.0,0.0,0.0,0.0,0.0,0.0,0.0,0.0,0.0,0.0,0.0,0.0,0.0,0.0,0.0,0.0,0.0,0.0,0.0,0.0,0.0,0.0,0.0,0.0,0.0,0.0,0.0,0.0,0.0,0.0,0.0,0.0,0.0,0.0,0.0,0.0,0.0,0.0,0.0,0.0,0.0,0.0,0.0,0.0,0.0,0.0,0.0,0.0,0.0,0.0,0.0,0.0,0.0,0.0,0.0,0.0,0.0,0.0,0.0,0.0,0.0,0.0,0.0,0.0,0.0,0.0,0.0,0.0,0.0,0.0,0.0,0.0,0.0,0.0,0.0,0.0,0.0,0.0,0.0,0.0,0.0,0.0,0.0,0.0,0.0,0.0,0.0,0.0,0.0,0.0,0.0,0.0,0.0,0.0,0.0,0.0,0.0,0.0,0.0,0.0,0.0,0.0,0.0,0.0,0.0,0.0,0.0,0.0,0.0,0.0,0.0,0.0,0.0,0.0,0.0,0.0,0.0,0.0,0.0,0.0,0.0,0.0,0.0,0.0,0.0,0.0,0.0,0.0,0.0,0.0,0.0,0.0,0.0,0.0,0.0,0.0,0.0,0.0,0.0,0.0,0.0,0.0,0.0,0.0,0.0,0.0,0.0,0.0,0.0,0.0,0.0,0.0,0.0,0.0,0.0,0.0,0.0,0.0,0.0,0.0,0.0,0.0,0.0,0.0,0.0,0.0,0.0,0.0,0.0,0.0,0.0,0.0,0.0,0.0,0.0,0.0,0.0,0.0,0.0,0.0,0.0,0.0,0.0,0.0,0.0,0.0,0.0,0.0,0.0,0.0,0.0,0.0,0.0,0.0,0.0,0.0,0.0,0.0,0.0,0.0,0.0,0.0,0.0,0.0,0.0,0.0,0.0,0.0,0.0,0.0,0.0,0.0,0.0,0.0,0.0,0.0,0.0,0.0,0.0,0.0,0.0,0.0,0.0,0.0,0.0,0.0,0.0,0.0,0.0,0.0,0.0,0.0,0.0,0.0,0.0,0.0,0.0,0.0,0.0,0.0,0.0,0.0,0.0,0.0,0.0,0.0,0.0,0.0,0.0,0.0,0.0,0.0,0.0,0.0,0.0,0.0,0.0,0.0,0.0,0.0,0.0,0.0,0.0,0.0,0.0,0.0,0.0,0.0,0.0,0.0,0.0,0.0,0.0,0.0,0.0,0.0,0.0,0.0,0.0,0.0,0.0,0.0,0.0,0.0,0.0,0.0,0.0,0.0,0.0,0.0,0.0,0.0,0.0,0.0,0.0,0.0,0.0,0.0,0.0,0.0,0.0,0.0,0.0,0.0,0.0,0.0,0.0,0.0,0.0,0.0,0.0,0.0,0.0,0.0,0.0,0.0,0.0,0.0,0.0,0.0,0.0,0.0,0.0,0.0,0.0,0.0,0.0,0.0,0.0,0.0,0.0,0.0,0.0,0.0,0.0,0.0,0.0,0.0,0.0,0.0,0.0,0.0,0.0,0.0,0.0,0.0,0.0,0.0,0.0,0.0,0.0,0.0,0.0,0.0,0.0,0.0,0.0,0.0,0.0,0.0,0.0,0.0,0.0,0.0,0.0,0.0,0.0,0.0,0.0,0.0,0.0,0.0,0.0,0.0,0.0,0.0,0.0,0.0,0.0,0.0,0.0,0.0,0.0,0.0,0.0,0.0,0.0,0.0,0.0,0.0,0.0,0.0,0.0,0.0,0.0,0.0,0.0,0.0,0.0,0.0,0.0,0.0,0.0,0.0,0.0,0.0,0.0,0.0,0.0,0.0,0.0,0.0,0.0,0.0,0.0,0.0,0.0,0.0,0.0,0.0,0.0,0.0,0.0,0.0,0.0,0.0,0.0,0.0,0.0,0.0,0.0,0.0,0.0,0.0,0.0,0.0,0.0,0.0,0.0,0.0,0.0,0.0,0.0,0.0,0.0,0.0,0.0,0.0,0.0,0.0,0.0,0.0,0.0,0.0,0.0,0.0,0.0,0.0,0.0,0.0,0.0,0.0,0.0,0.0,0.0,0.0,0.0,0.0,0.0,0.0,0.0,0.0,0.0,0.0,0.0,0.0,0.0,0.0,0.0,0.0,0.0,0.0,0.0,0.0,0.0,0.0,0.0,0.0,0.0,0.0,0.0,0.0,0.0,0.0,0.0,0.0,0.0,0.0,0.0,0.0,0.0,0.0,0.0,0.0,0.0,0.0,0.0,0.0,0.0,0.0,0.0,0.0,0.0,0.0,0.0,0.0,0.0,0.0,0.0,0.0,0.0,0.0,0.0,0.0,0.0,0.0,0.0,0.0,0.0,0.0,0.0,0.0,0.0,0.0,0.0,0.0,0.0,0.0,0.0,0.0,0.0,0.0,0.0,0.0,0.0,0.0,0.0,0.0,0.0,0.0,0.0,0.0,0.0,0.0,0.0,0.0,0.0,0.0,0.0,0.0,0.0,0.0,0.0,0.0,0.0,0.0,0.0,0.0,0.0,0.0,0.0,0.0,0.0,0.0,0.0,0.0,0.0,0.0,0.0,0.0,0.0,0.0,0.0,0.0,0.0,0.0,0.0,0.0,0.0,0.0,0.0,0.0,0.0,0.0,0.0,0.0,0.0,0.0,0.0,0.0,0.0,0.0,0.0,0.0,0.0,0.0,0.0,0.0,0.0,0.0,0.0,0.0,0.0,0.0,0.0,0.0,0.0,0.0,0.0,0.0,0.0,0.0,0.0,0.0,0.0,0.0,0.0,0.0,0.0,0.0,0.0,0.0,0.0,0.0,0.0,0.0,0.0,0.0,0.0,0.0,0.0,0.0,0.0,0.0,0.0,0.0,0.0,0.0,0.0,0.0,0.0,0.0,0.0,0.0,0.0,0.0,0.0,0.0,0.0,0.0,0.0,0.0,0.0,0.0,0.0,0.0,0.0,0.0,0.0,0.0,0.0,0.0,0.0,0.0,0.0,0.0,0.0,0.0,0.0,0.0,0.0,0.0,0.0,0.0,0.0,0.0,0.0,0.0,0.0,0.0,0.0,0.0,0.0,0.0,0.0,0.0,0.0,0.0,0.0,0.0,0.0,0.0,0.0,0.0,0.0,0.0,0.0,0.0,0.0,0.0,0.0,0.0,0.0,0.0,0.0,0.0,0.0,0.0,0.0,0.0,0.0,0.0,0.0,0.0,0.0,0.0,0.0,0.0,0.0,0.0,0.0,0.0,0.0,0.0,0.0,0.0,0.0,0.0,0.0,0.0,0.0,0.0,0.0,0.0,0.0,0.0,0.0,0.0,0.0,0.0,0.0,0.0,0.0,0.0,0.0,0.0,0.0,0.0,0.0,0.0,0.0,0.0,0.0,0.0,0.0,0.0,0.0,0.0,0.0,0.0,0.0,0.0,0.0,0.0,0.0,0.0,0.0,0.0,0.0,0.0,0.0,0.0,0.0,0.0,0.0,0.0,0.0,0.0,0.0,0.0,0.0,0.0,0.0,0.0,0.0,0.0,0.0,0.0,0.0,0.0,0.0,0.0,0.0,0.0,0.0,0.0,0.0,0.0,0.0,0.0,0.0,0.0,0.0,0.0,0.0,0.0,0.0,0.0,0.0,0.0,0.0,0.0,0.0,0.0,0.0,0.0,0.0,0.0,0.0,0.0,0.0,0.0,0.0,0.0,0.0,0.0,0.0,0.0,0.0,0.0,0.0,0.0,0.0,0.0,0.0,0.0,0.0,0.0,0.0,0.0,0.0,0.0,0.0,0.0,0.0,0.0,0.0,0.0,0.0,0.0,0.0,0.0,0.0,0.0,0.0,0.0,0.0,0.0,0.0,0.0,0.0,0.0,0.0,0.0,0.0,0.0,0.0,0.0,0.0,0.0,0.0,0.0,0.0,0.0,0.0,0.0,0.0,0.0,0.0,0.0,0.0,0.0,0.0,0.0,0.0,0.0,0.0,0.0,0.0,0.0,0.0,0.0,0.0,0.0,0.0,0.0,0.0,0.0,0.0,0.0,0.0,0.0,0.0,0.0,0.0,0.0,0.0,0.0,0.0,0.0,0.0,0.0,0.0,0.0,0.0,0.0,0.0,0.0,0.0,0.0,0.0,0.0,0.0,0.0,0.0,0.0,0.0,0.0,0.0,0.0,0.0,0.0,0.0,0.0,0.0,0.0,0.0,0.0,0.0,0.0,0.0,0.0,0.0,0.0,0.0,0.0,0.0,0.0,0.0,0.0,0.0,0.0,0.0,0.0,0.0,0.0,0.0,0.0,0.0,0.0,0.0,0.0,0.0,0.0,0.0,0.0,0.0,0.0,0.0,0.0,0.0,0.0,0.0,0.0,0.0,0.0,0.0,0.0,0.0,0.0,0.0,0.0,0.0,0.0,0.0,0.0,0.0,0.0,0.0,0.0,0.0,0.0,0.0,0.0,0.0,0.0,0.0,0.0,0.0,0.0,0.0,0.0,0.0,0.0,0.0,0.0,0.0,0.0,0.0,0.0,0.0,0.0,0.0,0.0,0.0,0.0,0.0,0.0,0.0,0.0,0.0,0.0,0.0,0.0,0.0,0.0,0.0,0.0,0.0,0.0,0.0,0.0,0.0,0.0,0.0,0.0,0.0,0.0,0.0,0.0,0.0,0.0,0.0,0.0,0.0,0.0,0.0,0.0,0.0,0.0,0.0,0.0,0.0,0.0,0.0,0.0,0.0,0.0,0.0,0.0,0.0,0.0,0.0,0.0,0.0,0.0,0.0,0.0,0.0,0.0,0.0,0.0,0.0,0.0,0.0,0.0,0.0,0.0,0.0,0.0,0.0,0.0,0.0,0.0,0.0,0.0,0.0,0.0,0.0,0.0,0.0,0.0,0.0,0.0,-3.9539,0.0,0.0,0.0,0.0,0.0,0.0,0.0,0.0,0.0,0.0,0.0,0.0,0.0,0.0,0.0,0.0,0.0,0.0,0.0,0.0,0.0,0.0,0.0,0.0,-2.6055,-2.6328,-2.6328,-2.6719,-2.6758,-2.6367,0.0,0.0,0.0,0.0,0.0,-2.5703,-2.6094,-2.6912,-2.8109,-2.8631,-2.9681,-3.1239,-3.0815,-2.9725,-2.8075,0.0,0.0,0.0,0.0,0.0,0.0,0.0,0.0,0.0,0.0,0.0,0.0,0.0,0.0,0.0,0.0,0.0,0.0,0.0,0.0,0.0,0.0,0.0,0.0,0.0,0.0,0.0,0.0,0.0,0.0,0.0,0.0,0.0,0.0,0.0,0.0,0.0,0.0,0.0,0.0,0.0,0.0,0.0,0.0,0.0,0.0,0.0,0.0,0.0,0.0,0.0,0.0,0.0,0.0,0.0,0.0,0.0,0.0,0.0,0.0,0.0,0.0,0.0,0.0,0.0,0.0,0.0,0.0,0.0,0.0,0.0,-4.2013,0.0,0.0,0.0,0.0,0.0,0.0,0.0,0.0,0.0,0.0,0.0,0.0,0.0,0.0,0.0,0.0,0.0,0.0,0.0,0.0,0.0,-2.5742,-2.5898,-2.6562,-2.7109,-2.7422,-2.7969,-2.8047,-2.75,-2.7187,0.0,0.0,0.0,-2.5937,-2.5937,-2.6914,-2.8586,-3.0912,-3.1887,-3.3479,-3.5605,-3.6715,-3.5662,-3.2808,-3.1246,0.0,0.0,0.0,0.0,0.0,0.0,0.0,0.0,0.0,0.0,0.0,0.0,0.0,0.0,0.0,0.0,0.0,0.0,0.0,0.0,0.0,0.0,0.0,0.0,0.0,0.0,0.0,0.0,0.0,0.0,0.0,0.0,0.0,0.0,0.0,0.0,0.0,0.0,0.0,0.0,0.0,0.0,0.0,0.0,0.0,0.0,0.0,0.0,0.0,0.0,0.0,0.0,0.0,0.0,0.0,0.0,0.0,0.0,0.0,0.0,0.0,0.0,0.0,-5.194,-5.2601,-5.3688,-5.259,-5.234,-5.2698,-5.0081,-4.8278,-4.6999,-4.4533,0.0,0.0,0.0,0.0,0.0,0.0,0.0,0.0,0.0,0.0,0.0,0.0,0.0,0.0,0.0,0.0,0.0,0.0,0.0,-2.5977,-2.6758,-2.6914,-2.7617,-2.9141,-2.8672,-2.8555,-2.9219,-2.7851,0.0,0.0,-2.6836,-2.6836,-2.6836,-2.8437,-3.011,-3.1811,-3.6142,-3.8806,-3.984,-4.1415,-4.1931,-4.1346,-3.7067,-3.4992,-3.4608,0.0,0.0,0.0,0.0,0.0,0.0,0.0,0.0,0.0,0.0,0.0,0.0,0.0,0.0,0.0,0.0,0.0,0.0,0.0,0.0,0.0,0.0,0.0,0.0,0.0,0.0,0.0,0.0,0.0,0.0,0.0,0.0,0.0,0.0,0.0,0.0,0.0,0.0,0.0,0.0,0.0,-3.4359,-3.7007,0.0,0.0,0.0,0.0,0.0,0.0,0.0,0.0,0.0,0.0,0.0,0.0,0.0,-5.1241,-5.3472,-5.5852,-5.6891,-5.6633,-5.8778,-5.91,-5.7807,-5.7617,-5.7798,-5.8184,-5.7765,0.0,-5.0037,-4.7573,0.0,0.0,0.0,0.0,0.0,0.0,0.0,0.0,0.0,0.0,0.0,0.0,0.0,0.0,0.0,0.0,0.0,0.0,0.0,0.0,0.0,-2.9453,-3.1094,-3.2344,-3.3476,-3.3437,-3.1836,-3.1016,-2.9531,-2.7109,-2.7461,-2.7734,-2.7734,-3.0351,-3.3704,-3.7715,-4.1717,-4.3834,-4.4221,-4.5551,-4.6093,-4.5996,-4.3911,-4.1142,-3.7756,-3.4386,0.0,0.0,0.0,0.0,0.0,0.0,0.0,0.0,0.0,0.0,0.0,0.0,0.0,0.0,0.0,0.0,0.0,0.0,0.0,0.0,0.0,0.0,0.0,0.0,0.0,0.0,0.0,0.0,0.0,0.0,0.0,0.0,0.0,0.0,0.0,0.0,0.0,0.0,0.0,-3.4783,-3.8361,-3.9931,-3.9931,-3.9392,0.0,0.0,0.0,0.0,0.0,0.0,0.0,0.0,0.0,-5.3598,-5.4972,-5.6665,-5.8742,-6.0559,-6.1315,-6.1073,-6.2411,-6.2349,-6.1071,-6.0808,-6.0555,-6.0256,-6.001,-5.8474,-5.5978,-5.3078,-5.0178,-4.7425,0.0,0.0,0.0,0.0,-4.5039,-4.5608,0.0,0.0,0.0,0.0,0.0,0.0,0.0,0.0,0.0,0.0,0.0,0.0,-2.9453,-3.207,-3.4336,-3.5898,-3.7383,-3.7344,-3.5195,-3.3828,-3.1758,-2.8789,-2.8633,-2.8828,-2.9297,-3.3469,-3.7966,-4.2808,-4.6015,-4.7735,-4.7952,-4.8909,-4.9336,-4.9212,-4.9117,-4.6299,-4.1398,-3.7942,-3.5204,-3.2887,0.0,0.0,0.0,0.0,0.0,0.0,0.0,0.0,0.0,0.0,0.0,0.0,0.0,0.0,0.0,0.0,0.0,0.0,0.0,0.0,0.0,0.0,0.0,0.0,0.0,0.0,0.0,0.0,0.0,0.0,0.0,0.0,0.0,0.0,0.0,0.0,0.0,-3.843,-4.2055,-4.2701,-4.3932,-4.3932,0.0,0.0,0.0,0.0,0.0,0.0,-5.1241,-5.3549,-5.5972,-5.8511,-6.005,-6.1627,-6.3371,-6.4277,-6.4749,-6.48,-6.5072,-6.4728,-6.3798,-6.3409,-6.2888,-6.2153,-6.1603,-6.1227,-6.0786,-5.7519,-5.4546,-5.194,-5.0912,-4.9884,-4.904,-4.9904,-5.0345,-5.0802,0.0,0.0,0.0,0.0,0.0,0.0,0.0,0.0,0.0,0.0,0.0,-2.9492,-3.2773,-3.4023,-3.5976,-3.9336,-3.8242,-3.8008,-3.9492,-3.4961,-3.25,-3.3047,-3.0781,-3.0312,-3.1953,-3.8347,-4.2558,-4.4389,-4.7653,-4.9682,-5.0529,-5.1347,-5.1722,-5.1674,-5.0924,-4.9196,-4.6584,-4.3234,-4.0806,-3.8826,-3.3902,0.0,0.0,0.0,0.0,0.0,0.0,0.0,0.0,0.0,0.0,0.0,0.0,0.0,0.0,0.0,0.0,0.0,0.0,0.0,0.0,0.0,0.0,0.0,0.0,0.0,0.0,0.0,0.0,0.0,0.0,0.0,0.0,0.0,0.0,0.0,0.0,0.0,0.0,-4.5402,-4.7586,0.0,0.0,0.0,0.0,-4.8933,-5.1433,-5.3972,-5.6483,-5.8242,-6.0358,-6.2897,-6.3858,-6.5166,-6.6821,-6.6923,-6.7093,-6.7403,-6.7425,-6.6918,-6.5934,-6.5911,-6.5602,-6.5033,-6.4262,-6.3429,-6.2438,-5.9208,-5.6859,-5.5207,-5.3628,-5.205,-5.0765,-5.1573,-5.2344,-5.3151,0.0,0.0,0.0,0.0,0.0,-2.5703,-2.5703,-2.5703,-2.582,-2.6133,-2.8867,-3.1484,-3.3203,-3.7148,-4.0391,-4.2187,-4.2812,-4.2656,-4.1562,-3.8242,-3.6211,-3.5937,-3.3984,-3.4958,-3.939,-4.2259,-4.5309,-4.8568,-4.9688,-5.0933,-5.2318,-5.2587,-5.2741,-5.2731,-5.2433,-5.1254,-4.9259,-4.5332,-4.2762,-4.0964,-3.696,-3.3702,0.0,0.0,0.0,0.0,0.0,0.0,0.0,0.0,0.0,0.0,0.0,0.0,0.0,0.0,0.0,0.0,0.0,0.0,0.0,0.0,0.0,0.0,0.0,0.0,0.0,0.0,0.0,0.0,0.0,0.0,0.0,0.0,0.0,0.0,0.0,0.0,0.0,-4.9548,-5.1895,0.0,-5.0664,-5.201,-5.3356,-5.4252,-5.6665,-5.8973,-6.0935,-6.2666,-6.4282,-6.5705,-6.659,-6.7321,-6.7936,-6.8475,-6.8642,-6.8379,-6.8929,-6.8561,-6.7409,-6.7409,-6.6983,-6.6282,-6.5677,-6.4897,-6.4058,-6.256,-6.0639,-5.8621,-5.807,-5.7189,-5.6212,-5.6528,-5.6492,-5.6345,0.0,0.0,0.0,0.0,-2.5703,-2.5703,-2.5703,-2.5703,-2.6133,-2.7305,-3.0469,-3.3476,-3.5781,-4.0117,-4.332,-4.4492,-4.5351,-4.5234,-4.3828,-4.0781,-3.8906,-3.8633,-3.7458,-3.892,-4.3383,-4.5337,-4.776,-5.0764,-5.1279,-5.2241,-5.3626,-5.3626,-5.3626,-5.3626,-5.3626,-5.2859,-5.1374,-4.8036,-4.5559,-4.3695,-4.053,-3.7636,-3.4883,0.0,0.0,0.0,0.0,0.0,0.0,0.0,0.0,0.0,0.0,0.0,0.0,0.0,0.0,0.0,0.0,0.0,0.0,0.0,0.0,0.0,0.0,0.0,0.0,0.0,0.0,0.0,0.0,0.0,0.0,0.0,0.0,0.0,0.0,0.0,-5.1433,-5.2231,-5.5357,-5.6665,-5.4664,-5.6511,-5.8204,-5.905,-6.1243,-6.3128,-6.4512,-6.5974,-6.7128,-6.7936,-6.8552,-6.8975,-6.9244,-7.0129,-7.01,-6.9256,-7.0133,-6.9738,-6.8236,-6.8236,-6.7868,-6.7127,-6.6495,-6.5959,-6.5356,-6.4475,-6.3135,-6.1594,-6.1043,-6.0309,-5.9588,-5.9588,-5.9098,-5.8364,0.0,0.0,0.0,-2.5703,-2.5703,-2.5703,-2.5703,-2.5703,-2.6953,-3.0391,-3.2383,-3.543,-4.0586,-4.2734,-4.4453,-4.6133,-4.5547,-4.5391,-4.6211,-4.2305,-4.0312,-4.1211,-4.1226,-4.1974,-4.3587,-4.7592,-5.0014,-5.0827,-5.2433,-5.3703,-5.4549,-5.4549,-5.4549,-5.4549,-5.4549,-5.4049,-5.3126,-5.152,-4.9561,-4.7326,-4.4668,-4.2674,-4.082,0.0,0.0,0.0,0.0,0.0,0.0,0.0,0.0,0.0,0.0,0.0,0.0,0.0,0.0,0.0,0.0,0.0,0.0,0.0,0.0,0.0,0.0,0.0,0.0,0.0,0.0,0.0,0.0,0.0,0.0,0.0,0.0,0.0,-4.5825,-5.0894,-5.428,-5.3549,-5.7819,-5.9896,-5.7484,-6.0254,-6.2551,-6.3358,-6.5013,-6.632,-6.7128,-6.7975,-6.8859,-6.9744,-6.9783,-7.0167,-7.0975,-7.1822,-7.1573,-7.0205,-7.1082,-7.0479,-6.8642,-6.8642,-6.8308,-6.7747,-6.6948,-6.6617,-6.647,-6.4839,-6.4177,-6.3957,-6.2316,-6.1153,-6.0456,-6.0456,-5.9905,-5.9074,0.0,0.0,-2.5703,-2.5703,-2.5703,-2.5703,-2.5703,-2.5703,-2.6719,-2.957,-3.3086,-3.6562,-3.9883,-4.3437,-4.5781,-4.625,-4.6094,-4.5781,-4.5391,-4.2539,-4.1211,-4.2031,-4.4353,-4.6664,-4.8852,-4.9944,-5.1451,-5.3472,-5.3933,-5.4549,-5.5357,-5.5357,-5.5357,-5.5357,-5.5357,-5.4895,-5.4098,-5.376,-5.253,-5.0524,-4.7431,-4.4907,-4.2734,0.0,0.0,0.0,0.0,0.0,0.0,0.0,0.0,0.0,0.0,0.0,0.0,0.0,0.0,0.0,0.0,0.0,0.0,0.0,0.0,0.0,0.0,0.0,0.0,0.0,0.0,0.0,0.0,0.0,0.0,0.0,0.0,-4.9711,-5.0933,-5.4087,-5.6907,-5.8511,-6.0512,-6.1935,-6.2474,-6.3935,-6.5166,-6.5974,-6.709,-6.809,-6.8936,-6.9206,-7.0014,-7.1475,-7.1514,-7.1937,-7.2783,-7.3014,-7.2957,-7.2586,-7.2816,-7.2326,-7.1183,-7.1183,-7.0773,-6.9971,-6.9361,-6.8791,-6.8148,-6.6934,-6.5747,-6.4536,-6.3039,-6.1998,-6.1263,-6.1263,-6.0382,-5.9148,0.0,-2.5067,-2.5703,-2.5703,-2.5703,-2.5703,-2.5703,-2.5703,-2.7031,-3.0703,-3.3984,-3.7383,-4.1094,-4.4375,-4.6133,-4.5781,-4.6094,-4.5625,-4.4023,-4.2851,-4.2773,-4.3984,-4.6828,-4.9196,-5.0957,-5.1888,-5.307,-5.4511,-5.4857,-5.5241,-5.5703,-5.5703,-5.5703,-5.5703,-5.5703,-5.5434,-5.4993,-5.4796,-5.4156,-5.3029,-5.046,-4.8184,-4.6125,-4.4101,-4.2062,-4.0067,-3.7999,-3.7043,-3.6613,-3.5722,0.0,0.0,0.0,0.0,0.0,0.0,0.0,0.0,0.0,0.0,0.0,0.0,0.0,0.0,0.0,0.0,0.0,0.0,0.0,0.0,0.0,0.0,0.0,0.0,-5.0471,-5.351,-5.5549,-5.7434,-5.9281,-6.1139,-6.2397,-6.3666,-6.5013,-6.5897,-6.6898,-6.809,-6.8667,-6.9475,-7.0667,-7.0744,-7.136,-7.2706,-7.2745,-7.2976,-7.3514,-7.3808,-7.3697,-7.3108,-7.3507,-7.3105,-7.2007,-7.1436,-7.0928,-7.0398,-6.9504,-6.8805,-6.8312,-6.7361,-6.642,0.0,0.0,0.0,0.0,0.0,-6.1006,-6.0126,0.0,-2.5031,-2.5703,-2.5703,-2.5703,-2.5703,-2.5703,-2.5703,-2.7539,-3.2617,-3.4766,-3.7773,-4.2851,-4.4961,-4.5742,-4.5078,-4.5703,-4.5195,-4.3008,-4.3555,-4.4805,-4.6641,-4.8746,-5.0345,-5.1424,-5.3464,-5.4542,-5.4626,-5.5357,-5.5703,-5.5703,-5.5703,-5.5703,-5.5703,-5.5703,-5.5703,-5.5647,-5.5067,-5.4865,-5.4736,-5.3224,-5.163,-4.9928,-4.7614,-4.6123,-4.4904,-4.2559,-4.0616,-3.9029,-3.8119,0.0,0.0,0.0,0.0,0.0,0.0,0.0,0.0,0.0,0.0,0.0,0.0,0.0,0.0,0.0,0.0,0.0,0.0,0.0,0.0,0.0,0.0,0.0,0.0,-5.4318,-5.6896,-5.9435,-6.055,-6.1358,-6.2139,-6.3705,-6.5128,-6.609,-6.6898,-6.8052,-6.9706,-6.9937,-7.0629,-7.2129,0.0,0.0,0.0,0.0,-7.3668,-7.3783,-7.4476,-7.4221,-7.2983,-7.3785,-7.3419,-7.2104,-7.0884,-7.0218,-6.9901,-6.8667,-6.8004,-6.7815,-6.7037,-6.6591,-6.6219,-6.4677,-6.3576,-6.2732,-6.1998,-6.1667,-6.141,0.0,-2.5005,-2.5654,-2.5703,-2.5703,-2.5703,-2.5703,-2.5703,-2.7305,-3.1836,-3.3906,-3.668,-4.1172,-4.3203,-4.4414,-4.4961,-4.5156,-4.5351,-4.5547,-4.5703,-4.6875,-4.9336,-5.0401,-5.1923,-5.408,-5.4481,-5.4928,-5.5472,-5.5626,-5.5703,-5.5703,-5.5703,-5.5703,-5.5703,-5.5703,-5.5703,-5.5686,-5.5677,-5.5327,-5.465,-5.3763,-5.247,-5.1014,-4.9883,-4.8763,-4.7626,-4.6419,-4.5675,-4.5093,-4.4182,-4.2317,-4.0192,-3.933,0.0,0.0,0.0,0.0,0.0,0.0,0.0,0.0,0.0,0.0,0.0,0.0,0.0,0.0,0.0,0.0,0.0,0.0,0.0,0.0,-5.3395,-5.6126,-5.8704,-6.1254,-6.2281,-6.2897,-6.3051,-6.4589,-6.6244,-6.7782,-6.8706,-6.9629,-7.0591,-7.1321,-7.186,-7.2168,-7.286,-7.363,-7.4437,-7.4476,-7.4822,-7.5515,-7.5668,-7.5601,-7.5334,0.0,0.0,-7.4136,-7.3865,-7.2792,-7.1085,-7.0802,-7.0055,-6.8956,-6.8348,-6.7099,-6.5448,-6.4457,-6.3576,-6.278,-6.2658,-6.2144,-6.1557,-2.5024,-2.5331,-2.5661,-2.5703,-2.5703,-2.5703,-2.5703,-2.5703,-2.7109,-3.1055,-3.3008,-3.5547,-3.9453,-4.1055,-4.1797,-4.1797,-4.1797,-4.2891,-4.5469,-4.6055,-4.7656,-5.0664,-5.1891,-5.3267,-5.4863,-5.5169,-5.5427,-5.5703,-5.5703,-5.5703,-5.5703,-5.5703,-5.5703,-5.5703,-5.5703,-5.5703,-5.5724,-5.5822,-5.5714,-5.5385,-5.4564,-5.3634,-5.2539,-5.1183,-5.0024,-4.907,-4.8572,-4.7756,-4.6808,-4.6394,-4.4816,-4.2893,-4.2085,-4.0046,-3.743,0.0,0.0,0.0,0.0,0.0,0.0,0.0,0.0,0.0,0.0,0.0,0.0,0.0,0.0,-4.5086,0.0,0.0,-5.351,-5.6511,-5.8434,-6.0165,-6.187,-6.3166,-6.3935,-6.3935,-6.5474,-6.7013,-6.8282,-6.9206,-7.0206,-7.1475,-7.1937,-7.2552,-7.3399,-7.386,-7.4476,-7.5322,-7.5361,-7.5553,-7.6015,-7.6015,-7.6015,-7.6015,-7.6015,-7.5784,-7.5308,-7.4628,-7.3461,-7.1964,-7.1312,-7.0206,-6.8884,-6.8333,-6.7229,-6.5815,-6.5007,-6.3943,-6.278,-6.278,-6.2548,-6.2144,-2.5594,-2.5659,-2.5703,-2.5703,-2.5703,-2.5703,-2.5703,-2.5703,-2.6836,-2.9961,-3.1875,-3.4062,-3.7031,-3.8281,-3.875,-3.8398,-3.8945,-4.1016,-4.5,-4.6211,-4.832,-5.1758,-5.3149,-5.4264,-5.5176,-5.5689,-5.5874,-5.5748,-5.5696,-5.5703,-5.5703,-5.5703,-5.5703,-5.5703,-5.5703,-5.5696,-5.5758,-5.584,-5.6019,-5.615,-5.5068,-5.4365,-5.3744,-5.1814,-5.0646,-4.9999,-4.9724,-4.8438,-4.6885,-4.6885,-4.574,-4.4201,-4.3739,-4.2508,-4.0631,-3.7615,-3.6962,0.0,0.0,0.0,0.0,0.0,0.0,0.0,0.0,0.0,-4.2324,-4.5201,-4.7817,-5.0433,-5.3164,-5.5088,-5.6973,-5.9358,-6.0473,-6.1396,-6.2447,-6.3743,-6.4666,-6.482,-6.632,-6.7628,-6.8321,-6.9321,-7.0552,-7.2091,-7.236,-7.3091,-7.463,-7.4861,-7.5284,-7.5976,-7.6015,-7.6015,-7.6015,-7.6015,-7.6015,-7.6015,-7.6015,-7.6015,-7.5962,-7.4845,-7.3802,-7.2764,-7.1273,-6.9874,-6.8614,-6.8185,-6.7476,-6.6611,-6.5948,-6.4595,-6.3025,-6.2853,-6.278,-6.2732,0.0,-2.5659,-2.5703,-2.5703,-2.5703,-2.5703,-2.5703,-2.5703,-2.6406,-2.8359,-3.0117,-3.1601,-3.2773,-3.4336,-3.5859,-3.7305,-4.0234,-4.3164,-4.5976,-4.7695,-5.0156,-5.3555,-5.3867,-5.4677,-5.6182,-5.6198,-5.6084,-5.5883,-5.575,-5.5703,-5.5703,-5.5703,-5.5703,-5.5703,-5.5703,-5.576,-5.5883,-5.5907,-5.609,-5.6215,-5.445,-5.3787,-5.3623,-5.1641,-5.0939,-5.084,-4.9912,-4.8438,-4.6885,-4.6885,-4.574,-4.4432,-4.5094,-4.4671,-4.3508,-4.1662,0.0,-3.8584,-3.6661,-3.6346,-3.7269,-4.0346,-4.1154,-4.2431,0.0,0.0,-4.974,-5.0808,-5.3087,-5.4972,-5.5357,-5.6857,-5.8588,-6.0358,-6.1408,-6.2512,-6.4089,-6.4474,-6.4897,-6.5667,-6.7244,-6.8269,-6.8385,-6.9821,-7.1168,-7.2129,-7.2937,-7.3745,-7.4668,-7.5438,-7.5899,-7.6015,-7.6015,-7.6015,-7.6015,-7.6015,-7.6015,-7.6015,-7.6015,-7.6015,-7.5976,-7.5855,-7.5041,-7.3659,-7.15,-7.0084,-6.921,-6.9148,-6.8375,-6.7188,-6.7114,-6.5816,-6.387,-6.3099,-6.278,-6.2805,0.0,-2.5663,-2.5703,-2.5703,-2.5703,-2.5703,-2.5703,-2.5703,-2.6133,-2.7383,-2.8633,-2.9726,-3.0586,-3.1758,-3.3008,-3.4219,-3.793,-4.1289,-4.3867,-4.7109,-5.0195,-5.3125,-5.3711,-5.476,-5.6352,-5.6358,-5.6242,-5.6052,-5.5891,-5.5816,-5.5816,-5.5738,-5.5703,-5.5714,-5.5789,-5.5831,-5.5924,-5.6005,-5.6217,-5.6266,-5.4918,-5.4126,-5.3576,-5.1662,-5.0667,-5.0177,-4.9748,-4.8129,0.0,0.0,-4.5764,-4.4432,-4.5325,-4.4662,-4.347,-4.2777,-4.2047,0.0,-4.1816,-4.2585,0.0,0.0,-4.6971,-4.9009,-5.1125,-5.2279,-5.328,-5.4587,-5.6126,-5.7357,-5.7819,-5.8934,-6.0165,0.0,-6.2243,-6.3205,-6.4436,-6.4589,-6.4743,-6.5089,-6.6205,-6.7321,-6.8321,-6.9475,-7.0975,-7.2822,-7.3283,-7.4091,-7.5399,-7.5784,-7.6015,-7.6015,-7.6015,-7.6015,-7.6015,-7.6015,-7.6015,-7.6015,-7.6015,-7.6015,-7.6015,-7.6015,-7.5157,-7.3552,-7.1817,-7.0573,-6.9738,-6.9433,-6.898,-6.8393,-6.7964,-6.6717,-6.5136,-6.3984,-6.3246,-6.278,0.0,-2.5703,-2.5703,-2.5703,-2.5703,-2.5703,-2.5703,-2.5703,-2.5937,-2.6562,-2.7383,-2.8164,-2.8828,-2.9648,-3.0547,-3.1406,-3.5625,-3.9336,-4.1914,-4.5898,-4.9414,-5.2226,-5.3164,-5.4411,-5.6066,-5.6282,-5.6361,-5.6246,-5.6058,-5.5969,-5.5962,-5.5887,-5.5845,-5.5855,-5.5939,-5.5998,-5.6052,-5.6207,-5.6191,-5.6023,-5.5032,-5.4018,-5.2918,-5.1324,-4.9692,-4.8238,-4.8225,-4.6798,-4.4916,0.0,-4.4204,-4.342,-4.3995,-4.3701,-4.3124,-4.3355,-4.3585,-4.4047,-4.5287,0.0,0.0,-4.9048,-5.1548,-5.3933,-5.4203,-5.5088,-5.6203,-5.7434,-5.8396,-5.9165,-5.9742,-6.0358,0.0,-6.2243,-6.2935,-6.3705,-6.4782,-6.4743,-6.4589,-6.4589,-6.4936,-6.5859,-6.7552,-6.8936,-7.0744,-7.3322,-7.3514,-7.4245,-7.5899,-7.6015,-7.6015,-7.6015,-7.6015,-7.6015,-7.6015,-7.6015,-7.6015,-7.6015,-7.6015,-7.6015,-7.6015,-7.6015,-7.5207,-7.3769,-7.2524,-7.1462,-7.0642,-6.9997,-6.9664,-6.9455,-6.8868,-6.7686,-6.6163,-6.519,-6.3971,-6.278,0.0,0.0,-2.5703,-2.5703,-2.5703,-2.5703,-2.5703,-2.5703,-2.5703,-2.5742,-2.6484,-2.7031,-2.707,-2.7851,-2.8711,-2.9609,-3.4375,-3.8437,-4.1055,-4.4453,-4.7891,-5.1289,-5.2266,-5.3555,-5.5312,-5.603,-5.6389,-5.6386,-5.6251,-5.6186,-5.6186,-5.6181,-5.6181,-5.6181,-5.6186,-5.6256,-5.6383,-5.6386,-5.5993,-5.5273,-5.4375,-5.292,-5.1204,-5.034,-4.783,-4.4759,-4.4759,-4.4128,-4.2905,-4.0441,-4.0164,-4.0797,-4.0684,-4.1777,0.0,-4.4047,-4.4855,0.0,0.0,0.0,-4.974,-5.1385,-5.3741,-5.5857,-5.6676,-5.8165,-5.9358,-5.9396,-6.0127,-6.0742,-6.0742,-6.0781,-6.1358,-6.3012,-6.3269,-6.3897,-6.5628,-6.5128,-6.4589,-6.4589,-6.3897,-6.4051,0.0,-6.8244,-7.0744,-7.3322,-7.3514,-7.4245,-7.5899,-7.6015,-7.6015,-7.6015,-7.6015,-7.6015,-7.6015,-7.6015,-7.6015,-7.6015,-7.6015,-7.6015,-7.6015,-7.6015,-7.5515,-7.463,-7.3808,-7.2962,-7.2077,-7.1217,-7.0539,-7.0078,-7.004,-6.8693,-6.6765,-6.6745,-6.5045,-6.278,0.0,0.0,0.0,-2.5703,-2.5703,-2.5703,-2.5703,-2.5703,-2.5703,-2.5703,-2.6445,0.0,0.0,0.0,0.0,0.0,0.0,-3.7305,-3.9336,-4.3203,-4.6484,-4.8789,-5.0781,-5.2383,-5.3555,-5.4372,-5.4798,-5.4798,-5.4669,-5.4628,-5.4624,-5.5098,-5.533,-5.5335,-5.542,-5.5503,-5.5494,-5.5023,-5.4997,-5.5117,-5.3086,-5.2179,-5.1794,-4.9323,-4.6823,-4.4314,0.0,-4.0805,-3.9903,-3.9612,-3.9281,-3.9161,-4.0176,0.0,0.0,-4.2239,-4.447,-4.6701,0.0,0.0,-5.3049,-5.4164,-5.6357,-5.8319,-5.8588,-5.955,-6.0204,-5.9627,-5.9742,-5.9781,-5.9242,-5.9588,-6.0512,-6.2204,-6.2935,-6.3897,-6.5628,-6.5628,-6.5013,-6.3858,-6.4512,0.0,0.0,0.0,0.0,-7.1552,-7.2322,-7.336,-7.5053,-7.5707,-7.6015,-7.6015,-7.6015,-7.6015,-7.6015,-7.6015,-7.6015,-7.6015,-7.6015,-7.6015,-7.6015,-7.6015,-7.5515,-7.4668,-7.386,-7.3014,-7.2129,-7.1245,-7.0791,-7.0637,-7.0637,-6.9626,-6.8136,-6.7566,-6.6201,-6.454,0.0,0.0,0.0,0.0,0.0,0.0,0.0,0.0,0.0,0.0,0.0,0.0,0.0,0.0,0.0,0.0,0.0,0.0,-3.7109,-4.0664,-4.3633,-4.5664,-4.7617,-4.9219,-5.0391,-5.1289,-5.1875,-5.2187,-5.241,-5.2671,-5.2944,-5.3448,-5.3657,-5.366,-5.375,-5.3766,-5.3767,-5.3279,-5.3242,-5.3281,-5.1328,-5.0231,-4.9553,-4.7147,-4.4634,0.0,-3.9448,-3.7876,-3.7022,-3.7251,-3.7484,0.0,0.0,0.0,-4.1431,-4.3124,-4.5586,-4.8317,-5.0587,-5.3241,-5.5665,-5.678,-5.8511,-5.9973,-5.9973,-6.0165,-6.0089,-5.9242,-5.8588,-5.7973,-5.7473,-5.755,-5.855,-6.1204,-6.205,-6.332,-6.5974,-6.582,-6.5128,-6.432,-6.4936,0.0,0.0,0.0,0.0,-7.0667,-7.2014,-7.3245,-7.463,-7.5515,-7.6015,-7.6015,-7.6015,-7.6015,-7.6015,-7.6015,-7.6015,-7.6015,-7.6015,-7.6015,-7.6015,-7.6015,-7.5707,-7.5091,-7.3976,-7.3168,-7.2552,-7.1398,-7.0898,-7.0898,-7.0898,-7.0182,-6.9092,-6.8197,-6.7049,-6.567,0.0,0.0,0.0,0.0,0.0,0.0,0.0,0.0,0.0,0.0,0.0,0.0,0.0,0.0,0.0,0.0,0.0,0.0,-3.457,-3.7031,-3.9609,-4.2109,-4.3086,-4.4375,-4.6133,-4.7031,-4.7891,-4.8789,-4.9609,-5.0391,-5.1133,-5.1172,-5.1211,-5.1211,-5.1211,-5.1211,-5.1211,-5.1172,-5.0703,-4.9922,-4.8984,-4.7148,-4.4844,-4.3906,-4.1484,-3.8398,-3.668,0.0,0.0,0.0,0.0,0.0,0.0,0.0,0.0,0.0,0.0,-5.0317,-5.3703,-5.5857,-5.7522,-5.9165,-6.0204,-6.0781,-6.0742,-6.005,-5.9204,-5.828,-5.6742,-5.5511,0.0,0.0,-5.5857,-5.9896,-6.0742,-6.2358,-6.6436,-6.5743,-6.5089,0.0,0.0,0.0,0.0,0.0,0.0,-7.0706,0.0,-7.3822,-7.4668,-7.5515,-7.6015,-7.6015,-7.6015,-7.6015,-7.6015,-7.6015,-7.6015,-7.6015,-7.6015,-7.6015,-7.6015,-7.6015,-7.6015,-7.5899,-7.4245,-7.3514,-7.336,-7.1629,-7.0898,-7.0898,-7.0898,-7.0437,-6.9667,-6.8783,-6.764,-6.6303,0.0,0.0,0.0,0.0,0.0,0.0,0.0,0.0,0.0,0.0,0.0,0.0,0.0,0.0,0.0,0.0,0.0,0.0,0.0,-3.5586,-3.7539,-3.9492,-4.1016,-4.2617,-4.4336,-4.5234,-4.6094,-4.6953,-4.7187,-4.7383,-4.7617,-4.8242,-4.8555,-4.8555,-4.8555,-4.8555,-4.8516,-4.7891,-4.7461,-4.7148,-4.5625,-4.4648,-4.3867,-4.2383,-4.0508,-3.8476,0.0,0.0,0.0,0.0,0.0,0.0,0.0,0.0,-4.5864,0.0,0.0,-5.2856,-5.5588,-5.7588,-5.9127,-6.0204,-6.0627,-6.0627,-5.9973,-5.9204,-5.8011,-5.5895,-5.4587,-5.328,0.0,0.0,0.0,-5.6819,-6.0204,0.0,-6.5859,-6.6898,0.0,0.0,0.0,-6.7975,-6.6898,-6.8167,0.0,0.0,-7.1898,-7.3168,-7.463,-7.5515,-7.6015,-7.6015,-7.6015,-7.6015,-7.6015,-7.6015,-7.6015,-7.6015,-7.6015,-7.6015,-7.6015,-7.6015,-7.6015,-7.5899,-7.4245,-7.3514,-7.336,-7.1629,-7.0898,-7.0898,-7.0898,-7.0783,-7.0475,-6.9667,-6.8715,-6.7749,0.0,0.0,0.0,0.0,0.0,0.0,0.0,0.0,0.0,0.0,0.0,0.0,0.0,0.0,0.0,0.0,0.0,0.0,0.0,-3.3594,-3.4922,-3.625,-3.7617,-3.8984,-4.0273,-4.1562,-4.2422,-4.293,-4.3672,-4.4062,-4.4062,-4.457,-4.4805,-4.4805,-4.4805,-4.4805,-4.4766,-4.4258,-4.4062,0.0,0.0,-4.1797,-4.1328,-4.0,-3.8633,0.0,0.0,0.0,0.0,0.0,0.0,-4.3816,-4.5893,-4.7394,-4.8971,-5.201,0.0,-5.5357,-5.7511,-5.905,-6.0204,-6.0666,-6.0512,-5.9896,-5.8665,-5.7473,-5.5818,-5.2856,-5.1279,0.0,0.0,0.0,0.0,0.0,0.0,0.0,-6.5974,-6.7244,-6.7936,0.0,-6.9436,0.0,-6.8859,-7.036,-7.1706,0.0,-7.2706,-7.336,-7.463,-7.5515,-7.6015,-7.6015,-7.6015,-7.6015,-7.6015,-7.6015,-7.6015,-7.6015,-7.6015,-7.6015,-7.6015,-7.6015,-7.6015,-7.5899,0.0,-7.3514,-7.336,-7.1629,-7.0898,-7.0898,-7.0898,-7.0898,-7.0783,-7.0014,-6.9167,-6.8282,0.0,0.0,0.0,0.0,0.0,0.0,0.0,0.0,0.0,0.0,0.0,0.0,0.0,0.0,0.0,0.0,0.0,0.0,0.0,0.0,0.0,-3.3516,-3.4297,-3.5156,-3.6133,-3.7656,-3.8476,0.0,0.0,0.0,-4.0859,-4.0859,-4.0859,-4.0859,-4.0859,-4.0859,-4.0859,-4.0859,-4.0781,-4.0625,-3.9844,-3.9023,-3.8164,0.0,0.0,0.0,0.0,0.0,0.0,0.0,-4.5331,-4.671,-4.9279,-5.1241,-5.3049,-5.5472,-5.6742,-5.7676,-5.9242,-6.0204,-6.0781,-6.0781,-6.005,-5.8896,-5.7214,-5.528,-5.2895,-4.9586,0.0,0.0,-4.524,0.0,-4.9433,-5.351,0.0,-6.1127,-6.6205,-6.7013,-6.7782,-6.9629,-7.0591,-7.1052,-7.1052,-7.2552,-7.3808,-7.463,-7.4053,-7.4014,-7.4822,-7.5592,-7.6015,-7.6015,-7.6015,-7.6015,-7.6015,-7.6015,-7.6015,-7.6015,-7.6015,-7.6015,-7.6015,-7.6015,-7.6015,-7.5899,-7.4245,-7.3514,-7.336,-7.1629,-7.0898,-7.0898,-7.0898,-7.0898,-7.0821,-7.0129,-6.9244,-6.8269,0.0,0.0,0.0,0.0,0.0,0.0,0.0,0.0,0.0,0.0,-3.0664,-2.9766,0.0,0.0,0.0,0.0,0.0,0.0,0.0,0.0,0.0,-3.4414,-3.4609,-3.5469,-3.7031,0.0,0.0,0.0,0.0,0.0,-3.9062,-3.9062,-3.9062,-3.9062,-3.9062,-3.9062,-3.9062,-3.9062,-3.8633,-3.7969,-3.7812,-3.7226,-3.6445,0.0,0.0,0.0,0.0,0.0,0.0,0.0,-4.6911,-5.025,-5.2818,-5.478,-5.6472,-5.8319,-5.8934,-5.9281,-6.0281,-6.0666,-6.0781,-6.0781,-5.9627,-5.805,-5.6319,-5.301,0.0,0.0,0.0,-4.3508,-4.2624,-4.5547,0.0,-5.1885,0.0,0.0,0.0,0.0,-6.7975,0.0,0.0,0.0,0.0,0.0,0.0,0.0,0.0,-7.4861,-7.5745,-7.5938,-7.6015,-7.6015,-7.6015,-7.6015,-7.6015,-7.6015,-7.6015,-7.6015,-7.6015,-7.6015,-7.6015,-7.6015,-7.6015,-7.5899,-7.4245,0.0,-7.336,-7.1629,-7.0898,-7.0898,-7.0898,-7.0898,-7.0898,-7.0744,-6.9706,-6.8385,0.0,0.0,0.0,0.0,0.0,0.0,0.0,-3.0781,-3.2656,-3.5703,-3.5039,-3.4101,-3.3594,-3.2383,-3.1758,0.0,0.0,0.0,0.0,0.0,0.0,0.0,0.0,0.0,0.0,0.0,0.0,0.0,0.0,0.0,0.0,0.0,0.0,0.0,0.0,0.0,0.0,0.0,0.0,0.0,0.0,0.0,0.0,0.0,0.0,0.0,0.0,0.0,0.0,0.0,-4.6041,-5.0032,-5.3435,-5.5626,-5.733,-5.9011,-5.9511,-5.9704,-6.055,-6.0781,-6.0781,-6.0781,-5.8858,-5.6395,-5.4203,0.0,0.0,0.0,0.0,-4.147,-4.0662,0.0,0.0,0.0,0.0,0.0,0.0,0.0,0.0,0.0,0.0,0.0,0.0,0.0,0.0,0.0,0.0,-7.5553,-7.5976,-7.6015,-7.6015,-7.6015,-7.6015,-7.6015,-7.6015,-7.6015,-7.6015,-7.6015,-7.6015,-7.6015,-7.6015,-7.6015,-7.6015,-7.5899,-7.4245,0.0,-7.336,-7.1629,-7.0898,-7.0898,-7.0898,-7.0898,-7.0898,-7.0898,-6.986,-6.8385,0.0,0.0,0.0,0.0,0.0,0.0,0.0,-3.332,-3.5273,-3.8945,-3.9258,-3.8633,-3.7266,-3.4648,-3.3125,0.0,0.0,0.0,0.0,0.0,0.0,0.0,0.0,0.0,0.0,0.0,0.0,0.0,0.0,0.0,0.0,0.0,0.0,0.0,0.0,0.0,0.0,0.0,0.0,0.0,0.0,0.0,0.0,0.0,0.0,0.0,0.0,0.0,0.0,0.0,-4.4416,-4.7649,-5.191,-5.4823,-5.7022,-5.8511,-5.9204,-5.9704,-6.055,-6.0781,-6.0781,-6.0781,-5.8088,-5.4818,-5.2423,-4.8202,0.0,0.0,0.0,-3.9631,-3.9361,0.0,0.0,0.0,0.0,0.0,0.0,0.0,0.0,0.0,0.0,0.0,0.0,0.0,0.0,0.0,0.0,0.0,-7.6015,-7.6015,-7.6015,-7.6015,-7.6015,-7.6015,-7.6015,-7.6015,-7.6015,-7.6015,-7.6015,-7.6015,-7.6015,-7.6015,-7.6015,-7.5899,-7.4245,0.0,0.0,-7.1629,-7.0898,-7.0898,-7.0898,-7.0898,-7.0898,-7.0898,-6.986,-6.8385,0.0,0.0,0.0,0.0,0.0,0.0,0.0,-3.4687,-3.7266,-4.1484,-4.1406,-4.0898,-4.0742,-3.7695,-3.5039,0.0,0.0,0.0,0.0,0.0,0.0,0.0,0.0,0.0,0.0,0.0,0.0,0.0,0.0,0.0,0.0,0.0,0.0,0.0,0.0,0.0,0.0,0.0,0.0,0.0,0.0,0.0,0.0,0.0,0.0,0.0,0.0,0.0,0.0,0.0,0.0,-4.3247,-4.7672,-5.219,-5.6011,-5.6945,0.0,0.0,-6.055,-6.0781,-6.0781,-6.0781,-5.7665,-5.4126,-5.2308,0.0,0.0,0.0,-3.8161,-3.7507,-3.9015,-4.0208,0.0,0.0,0.0,0.0,0.0,0.0,0.0,0.0,0.0,0.0,0.0,0.0,0.0,0.0,0.0,0.0,-7.6015,-7.6015,-7.6015,-7.6015,-7.6015,-7.6015,-7.6015,-7.6015,-7.6015,-7.6015,-7.6015,-7.6015,-7.6015,-7.6015,-7.6015,-7.5899,-7.4245,0.0,0.0,-7.1629,-7.0898,-7.0898,-7.0898,-7.0898,-7.0898,-7.0898,-6.986,-6.8385,0.0,0.0,0.0,0.0,0.0,0.0,-3.4375,-3.5547,-3.793,-4.3281,-4.3242,-4.2695,-4.2695,-4.0586,-3.8008,-3.5195,0.0,0.0,0.0,0.0,0.0,0.0,0.0,0.0,0.0,0.0,0.0,0.0,0.0,0.0,0.0,0.0,0.0,0.0,0.0,0.0,0.0,0.0,0.0,0.0,0.0,0.0,0.0,0.0,0.0,0.0,0.0,0.0,0.0,0.0,0.0,0.0,-4.3337,-4.6585,0.0,0.0,-5.6346,-5.7627,-5.9511,-6.0396,-6.0781,-6.0781,-5.7242,-5.328,-5.1587,0.0,0.0,-3.8854,-3.7969,-3.77,-3.8392,-4.0046,-4.2124,-4.4662,-4.6086,-4.8548,0.0,0.0,0.0,0.0,0.0,0.0,0.0,0.0,0.0,0.0,0.0,0.0,-7.6015,-7.6015,-7.6015,-7.6015,-7.6015,-7.6015,-7.6015,-7.6015,-7.6015,-7.6015,-7.6015,-7.6015,-7.6015,-7.6015,-7.5707,-7.5168,-7.4014,0.0,0.0,-7.1398,-7.0898,-7.0898,-7.0898,-7.0898,-7.0898,-7.0898,-6.986,-6.8385,0.0,0.0,0.0,0.0,0.0,-3.1055,-3.5351,-3.6211,-3.8281,-4.3555,-4.3711,-4.332,-4.332,-4.1601,-3.9531,-3.7344,-3.5898,0.0,0.0,0.0,0.0,0.0,0.0,0.0,0.0,0.0,0.0,0.0,-3.9609,0.0,0.0,0.0,0.0,0.0,0.0,0.0,0.0,0.0,0.0,0.0,0.0,0.0,0.0,0.0,0.0,0.0,0.0,0.0,0.0,0.0,0.0,0.0,0.0,0.0,0.0,0.0,-5.4185,-5.5941,-5.8446,-5.9781,-6.0435,-6.0435,-5.678,-5.2702,0.0,0.0,-4.0392,-3.8738,-3.8161,-3.8084,-3.8354,-3.9854,-4.1508,-4.2893,-4.397,-4.6163,-5.0433,0.0,0.0,0.0,0.0,0.0,0.0,0.0,0.0,0.0,0.0,0.0,0.0,-7.6015,-7.6015,-7.6015,-7.6015,-7.6015,-7.6015,-7.6015,-7.6015,-7.6015,-7.6015,-7.6015,-7.6015,-7.6015,-7.5515,-7.4668,-7.386,0.0,0.0,-7.1245,-7.0898,-7.0898,-7.0898,-7.0898,-7.0898,-7.0898,-6.986,-6.8385,0.0,0.0,0.0,0.0,0.0,0.0,-3.5351,-3.6719,-3.8516,-4.1992,-4.2422,-4.2422,-4.2422,-4.0156,-3.8945,-3.9805,-3.75,0.0,0.0,0.0,0.0,0.0,0.0,0.0,0.0,0.0,-4.0312,-4.1172,-4.1953,0.0,0.0,0.0,0.0,0.0,0.0,0.0,0.0,0.0,0.0,0.0,0.0,0.0,0.0,0.0,0.0,0.0,0.0,0.0,0.0,0.0,0.0,0.0,0.0,0.0,0.0,0.0,-5.1997,-5.5165,-5.7643,-5.8896,-5.9511,-5.9511,-5.6319,-5.2549,0.0,-4.547,-4.1316,-3.9623,-3.8584,-3.8277,-3.913,-3.9323,-4.0162,-4.2701,-4.4509,-4.7048,-5.1269,0.0,0.0,0.0,0.0,0.0,0.0,0.0,0.0,0.0,0.0,0.0,0.0,-7.6015,-7.6015,-7.6015,-7.6015,-7.6015,-7.6015,-7.6015,-7.6015,-7.6015,-7.6015,-7.6015,-7.6015,-7.6015,-7.5515,0.0,0.0,0.0,0.0,-7.1245,-7.0898,-7.0898,-7.0898,-7.0898,-7.0898,-7.0898,-6.986,-6.8385,0.0,0.0,0.0,0.0,0.0,0.0,0.0,-3.4844,-3.6094,-4.0156,-4.0156,-4.0273,-4.1445,-4.0312,-3.9609,-3.9883,-3.8047,0.0,0.0,0.0,0.0,0.0,0.0,0.0,0.0,0.0,-4.1758,-4.2031,-4.2851,-4.3281,0.0,0.0,0.0,0.0,0.0,0.0,0.0,0.0,0.0,0.0,0.0,0.0,0.0,0.0,0.0,0.0,0.0,0.0,0.0,0.0,0.0,0.0,0.0,0.0,0.0,-4.3516,0.0,0.0,-5.2608,-5.4126,-5.5049,-5.4462,-5.2433,-5.0087,-4.8125,-4.4662,-4.1316,-3.9669,-3.9092,-3.8969,-3.9246,-3.9746,-4.1362,-4.5086,-4.6124,0.0,0.0,0.0,0.0,0.0,0.0,0.0,0.0,0.0,0.0,0.0,0.0,0.0,0.0,-7.6015,-7.6015,-7.6015,-7.6015,-7.6015,-7.6015,-7.6015,-7.6015,-7.6015,-7.6015,-7.6015,-7.5976,-7.5399,-7.4668,0.0,0.0,0.0,0.0,-7.1014,-7.0898,-7.0898,-7.0898,-7.0898,-7.0898,-7.0898,-6.986,-6.8385,0.0,0.0,0.0,0.0,0.0,0.0,0.0,-3.3828,-3.4961,-3.8047,-3.8242,-3.8789,-4.0508,-3.9648,-3.9336,-4.0312,-3.9101,0.0,0.0,0.0,0.0,0.0,0.0,0.0,-4.1172,-4.168,-4.2422,-4.3398,-4.3906,-4.4531,-4.5156,-4.4844,-4.3789,0.0,0.0,0.0,0.0,0.0,0.0,0.0,0.0,0.0,0.0,0.0,0.0,0.0,0.0,0.0,0.0,0.0,0.0,0.0,0.0,0.0,0.0,0.0,-4.279,0.0,0.0,-5.126,-5.2202,-5.1962,-5.0394,-4.8471,-4.6778,-4.3778,-4.1008,-3.9977,-3.9515,-3.94,-3.9708,-4.0169,-4.1593,-4.4932,-4.574,0.0,0.0,0.0,0.0,0.0,0.0,0.0,0.0,0.0,0.0,0.0,0.0,0.0,0.0,-7.6015,-7.6015,-7.6015,-7.6015,-7.6015,-7.6015,-7.6015,-7.6015,-7.6015,-7.6015,-7.5822,-7.5476,-7.4938,-7.4091,0.0,0.0,0.0,0.0,-7.0898,-7.0898,-7.0898,-7.0898,-7.0898,-7.086,-7.0552,-6.959,-6.8359,0.0,0.0,0.0,0.0,0.0,0.0,0.0,-3.3555,-3.4922,-3.5781,-3.668,-3.7812,-3.9453,-3.8281,-3.8359,-4.0781,0.0,0.0,0.0,0.0,0.0,0.0,0.0,0.0,-4.1211,-4.1328,-4.2539,-4.4922,-4.5078,-4.6016,-4.7578,-4.6836,-4.5547,-4.3867,-4.2969,0.0,0.0,0.0,0.0,0.0,0.0,0.0,0.0,0.0,0.0,0.0,0.0,0.0,0.0,0.0,0.0,0.0,0.0,0.0,0.0,0.0,0.0,0.0,0.0,0.0,0.0,0.0,-4.9385,-4.7317,-4.5633,-4.2786,0.0,-4.0362,-3.9785,-3.9554,-4.0439,-4.0593,-4.1247,-4.3239,-4.4239,0.0,0.0,0.0,0.0,0.0,0.0,0.0,0.0,0.0,0.0,0.0,0.0,0.0,0.0,-7.5976,-7.6015,-7.6015,-7.6015,-7.6015,-7.6015,-7.6015,-7.6015,-7.6015,-7.5938,-7.5476,-7.4707,-7.4591,-7.3668,0.0,0.0,0.0,0.0,-7.0898,-7.0898,-7.0898,-7.0898,-7.086,-7.0706,-6.9975,-6.9129,-6.8205,0.0,0.0,0.0,0.0,0.0,0.0,0.0,0.0,0.0,0.0,-3.5742,-3.6445,-3.6875,-3.7734,-3.8555,0.0,0.0,0.0,0.0,0.0,0.0,0.0,0.0,0.0,-4.1211,-4.2461,-4.3398,-4.4023,-4.6016,-4.7187,-4.7617,-4.8086,-4.7344,-4.5664,-4.4766,-4.3203,0.0,0.0,0.0,0.0,0.0,0.0,0.0,0.0,0.0,0.0,0.0,0.0,0.0,0.0,0.0,0.0,0.0,0.0,0.0,0.0,-3.764,-3.8344,-4.1224,0.0,-4.3827,-4.3319,-4.3739,-4.3816,0.0,-4.1093,-4.0131,-3.8854,0.0,0.0,-4.1239,-4.1508,-4.2893,0.0,0.0,0.0,0.0,0.0,0.0,0.0,0.0,0.0,0.0,0.0,0.0,0.0,0.0,0.0,0.0,-7.563,-7.6015,-7.6015,-7.6015,-7.6015,-7.6015,-7.6015,-7.6015,-7.5976,-7.5322,-7.4899,-7.4668,-7.336,-7.2552,0.0,0.0,0.0,-7.0898,-7.0898,-7.0898,-7.0898,-7.0898,-7.0514,-6.9975,-6.9783,-6.8744,-6.7359,0.0,0.0,0.0,0.0,0.0,0.0,0.0,0.0,0.0,0.0,0.0,-3.6601,-3.6601,-3.8164,0.0,0.0,0.0,0.0,0.0,0.0,0.0,0.0,0.0,-4.1367,-4.1758,-4.2656,-4.3906,-4.5508,-4.6914,-4.8008,-4.8789,-4.8867,-4.7969,-4.6211,-4.4531,-4.2851,0.0,0.0,0.0,0.0,0.0,0.0,0.0,0.0,0.0,0.0,0.0,-3.8555,0.0,-4.0234,-4.0742,-4.082,0.0,0.0,0.0,0.0,-3.6637,-3.6781,-3.7698,-3.9902,-4.1886,-4.1767,-4.2418,-4.284,-4.1931,0.0,0.0,0.0,0.0,0.0,0.0,0.0,0.0,0.0,0.0,0.0,0.0,0.0,0.0,0.0,0.0,0.0,0.0,0.0,0.0,0.0,0.0,0.0,0.0,-7.4591,-7.4861,-7.4861,-7.4861,-7.5014,-7.5399,-7.5399,-7.5207,-7.4861,-7.4361,-7.3937,-7.3514,-7.2591,-7.1975,0.0,0.0,0.0,-7.0898,-7.0898,-7.0898,-7.086,-7.0475,-7.009,-6.959,-6.8783,-6.7898,-6.7051,0.0,0.0,0.0,0.0,0.0,0.0,0.0,0.0,0.0,0.0,0.0,0.0,0.0,0.0,0.0,0.0,0.0,0.0,0.0,0.0,0.0,0.0,-4.1328,-4.1562,-4.2383,-4.2539,-4.4101,-4.7187,-4.7734,-4.875,-5.0195,-4.9726,-4.8359,-4.6211,-4.3828,-4.2266,0.0,0.0,0.0,0.0,0.0,0.0,0.0,0.0,0.0,0.0,0.0,0.0,0.0,-4.0117,-4.1211,-4.1719,-4.0039,0.0,0.0,0.0,0.0,0.0,-3.6428,-3.9147,-4.2047,-4.2492,-4.2855,-4.3104,-4.3021,0.0,0.0,0.0,0.0,0.0,0.0,0.0,0.0,0.0,0.0,0.0,0.0,0.0,0.0,0.0,0.0,0.0,0.0,0.0,0.0,0.0,0.0,0.0,0.0,-7.3437,-7.3514,-7.3514,-7.3514,-7.3783,-7.4322,-7.4437,-7.4168,-7.3514,-7.336,-7.2899,-7.2206,-7.2052,-7.1591,-7.0898,0.0,0.0,-7.0898,-7.0898,-7.0821,-7.0667,-6.9975,-6.9552,-6.9129,-6.7628,-6.7013,-6.6821,0.0,0.0,0.0,0.0,0.0,0.0,0.0,0.0,0.0,0.0,0.0,0.0,0.0,0.0,0.0,0.0,0.0,0.0,0.0,0.0,0.0,-4.332,-4.1953,-4.1562,-4.2383,-4.3125,-4.4101,-4.5391,-4.8359,-4.9922,-5.0234,-5.1523,-5.0039,-4.625,-4.5117,-4.3711,-4.2226,-4.2226,0.0,0.0,0.0,0.0,0.0,0.0,0.0,0.0,0.0,0.0,0.0,-3.7812,-3.8945,-3.9961,-3.8242,0.0,0.0,0.0,0.0,0.0,-3.8671,-4.0638,-4.1737,-4.0316,-4.1602,-4.3008,-4.2336,0.0,0.0,0.0,0.0,0.0,0.0,0.0,0.0,0.0,0.0,0.0,0.0,0.0,0.0,0.0,0.0,0.0,0.0,0.0,0.0,0.0,0.0,0.0,0.0,-7.3091,-7.3514,-7.3514,-7.3514,-7.3206,-7.2591,-7.3322,-7.363,-7.35,-7.2745,-7.2322,-7.2168,-7.1437,-7.1014,-7.0898,0.0,-7.0898,-7.0898,-7.0898,-7.0514,-6.986,-6.9744,-6.8783,-6.7475,-6.7205,-6.6667,-6.6051,0.0,0.0,0.0,0.0,0.0,0.0,0.0,0.0,0.0,0.0,0.0,0.0,0.0,0.0,0.0,0.0,0.0,0.0,0.0,0.0,-4.3906,-4.4375,-4.3203,-4.293,-4.3789,-4.5117,-4.6484,-4.7812,-5.0781,-5.2266,-5.2226,-5.1641,-4.9531,-4.625,-4.4883,-4.3867,-4.3086,-4.2617,0.0,0.0,0.0,0.0,0.0,0.0,0.0,0.0,0.0,0.0,0.0,0.0,-3.9141,-4.0391,-3.9101,0.0,0.0,0.0,0.0,0.0,-3.7461,-3.9559,-4.131,-4.0951,-4.3034,-4.4986,-4.4234,-4.3993,0.0,0.0,0.0,0.0,0.0,0.0,0.0,0.0,0.0,0.0,0.0,0.0,0.0,0.0,0.0,0.0,0.0,0.0,0.0,0.0,0.0,0.0,0.0,0.0,-7.2091,-7.2091,-7.2091,-7.1898,-7.1514,-7.1898,-7.2091,-7.2091,-7.1706,-7.1514,-7.1475,-7.1091,-7.0898,-7.0898,0.0,-7.0667,-7.0244,-7.0244,-6.9744,-6.8936,-6.8475,-6.7821,-6.7051,-6.659,-6.6205,-6.5897,0.0,0.0,0.0,0.0,0.0,0.0,0.0,0.0,0.0,0.0,0.0,0.0,0.0,0.0,0.0,0.0,0.0,0.0,0.0,-4.3516,-4.4375,-4.5273,-4.4844,-4.5039,-4.5898,-4.7226,-4.8867,-5.0781,-5.3359,-5.4492,-5.4258,-5.1875,-4.9297,-4.6523,-4.5,-4.4219,-4.3945,-4.3281,-4.3008,0.0,0.0,0.0,0.0,0.0,0.0,0.0,0.0,0.0,0.0,0.0,0.0,0.0,0.0,0.0,0.0,-3.8047,-3.6992,-3.6445,-3.7031,-3.8984,-4.1093,-4.2187,0.0,-4.6723,-4.6922,-4.6769,0.0,0.0,0.0,0.0,0.0,0.0,0.0,0.0,0.0,0.0,0.0,0.0,0.0,0.0,0.0,0.0,0.0,0.0,0.0,0.0,0.0,0.0,0.0,-7.0898,-7.0898,-7.0898,-7.0898,-7.0898,-7.0898,-7.0898,-7.0898,-7.0898,-7.0898,-7.0898,-7.0898,-7.0898,-7.0898,-7.0898,-7.0706,-7.0283,-6.9667,-6.9475,-6.8898,-6.8013,-6.7359,-6.6974,-6.6744,-6.6128,-6.5897,-6.5897,0.0,0.0,0.0,0.0,0.0,0.0,0.0,0.0,0.0,0.0,0.0,0.0,0.0,0.0,0.0,0.0,0.0,0.0,0.0,-4.4414,-4.5312,-4.6172,-4.6914,-4.7734,-4.8594,-4.875,-5.0039,-5.2539,-5.5117,-5.6015,-5.5156,-5.3359,-5.0742,-4.7461,-4.6523,-4.5664,-4.4883,-4.4844,-4.4805,-4.4726,0.0,0.0,0.0,0.0,0.0,0.0,0.0,0.0,0.0,0.0,0.0,0.0,0.0,0.0,-3.9726,-3.8789,-3.7891,-3.7734,-4.0156,-4.0882,-4.1381,-4.3068,-4.4727,-4.675,-4.978,-4.9892,0.0,-5.2457,0.0,0.0,0.0,0.0,0.0,0.0,0.0,0.0,0.0,0.0,0.0,0.0,0.0,0.0,0.0,0.0,0.0,0.0,0.0,0.0,-7.0898,-7.0898,-7.0898,-7.0898,-7.0898,-7.0898,-7.0898,-7.0898,-7.0898,-7.0898,-7.0898,-7.0898,-7.0898,-7.0898,-7.0898,-7.086,-7.0129,-6.9744,-6.9629,-6.8821,-6.7975,-6.7167,-6.7128,-6.6628,-6.5974,-6.5897,-6.5897,-6.5897,0.0,0.0,0.0,0.0,0.0,0.0,0.0,0.0,0.0,0.0,0.0,0.0,0.0,0.0,0.0,0.0,0.0,0.0,0.0,-4.3711,-4.4805,-4.625,-4.6601,-4.7695,-4.9687,-5.125,-5.2812,-5.4336,-5.5859,-5.5898,-5.4453,-5.2187,-4.9883,-4.7539,-4.6133,-4.5625,-4.5781,-4.5234,-4.5,-4.4922,-4.4062,0.0,0.0,0.0,0.0,0.0,0.0,0.0,0.0,0.0,-3.7422,-3.8516,-3.7969,-3.875,-3.9726,-3.8867,-3.7969,-3.7539,-3.8516,-4.0651,-4.2644,-4.2722,-4.6028,0.0,0.0,-5.1066,-5.256,-5.4469,-5.4555,0.0,0.0,0.0,0.0,0.0,0.0,0.0,0.0,0.0,0.0,0.0,0.0,0.0,0.0,0.0,0.0,0.0,0.0,0.0,0.0,-7.0898,-7.0898,-7.0898,-7.0898,-7.0898,-7.0898,-7.0898,-7.0667,-7.0167,-7.0667,-7.0898,-7.0898,-7.0398,-7.0167,-7.0129,-6.9244,-6.859,-6.8052,-6.7744,-6.709,-6.6359,-6.6359,-6.6167,-6.5897,-6.5897,-6.5897,-6.5897,0.0,0.0,0.0,0.0,0.0,0.0,0.0,0.0,0.0,0.0,0.0,0.0,0.0,0.0,0.0,0.0,0.0,0.0,-4.2344,-4.2969,-4.4062,-4.582,-4.6133,-4.7383,-4.9726,-5.2305,-5.4141,-5.5312,-5.6172,-5.5586,-5.3555,-5.125,-4.9414,-4.793,-4.6172,-4.5898,-4.6641,-4.5781,-4.5391,-4.5312,-4.4453,-4.3594,0.0,0.0,0.0,0.0,0.0,0.0,0.0,0.0,-3.7187,-3.8164,-3.8125,-3.8945,-3.9766,-3.918,-3.8789,-3.8476,-3.8203,-4.0619,-4.318,-4.3099,0.0,0.0,-5.1198,-5.2806,-5.4839,-5.6894,-5.6896,0.0,0.0,0.0,0.0,0.0,0.0,0.0,0.0,0.0,0.0,0.0,0.0,0.0,0.0,0.0,0.0,0.0,0.0,0.0,0.0,-7.0129,-7.0129,-7.0129,-7.0129,-7.0129,-7.0129,-7.0129,-6.9821,-6.9321,-6.986,-7.0129,-7.009,-6.9552,-6.9283,-6.9244,-6.8359,-6.7667,-6.709,-6.6821,-6.6397,-6.5897,-6.5897,-6.5897,-6.5897,-6.5897,-6.5897,-6.5897,0.0,0.0,0.0,0.0,0.0,0.0,0.0,0.0,0.0,0.0,0.0,0.0,0.0,0.0,0.0,0.0,0.0,0.0,-4.2344,-4.2383,-4.3164,-4.4922,-4.582,-4.7109,-4.8828,-5.1367,-5.3516,-5.5273,-5.6133,-5.5234,-5.2617,-5.0976,-4.9726,-4.8789,-4.707,-4.6797,-4.7539,-4.668,-4.6289,-4.6211,-4.5351,-4.4492,0.0,0.0,0.0,0.0,0.0,0.0,0.0,0.0,-3.7305,-3.7617,-3.9336,-3.9883,-3.9922,-3.9883,-4.0508,-4.1016,-4.0156,-4.1133,-4.2851,0.0,0.0,0.0,-5.4069,-5.5518,-5.7021,-6.0162,0.0,0.0,0.0,0.0,0.0,0.0,0.0,0.0,0.0,0.0,0.0,0.0,0.0,0.0,0.0,0.0,0.0,0.0,0.0,0.0,0.0,-6.8385,-6.8385,-6.8385,-6.8385,-6.8385,-6.8385,-6.8385,-6.8385,-6.8385,-6.8385,-6.8385,-6.8385,-6.8385,-6.8385,-6.8346,-6.7475,-6.709,-6.7013,-6.6244,-6.5897,-6.5897,-6.5897,-6.5897,-6.5897,-6.5897,-6.5897,-6.5897,0.0,0.0,0.0,0.0,0.0,0.0,0.0,0.0,0.0,0.0,0.0,0.0,0.0,0.0,0.0,0.0,0.0,0.0,-4.1562,-4.2109,-4.2891,-4.4023,-4.4922,-4.5898,-4.7031,-4.9023,-5.1445,-5.4375,-5.4648,-5.3125,-5.0039,-4.9531,-4.8476,-4.707,-4.7187,-4.7031,-4.668,-4.6406,-4.6289,-4.6211,-4.5351,-4.4492,0.0,0.0,0.0,0.0,0.0,0.0,0.0,0.0,0.0,0.0,-3.7891,-3.9336,-4.0586,-3.9336,-4.0039,-4.1016,-4.0156,-4.2031,0.0,0.0,0.0,0.0,0.0,-5.7286,0.0,0.0,0.0,0.0,0.0,0.0,0.0,0.0,0.0,0.0,0.0,0.0,0.0,0.0,0.0,0.0,0.0,0.0,0.0,0.0,0.0,0.0,0.0,-6.8385,-6.8385,-6.8385,-6.8385,-6.8385,-6.8385,-6.8385,-6.809,-6.7475,-6.7475,-6.7821,-6.8385,-6.7782,-6.7475,-6.7436,-6.659,-6.6244,-6.6244,-6.6013,-6.5897,-6.5897,-6.5897,-6.5897,-6.5897,-6.5897,-6.5897,-6.5897,0.0,0.0,0.0,0.0,0.0,0.0,0.0,0.0,0.0,0.0,-4.1601,-4.2266,0.0,0.0,0.0,0.0,0.0,0.0,0.0,-4.2148,-4.2773,-4.3672,-4.4531,-4.5586,-4.6797,-4.8516,-5.0078,-5.1445,-5.2148,-5.1094,-4.8398,-4.9101,-4.8672,-4.7383,-4.8242,-4.8164,-4.7305,-4.6953,-4.6601,-4.625,-4.5742,-4.5,-4.4062,0.0,0.0,0.0,0.0,0.0,0.0,0.0,0.0,0.0,-3.7187,-3.8398,-3.957,-3.9219,-4.0312,-4.1719,-4.1875,0.0,0.0,0.0,0.0,0.0,0.0,0.0,0.0,0.0,0.0,0.0,0.0,0.0,0.0,0.0,0.0,0.0,0.0,0.0,0.0,0.0,0.0,0.0,0.0,0.0,0.0,0.0,0.0,0.0,0.0,-6.7398,-6.7398,-6.7398,-6.7398,-6.7398,-6.7398,-6.7398,-6.7128,-6.6628,-6.6628,-6.6898,-6.7398,-6.6859,-6.6628,-6.659,-6.609,-6.5897,-6.5897,-6.5897,-6.5897,-6.5897,-6.5897,-6.5897,-6.5897,-6.5897,-6.5667,-6.5397,0.0,0.0,0.0,0.0,0.0,0.0,0.0,0.0,0.0,0.0,-4.1211,-4.1523,0.0,0.0,0.0,0.0,0.0,0.0,0.0,-4.2539,-4.2891,-4.3789,-4.4726,-4.6016,-4.7695,-4.918,-4.918,-4.7617,-4.9258,-4.918,-4.7539,-4.9336,-4.9726,-4.8945,-4.9805,-4.9687,-4.8711,-4.7773,-4.6875,-4.6055,-4.6133,-4.5625,-4.4687,-4.3867,0.0,0.0,0.0,0.0,0.0,0.0,0.0,0.0,-3.7031,-3.7305,-3.7617,-3.9219,-4.0898,-4.2656,-4.4414,0.0,0.0,0.0,0.0,0.0,0.0,0.0,0.0,0.0,0.0,0.0,0.0,0.0,0.0,0.0,0.0,0.0,0.0,0.0,0.0,0.0,0.0,0.0,0.0,0.0,0.0,0.0,0.0,0.0,0.0,-6.5897,-6.5897,-6.5897,-6.5897,-6.5897,-6.5897,-6.5897,-6.5897,-6.5897,-6.5897,-6.5897,-6.5897,-6.5897,-6.5897,-6.5897,-6.5897,-6.5897,-6.5897,-6.5897,-6.5897,-6.5897,-6.5897,-6.5859,-6.5782,-6.5782,-6.5243,-6.4474,0.0,0.0,0.0,0.0,0.0,0.0,0.0,0.0,0.0,0.0,0.0,0.0,0.0,0.0,0.0,0.0,0.0,0.0,0.0,-4.3437,-4.3828,-4.4687,-4.6211,-4.7539,-4.8594,-4.832,-4.7969,-4.7617,-4.8672,-4.8281,-4.6641,-4.9062,-4.9726,-4.8945,-4.9805,-4.9336,-4.7773,-4.6211,-4.5078,-4.4336,-4.5,-4.4336,-4.293,-4.2734,-4.1211,0.0,0.0,0.0,0.0,0.0,0.0,0.0,-3.7031,-3.7305,-3.7383,-3.7734,-3.957,-4.1836,0.0,-4.6406,0.0,0.0,0.0,0.0,0.0,0.0,0.0,0.0,0.0,0.0,0.0,0.0,0.0,0.0,0.0,0.0,0.0,0.0,0.0,0.0,0.0,0.0,0.0,0.0,0.0,0.0,0.0,0.0,-6.5897,-6.5897,-6.5897,-6.5897,-6.5897,-6.5897,-6.5897,-6.5897,-6.5897,0.0,-6.5897,-6.5897,-6.5897,-6.5897,-6.5897,-6.5897,-6.5897,-6.5897,-6.5897,-6.5897,-6.5897,-6.5897,-6.5897,-6.5474,-6.4897,-6.4897,-6.432,-6.3589,0.0,0.0,0.0,0.0,0.0,0.0,0.0,0.0,0.0,0.0,0.0,0.0,0.0,0.0,0.0,0.0,0.0,0.0,0.0,-4.4101,-4.4726,-4.5586,-4.6875,-4.7617,-4.7656,-4.7226,-4.6992,-4.6992,-4.6992,-4.6992,-4.6992,-4.957,-5.0547,-5.0156,-5.1016,-5.0195,-4.8125,-4.6367,-4.5117,-4.4336,-4.4375,-4.3828,-4.293,-4.2148,-4.0742,-3.9062,-3.7773,0.0,0.0,0.0,0.0,0.0,0.0,0.0,-3.6289,-3.7578,-3.918,-4.1211,0.0,0.0,0.0,0.0,0.0,0.0,0.0,0.0,0.0,0.0,0.0,0.0,0.0,0.0,0.0,0.0,0.0,0.0,0.0,0.0,0.0,0.0,0.0,0.0,0.0,0.0,0.0,0.0,0.0,-6.5897,-6.5897,-6.5897,-6.5897,-6.5897,-6.5897,-6.5897,-6.5897,-6.5897,-6.5897,-6.5897,-6.5897,-6.5897,-6.5897,-6.5897,-6.5897,-6.5897,-6.5897,-6.5897,-6.5859,-6.5436,-6.5282,-6.5243,-6.482,-6.4397,-6.3974,-6.3974,-6.3435,-6.2743,0.0,0.0,0.0,0.0,0.0,0.0,0.0,0.0,0.0,0.0,0.0,0.0,0.0,0.0,0.0,0.0,0.0,0.0,0.0,-4.4726,-4.5625,-4.6484,-4.7226,-4.7266,-4.6523,-4.6367,-4.6289,-4.6289,-4.543,-4.6133,-4.8281,-5.0391,-5.1484,-5.1641,-5.2226,-5.1055,-4.8555,-4.6641,-4.5273,-4.4297,-4.3555,-4.3164,-4.2891,-4.1328,-4.0195,-3.9258,-3.7656,-3.707,-3.6953,-3.625,0.0,0.0,0.0,0.0,-3.4922,-3.7266,-3.8555,-4.0078,0.0,0.0,0.0,0.0,0.0,0.0,0.0,0.0,0.0,0.0,0.0,0.0,0.0,0.0,0.0,0.0,0.0,0.0,0.0,0.0,0.0,0.0,0.0,0.0,0.0,0.0,0.0,0.0,0.0,-6.5436,-6.5436,-6.5436,-6.5436,-6.5436,-6.5436,-6.5436,-6.5436,-6.5436,-6.5436,-6.5436,-6.5436,-6.5436,-6.5436,-6.5436,-6.5513,-6.5667,-6.5667,-6.559,-6.5397,-6.4666,-6.4397,-6.432,-6.3589,-6.3243,-6.3089,-6.3089,-6.2589,-6.187,0.0,0.0,0.0,0.0,0.0,0.0,0.0,0.0,0.0,0.0,-4.3047,-4.3242,-4.2461,-4.3086,0.0,0.0,0.0,0.0,-4.4766,0.0,0.0,-4.7383,-4.7539,-4.7539,-4.7422,-4.668,-4.6289,-4.6289,-4.543,-4.7031,-5.0898,-5.125,-5.1797,-5.25,-5.1875,-5.0156,-4.7617,-4.5117,-4.3125,-4.1719,-4.1562,-4.1094,-4.0312,-3.9336,-3.8398,-3.7539,-3.6523,-3.6172,-3.6172,-3.6055,-3.6016,0.0,0.0,0.0,0.0,0.0,-3.5859,-3.6992,0.0,0.0,0.0,0.0,0.0,0.0,0.0,0.0,0.0,0.0,0.0,0.0,0.0,0.0,0.0,0.0,0.0,0.0,0.0,0.0,0.0,0.0,0.0,0.0,0.0,0.0,0.0,0.0,-6.3666,-6.3666,-6.3666,-6.3666,-6.3666,-6.3666,-6.3666,-6.3666,-6.3666,-6.3666,-6.3666,-6.3666,-6.3666,-6.3666,-6.3666,-6.3666,-6.4051,-6.4782,-6.4782,-6.4359,-6.3628,-6.3512,-6.3462,-6.3474,-6.3346,-6.2858,-6.2255,-6.2255,-6.1704,-6.0973,0.0,0.0,0.0,0.0,0.0,0.0,0.0,0.0,0.0,0.0,0.0,-4.4101,-4.3203,-4.3047,0.0,0.0,0.0,0.0,-4.4219,-4.5078,0.0,-4.6133,-4.6601,-4.6641,-4.6133,-4.5273,-4.5078,-4.5586,-4.4219,-4.6484,-5.2148,-5.2148,-5.3398,-5.5508,-5.3164,-5.1211,-4.9453,-4.543,-4.3008,-4.1797,-4.0859,-4.1406,-4.2383,-3.9101,-3.8828,-3.9805,-3.6992,-3.6016,-3.6016,-3.6016,-3.6016,-3.6016,0.0,0.0,0.0,0.0,0.0,0.0,0.0,0.0,0.0,0.0,0.0,0.0,0.0,0.0,0.0,0.0,0.0,0.0,0.0,0.0,0.0,0.0,0.0,0.0,0.0,0.0,0.0,0.0,0.0,0.0,0.0,0.0,0.0,0.0,-6.3308,-6.3308,-6.3308,-6.3308,-6.3308,-6.3308,-6.3308,-6.3308,-6.3308,-6.3308,-6.3308,-6.3308,-6.3308,-6.3308,-6.3308,-6.3308,-6.3512,-6.3858,-6.3858,-6.3666,-6.3281,-6.282,-6.2627,-6.2589,-6.2089,-6.1666,-6.1358,-6.1358,-6.1127,-6.0781,0.0,0.0,0.0,0.0,0.0,0.0,0.0,0.0,0.0,0.0,0.0,0.0,-4.4101,0.0,0.0,0.0,0.0,0.0,-4.332,0.0,0.0,0.0,-4.5625,-4.5547,-4.4687,-4.4023,-4.3906,-4.4336,-4.3242,-4.6133,-5.2695,-5.293,-5.5117,-5.8711,-5.5469,-5.293,-5.082,-4.6523,-4.418,-4.3242,-4.1797,-4.2734,-4.4648,-4.1445,-4.1836,-4.3516,-3.9414,-3.7812,-3.75,0.0,0.0,0.0,0.0,0.0,0.0,0.0,0.0,0.0,0.0,0.0,0.0,0.0,0.0,0.0,0.0,0.0,0.0,0.0,0.0,0.0,0.0,0.0,0.0,0.0,0.0,0.0,0.0,0.0,0.0,0.0,0.0,0.0,0.0,0.0,0.0,0.0,-6.2666,-6.2666,-6.2666,-6.2666,-6.2666,-6.2666,-6.2666,-6.2666,-6.2666,-6.2666,-6.2666,-6.2666,-6.2666,-6.2666,-6.2666,-6.2666,-6.2666,-6.2666,-6.2897,-6.2858,-6.2627,-6.2012,-6.1793,-6.1716,-6.105,-6.0781,-6.0781,-6.0781,-6.0781,-6.0781,0.0,0.0,0.0,0.0,0.0,0.0,0.0,0.0,0.0,0.0,0.0,0.0,-4.4922,-4.4141,-4.3281,-4.2422,0.0,0.0,0.0,0.0,0.0,0.0,0.0,0.0,-4.3789,-4.3711,-4.332,-4.2539,-4.3281,-4.6758,-5.2734,-5.3555,-5.664,-6.1406,-5.8789,-5.4883,-5.0156,-4.8203,-4.6875,-4.6016,-4.5117,-4.4844,-4.5234,-4.7461,-4.8398,-4.8086,-4.457,-4.2773,0.0,0.0,0.0,0.0,0.0,0.0,0.0,0.0,0.0,0.0,0.0,0.0,0.0,0.0,0.0,0.0,0.0,0.0,0.0,0.0,0.0,0.0,0.0,0.0,0.0,0.0,0.0,0.0,0.0,0.0,0.0,0.0,0.0,0.0,0.0,0.0,0.0,0.0,-6.0935,-6.0935,-6.0935,-6.0935,-6.0935,-6.0935,-6.0935,-6.0935,-6.0935,-6.0935,-6.0935,-6.0935,-6.0935,-6.0935,-6.0935,-6.0935,-6.0935,-6.0973,-6.1793,-6.1678,-6.0935,-6.0858,-6.0858,-6.0858,-6.0819,-6.0781,-6.0781,-6.0781,-6.0781,-6.0781,0.0,0.0,0.0,0.0,0.0,0.0,0.0,0.0,0.0,0.0,0.0,0.0,0.0,-4.4219,-4.3359,-4.2461,-4.1641,0.0,0.0,0.0,0.0,0.0,0.0,0.0,-4.3711,-4.3711,-4.3281,-4.2383,-4.2187,-4.4883,-5.0273,-5.1133,-5.3125,-5.5898,-5.5547,-5.5,-5.3945,-4.832,-4.6055,-4.6289,-4.5976,-4.7148,-4.9023,-4.832,-5.0117,-5.2422,-4.7851,0.0,0.0,0.0,0.0,0.0,-3.6641,-3.5,-3.3125,-3.1758,0.0,0.0,0.0,0.0,0.0,0.0,0.0,0.0,0.0,0.0,0.0,0.0,0.0,0.0,0.0,0.0,0.0,0.0,0.0,0.0,0.0,0.0,0.0,0.0,0.0,0.0,0.0,0.0,0.0,0.0,0.0,-6.0902,-6.0793,-6.0781,-6.0781,-6.0781,-6.0781,-6.0781,-6.0781,-6.0781,-6.0781,-6.0781,-6.0781,-6.0781,-6.0781,-6.0781,-6.0781,-6.0819,-6.1127,-6.1089,-6.0781,-6.0781,-6.0781,-6.0781,-6.0781,-6.0781,-6.0781,-6.0781,-6.0781,-6.0781,0.0,0.0,0.0,0.0,0.0,0.0,0.0,0.0,-4.2695,-4.3594,0.0,0.0,0.0,0.0,-4.3789,-4.2891,-4.207,-4.1601,-4.1601,-4.1836,0.0,0.0,0.0,0.0,-4.4141,-4.4141,-4.3555,-4.2383,-4.2148,-4.4101,-4.8047,-4.9219,-5.082,-5.2695,-5.2422,-5.3555,-5.539,0.0,0.0,-4.8086,0.0,-5.0312,-5.1914,-5.2539,-5.4531,-5.6484,0.0,0.0,0.0,0.0,0.0,0.0,-3.8711,-3.5781,-3.2734,-3.1328,-3.25,0.0,0.0,0.0,0.0,0.0,0.0,0.0,0.0,0.0,0.0,0.0,0.0,0.0,0.0,0.0,0.0,0.0,0.0,0.0,0.0,0.0,0.0,0.0,0.0,0.0,0.0,0.0,0.0,0.0,0.0,0.0,-6.0964,-6.0902,-6.0856,-6.0793,-6.0781,-6.0781,-6.0781,-6.0781,-6.0781,-6.0781,-6.0781,-6.0781,-6.0781,-6.0781,-6.0781,-6.0781,-6.0781,-6.0781,-6.0781,-6.0781,-6.0781,-6.0781,-6.0781,-6.0781,-6.0781,-6.0781,-6.0781,-6.0781,0.0,0.0,0.0,0.0,0.0,0.0,0.0,0.0,-4.2734,-4.3633,0.0,0.0,0.0,0.0,0.0,-4.3828,-4.2969,-4.2461,-4.2383,-4.168,0.0,0.0,0.0,0.0,-4.4922,-4.4961,-4.4101,-4.2383,-4.3203,-4.4492,-4.6211,-4.793,-5.0078,-5.2422,-4.9961,-5.0742,-5.3867,0.0,-5.3594,-5.1641,0.0,-5.4258,-5.3633,0.0,-6.1875,0.0,-5.8594,-5.6875,0.0,-5.0625,0.0,0.0,0.0,-3.6406,-3.2148,-3.1289,-3.2187,0.0,0.0,0.0,0.0,0.0,0.0,0.0,0.0,0.0,0.0,0.0,0.0,0.0,0.0,0.0,0.0,0.0,0.0,0.0,0.0,0.0,0.0,0.0,0.0,0.0,0.0,0.0,0.0,0.0,-6.1295,-6.1289,-6.1283,-6.112,-6.0944,-6.0816,-6.0816,-6.0816,-6.0816,-6.0816,-6.0816,-6.0816,-6.0816,-6.0816,-6.0816,-6.0816,-6.0816,-6.0816,-6.0816,-6.0816,-6.0816,-6.0793,-6.0781,-6.0781,-6.0781,-6.0781,-6.0781,-6.0781,-6.0793,-6.0793,0.0,0.0,0.0,0.0,0.0,-4.4648,-4.4648,-4.3906,-4.3633,0.0,0.0,0.0,-4.6211,-4.6094,-4.5586,-4.4726,-4.4414,-4.375,-4.2461,-4.2187,-4.2266,-4.2734,-4.3359,-4.3828,-4.4062,-4.4062,-4.3516,-4.2383,-4.207,-4.2422,-4.3516,-4.4609,-4.6172,-4.8086,-4.8633,-4.9062,-4.9258,-4.7617,0.0,-5.2305,-5.1797,-5.3945,0.0,0.0,0.0,0.0,0.0,-5.957,-5.793,0.0,-5.2539,-4.6875,0.0,0.0,-3.4766,-3.3906,-3.4883,-3.5742,-3.3633,0.0,0.0,0.0,0.0,0.0,0.0,0.0,0.0,0.0,0.0,0.0,0.0,0.0,0.0,0.0,0.0,0.0,0.0,0.0,0.0,0.0,0.0,0.0,0.0,0.0,0.0,0.0,-6.1428,-6.1392,-6.1295,-6.1246,-6.1193,-6.1143,-6.1182,-6.1182,-6.1182,-6.1182,-6.1182,-6.1182,-6.1182,-6.1182,-6.1182,-6.1182,-6.1182,-6.1182,-6.1182,-6.1182,-6.1159,-6.0882,-6.0781,-6.0781,-6.0781,-6.0781,-6.0781,-6.0781,-6.085,-6.0935,0.0,0.0,0.0,-4.6797,-4.6133,-4.5664,-4.6016,-4.5351,-4.4961,0.0,0.0,0.0,-4.6758,-4.7773,-4.7812,-4.6211,-4.5742,-4.4805,-4.3047,-4.2617,-4.2383,-4.2383,-4.3242,-4.3867,-4.4219,-4.4609,-4.418,-4.293,-4.2461,-4.2148,-4.1914,-4.2773,-4.3711,-4.4687,-4.5391,-4.5781,-4.5781,-4.3203,0.0,0.0,-5.3203,0.0,0.0,-6.0351,-6.2226,0.0,0.0,0.0,-6.1211,-6.0508,-5.5664,0.0,0.0,0.0,0.0,-3.5937,-3.7226,-3.8789,-3.582,-3.7305,0.0,0.0,0.0,0.0,0.0,0.0,0.0,0.0,0.0,0.0,0.0,0.0,0.0,0.0,0.0,0.0,0.0,0.0,0.0,0.0,0.0,0.0,0.0,-6.1719,-6.1678,-6.1584,-6.1582,-6.1517,-6.1383,-6.1373,-6.1349,-6.1289,-6.1283,-6.1283,-6.1283,-6.1283,-6.1283,-6.1283,-6.1283,-6.1283,-6.1283,-6.1283,-6.1283,-6.1283,-6.1283,-6.1283,-6.1271,-6.1087,-6.1011,-6.1011,-6.1011,-6.1011,-6.1011,-6.1011,-6.1062,-6.1135,0.0,0.0,-4.6562,-4.7461,-4.7031,-4.6914,-4.7891,-4.7305,-4.6836,0.0,-4.7148,-4.75,-4.8359,-5.0312,-5.0625,-4.8359,-4.7187,-4.582,-4.3945,-4.3047,-4.25,-4.2383,-4.3242,-4.4101,-4.4961,-4.5742,-4.5351,-4.3711,-4.3594,-4.2734,-4.1211,-4.1914,-4.2226,-4.2109,-4.1367,-4.1875,-4.3164,-4.1289,0.0,-4.9453,-5.5703,-5.7773,0.0,0.0,-6.4453,-6.3633,-6.5078,-6.5117,-6.414,-6.2226,-5.7422,0.0,0.0,0.0,0.0,0.0,-3.9766,0.0,-3.8906,-3.9766,-4.1875,0.0,0.0,0.0,-4.6328,-4.6094,0.0,0.0,0.0,0.0,0.0,0.0,0.0,0.0,0.0,0.0,0.0,0.0,0.0,0.0,0.0,0.0,0.0,-6.1719,-6.1719,-6.1719,-6.1719,-6.1637,-6.152,-6.1515,-6.1481,-6.1339,-6.1334,-6.1334,-6.1334,-6.1334,-6.1334,-6.1334,-6.1334,-6.1334,-6.1334,-6.1334,-6.1334,-6.1334,-6.1334,-6.1334,-6.1334,-6.1334,-6.1318,-6.1283,-6.1283,-6.1283,-6.1283,-6.1283,-6.1295,-6.1312,0.0,-4.6289,-4.6562,-4.7461,-4.8047,-4.8906,-5.043,-4.9961,-5.0195,-5.2226,-5.25,-5.2812,-5.3711,-5.3008,-5.2266,-5.1758,-4.9687,-4.7344,-4.4922,-4.3945,-4.3125,-4.2422,-4.3242,-4.4101,-4.4961,-4.5156,-4.4726,-4.3711,-4.3008,-4.2148,-4.1211,-4.1367,-4.1055,-4.0391,-4.0234,-4.0351,-4.0781,0.0,0.0,-4.9062,-5.1133,0.0,-6.082,-6.1992,-6.3984,-6.6094,-6.5742,-6.5508,-6.4883,-6.1719,-5.9336,-5.6797,0.0,0.0,0.0,0.0,0.0,-4.5078,-4.3008,-4.3359,-4.3672,-4.125,0.0,0.0,0.0,-4.1289,0.0,0.0,0.0,0.0,0.0,0.0,0.0,0.0,0.0,0.0,0.0,0.0,0.0,0.0,0.0,0.0,0.0,-6.1719,-6.1719,-6.1719,-6.1719,-6.1679,-6.1677,-6.1677,-6.1637,-6.1631,-6.1631,-6.1631,-6.1631,-6.1631,-6.1631,-6.1631,-6.1631,-6.1631,-6.1631,-6.1631,-6.1631,-6.1631,-6.1631,-6.1631,-6.1631,-6.1631,-6.1501,-6.1283,-6.1283,-6.1283,-6.1283,-6.1283,-6.1359,-6.1478,-4.6211,-4.6289,-4.6719,-4.8008,-4.8984,-5.0273,-5.2383,-5.2344,-5.2851,-5.5039,-5.6055,-5.625,-5.539,-5.5312,-5.4609,-5.2851,-5.0781,-4.8437,-4.582,-4.4414,-4.332,-4.2422,-4.3242,-4.3906,-4.4336,-4.5195,-4.5,-4.3711,-4.3242,-4.2422,-4.1211,-4.1211,-4.1641,-4.2383,-4.1133,-4.1484,-4.3125,0.0,-4.5469,-4.8633,-5.2969,0.0,-6.1875,-6.3633,-6.539,-6.6836,-6.6406,-6.5976,-6.5117,-6.207,-6.0508,0.0,0.0,-5.3008,-5.2461,0.0,-4.75,-4.8281,-4.5703,-4.5312,-4.5469,-4.4609,0.0,0.0,0.0,0.0,0.0,0.0,0.0,0.0,0.0,0.0,0.0,0.0,0.0,0.0,0.0,0.0,0.0,0.0,0.0,0.0,-6.0351,-6.0469,-6.0625,-6.1015,-6.1445,-6.1719,-6.1719,-6.1719,-6.1719,-6.1719,-6.1719,-6.1719,-6.1719,-6.1719,-6.1719,-6.1719,-6.1719,-6.1719,-6.1719,-6.1719,-6.1719,-6.1719,-6.1719,-6.1719,-6.1719,-6.1719,-6.1631,-6.1504,-6.1504,-6.1504,-6.1504,-6.1504,-6.1525,-6.1587,-4.6289,-4.6289,-4.6797,-4.8359,-4.9648,-5.125,-5.3633,-5.4141,-5.4922,-5.6836,-5.875,-5.918,-5.7265,-5.7851,-5.7461,-5.5156,-5.2461,-5.0039,-4.793,-4.5703,-4.4062,-4.3203,-4.3672,-4.4023,-4.4219,-4.543,-4.5195,-4.3437,-4.3437,-4.2578,-4.0937,-4.1133,-4.2226,-4.3945,-4.2187,-4.3164,0.0,0.0,0.0,-4.9883,0.0,-5.957,-6.0898,-6.4687,-6.6133,-6.6211,-6.6719,-6.6445,-6.5469,-6.3047,-6.1719,-6.043,-5.6289,-5.6055,0.0,0.0,0.0,0.0,0.0,0.0,0.0,0.0,0.0,-4.5859,0.0,0.0,0.0,-4.6172,0.0,0.0,0.0,0.0,0.0,0.0,0.0,0.0,0.0,0.0,0.0,0.0,0.0,0.0,0.0,-5.8281,-5.875,-6.0078,-6.0508,-6.0937,-6.1406,-6.1601,-6.1719,-6.1719,-6.1719,-6.1719,-6.1719,-6.1719,-6.1719,-6.1719,-6.1719,-6.1719,-6.1719,-6.1719,-6.1719,-6.1719,-6.1719,-6.1719,-6.1719,-6.1719,-6.1719,-6.1719,-6.1719,-6.1719,-6.1719,-6.1719,-6.1719,-6.1719,-4.6289,-4.6289,-4.6601,-4.7578,-4.9687,-5.1875,-5.3711,-5.4648,-5.6055,-5.8594,-6.1055,-6.2734,-6.3242,-6.1406,-6.0898,-6.2812,-5.7226,-5.3437,-5.3125,-4.9375,-4.6758,-4.5898,-4.5195,-4.5195,-4.5976,-4.543,-4.4297,-4.2539,-4.2539,-4.168,-4.0078,-4.0859,-4.0937,-4.0547,-4.1719,0.0,0.0,0.0,-4.9609,0.0,-5.7383,-5.7226,0.0,-6.1562,-6.3437,-6.375,-6.6055,-6.6836,-6.6484,0.0,-6.3945,-6.3242,0.0,-5.9219,-5.9258,0.0,0.0,0.0,0.0,0.0,0.0,0.0,-5.0898,0.0,0.0,0.0,-4.625,-4.3555,0.0,0.0,0.0,0.0,0.0,0.0,0.0,0.0,0.0,0.0,0.0,0.0,0.0,0.0,0.0,-5.5039,-5.5898,-5.9101,-5.8008,-5.8164,-6.043,-6.1289,-6.1719,-6.1719,-6.1719,-6.1719,-6.1719,-6.1719,-6.1719,-6.1719,-6.1719,-6.1719,-6.1719,-6.1719,-6.1719,-6.1719,-6.1719,-6.1719,-6.1719,-6.1719,-6.1719,-6.1719,-6.1719,-6.1719,-6.1719,-6.1719,-6.1719,-6.1719,-4.6289,-4.6289,-4.6562,-4.7461,-4.8906,-5.0859,-5.3594,-5.7695,-6.0742,-6.1328,-6.3672,-6.539,-6.5781,0.0,0.0,0.0,0.0,-5.7617,0.0,0.0,-4.9414,-4.8594,-4.6758,-4.5937,-4.6289,-4.5469,-4.4141,-4.2383,-4.2383,-4.1797,-4.0664,-4.1016,-4.2344,-4.4414,-4.5117,0.0,-5.0195,0.0,-5.1406,0.0,0.0,0.0,0.0,-6.2539,-6.5273,-6.539,-6.6523,-6.6914,-6.6562,0.0,-6.3867,0.0,0.0,0.0,0.0,0.0,0.0,0.0,0.0,0.0,0.0,0.0,0.0,0.0,-4.7031,0.0,-4.5976,0.0,0.0,0.0,0.0,0.0,0.0,0.0,0.0,0.0,0.0,0.0,0.0,0.0,0.0,0.0,0.0,0.0,0.0,0.0,-5.5976,-5.6758,-5.8828,-6.0234,-6.0937,-6.0937,-6.1445,-6.1719,-6.1719,-6.1719,-6.1719,-6.1719,-6.1719,-6.1719,-6.1719,-6.1719,-6.1719,-6.1719,-6.1719,-6.1719,-6.1719,-6.1719,-6.1719,-6.1719,-6.1719,-6.1719,-6.1719,-6.1719,-6.1719,-6.1719,-4.6289,0.0,0.0,-4.7148,-4.8359,-5.0508,-5.4141,-5.9375,-6.293,-6.3008,-6.4844,-6.664,-6.7812,-6.7148,0.0,0.0,-6.5586,-6.2578,0.0,0.0,-5.3047,-5.1992,-4.9219,-4.7578,-4.7383,-4.6289,-4.4609,-4.2383,-4.2383,-4.1992,-4.1211,-4.1445,-4.332,-4.6562,-4.7773,-5.043,-5.3984,0.0,0.0,-5.5078,-5.6484,-5.7265,-5.8125,-6.3711,-6.6289,-6.6914,-6.6914,-6.6914,-6.6562,-6.4414,-6.414,0.0,-6.2148,0.0,0.0,0.0,0.0,0.0,-5.4609,0.0,0.0,0.0,0.0,0.0,0.0,0.0,0.0,0.0,0.0,0.0,0.0,0.0,0.0,0.0,0.0,0.0,0.0,0.0,0.0,0.0,0.0,0.0,0.0,0.0,0.0,0.0,0.0,-5.4375,-5.7031,-5.8789,-5.9922,-6.039,-6.125,-6.1719,-6.1719,-6.1719,-6.1719,-6.1719,-6.1719,-6.1719,-6.1719,-6.1719,-6.1719,-6.1719,-6.1719,-6.1719,-6.1719,-6.1719,-6.1719,-6.1719,-6.1719,-6.1719,-6.1719,-6.1719,-6.1719,-6.1719,-4.6289,-4.6289,0.0,0.0,-4.8476,-5.1601,-5.5859,-5.8125,-6.0234,-6.2695,0.0,0.0,0.0,0.0,0.0,0.0,0.0,-6.8437,-6.668,0.0,-5.8203,-5.6484,-5.3086,-5.0859,0.0,-4.8398,-4.5859,-4.2383,-4.2383,-4.1992,-4.1211,-4.1992,-4.2891,-4.4023,-4.8242,-5.1562,-5.4101,-5.5781,-5.9336,-6.375,-6.2148,-6.3515,-6.625,0.0,-6.4687,-6.6914,-6.6914,0.0,0.0,-6.582,-6.5547,0.0,0.0,0.0,0.0,0.0,0.0,0.0,0.0,0.0,0.0,-5.2695,0.0,0.0,0.0,0.0,-4.9336,0.0,0.0,0.0,0.0,0.0,-4.3672,-4.3672,-4.2969,0.0,0.0,0.0,0.0,0.0,0.0,0.0,0.0,0.0,0.0,0.0,0.0,0.0,-5.5117,-5.7031,-5.8711,-6.0351,-6.125,-6.1719,-6.1719,-6.1719,-6.1719,-6.1719,-6.1719,-6.1719,-6.1719,-6.1719,-6.1719,-6.1719,-6.1719,-6.1719,-6.1719,-6.1719,-6.1719,-6.1719,-6.1719,-6.1719,-6.1719,-6.1719,-6.1719,-6.1719,0.0,0.0,0.0,0.0,0.0,-5.0117,-5.5,-5.914,-6.2851,0.0,0.0,0.0,0.0,-7.4726,-7.539,0.0,0.0,-7.3359,-7.0469,-6.5976,0.0,0.0,0.0,-5.4101,0.0,-5.1094,-4.7891,-4.4961,-4.4414,-4.3672,-4.2851,-4.3125,-4.4023,-4.5586,0.0,-5.2734,0.0,0.0,0.0,0.0,0.0,-6.4648,-6.7617,0.0,-6.6133,-6.6914,-6.6914,-6.6914,0.0,-6.6562,-6.6094,-6.5547,-6.5234,-6.418,-6.2812,-6.1953,-6.1094,-6.0156,0.0,0.0,-5.9023,-5.5,0.0,0.0,0.0,0.0,0.0,0.0,0.0,0.0,0.0,0.0,-4.457,-4.457,-4.3359,-4.1914,0.0,0.0,0.0,0.0,0.0,0.0,0.0,0.0,0.0,0.0,-4.7969,0.0,0.0,-5.5469,-5.7578,-5.8711,-6.0117,-6.1133,-6.168,-6.1719,-6.1719,-6.1719,-6.1719,-6.1719,-6.1719,-6.1719,-6.1719,-6.1719,-6.1719,-6.1719,-6.1719,-6.1719,-6.1719,-6.1719,-6.1719,-6.1719,-6.1719,-6.1719,-6.1719,-6.1719,-4.8047,0.0,0.0,0.0,0.0,-5.0937,-5.5547,-6.0625,0.0,0.0,-7.0195,0.0,-7.7226,0.0,-7.8125,0.0,-7.8867,-7.668,-7.2305,-6.9687,0.0,-6.6133,-6.1484,0.0,0.0,-5.5273,-5.1523,-4.7695,-4.6797,-4.5625,-4.4141,-4.4141,-4.4922,-4.6445,0.0,-5.3437,0.0,0.0,-6.2187,0.0,0.0,-6.6484,0.0,0.0,-6.7187,-6.6914,0.0,-6.6914,-6.6914,-6.6914,-6.6523,-6.6055,-6.6055,-6.5078,-6.3828,-6.3242,-6.2265,-6.1133,-6.0312,-6.0234,0.0,-5.6523,-5.5351,0.0,-5.0195,0.0,0.0,0.0,0.0,0.0,0.0,0.0,-4.5547,-4.5859,-4.4219,-4.207,0.0,0.0,0.0,0.0,0.0,0.0,0.0,0.0,-4.3828,-4.5351,0.0,0.0,0.0,0.0,-5.6055,-5.7851,-5.9531,-6.082,-6.168,-6.1719,-6.1719,-6.1719,-6.1719,-6.1719,-6.1719,-6.1719,-6.1719,-6.1719,-6.1719,-6.1719,-6.1719,-6.1719,-6.1719,-6.1719,-6.1719,-6.1719,-6.1719,-6.1719,-6.1719,-6.1719,0.0,0.0,0.0,0.0,-5.0703,0.0,0.0,0.0,-6.6289,0.0,-7.1367,-7.4805,-7.832,-7.8672,-7.9336,-8.0937,-8.1054,-7.8594,-7.2812,-7.3086,0.0,0.0,-6.6406,-6.5078,-6.3359,-6.0703,-5.6445,-5.0586,-4.9492,-4.7656,-4.5195,-4.5117,-4.5508,-4.6484,-5.0703,0.0,-5.5625,-6.0703,-6.4492,-6.7187,-6.8867,-6.9062,-6.832,-6.8242,-6.7695,-6.6953,-6.6914,-6.6914,-6.6914,-6.6914,-6.6914,-6.6914,-6.6914,-6.6328,-6.5664,-6.5625,-6.4414,-6.293,-6.207,-6.1172,-5.9922,-5.7461,-5.6758,0.0,0.0,0.0,-5.3476,0.0,0.0,0.0,0.0,0.0,0.0,-4.7422,-4.5391,-4.2539,0.0,0.0,0.0,0.0,0.0,0.0,0.0,0.0,-4.1719,-4.5703,-4.3125,0.0,0.0,0.0,-5.418,-5.7656,-5.9453,-6.0781,-6.168,-6.1719,-6.1719,-6.1719,-6.1719,-6.1719,-6.1719,-6.1719,-6.1719,-6.1719,-6.1719,-6.1719,-6.1719,-6.1719,-6.1719,-6.1719,-6.1719,-6.1719,-6.1719,-6.1719,-6.1719,-6.1719,-4.9961,-5.1211,-5.2773,0.0,-5.4492,-5.5586,0.0,0.0,0.0,0.0,-7.4062,-7.75,-8.0937,-8.1328,-8.1484,-8.1914,-8.1953,0.0,0.0,0.0,0.0,-7.4609,-7.125,-6.8906,-6.7851,-6.3398,0.0,-5.5937,-5.1875,-4.918,-4.7851,-4.6562,-4.6094,-4.6445,0.0,0.0,-5.5547,-5.9414,-6.4023,-6.8867,-6.9961,-7.0273,0.0,0.0,-6.8047,-6.7773,-6.7148,-6.6914,-6.6914,-6.6914,-6.6914,-6.6914,-6.6914,-6.6758,-6.6445,-6.5781,-6.5273,-6.4726,-6.3867,-6.3008,-6.2031,-6.0703,-5.8984,-5.7109,0.0,0.0,0.0,0.0,0.0,0.0,0.0,0.0,0.0,-4.6914,-4.4961,-4.2969,0.0,0.0,0.0,0.0,0.0,0.0,0.0,0.0,-4.2383,-4.1601,-4.3086,0.0,0.0,0.0,0.0,-5.5859,-5.8281,-6.0195,-6.168,-6.1719,-6.1719,-6.1719,-6.1719,-6.1719,-6.1719,-6.1719,-6.1719,-6.1719,-6.1719,-6.1719,-6.1719,-6.1719,-6.1719,-6.1719,-6.1719,-6.1719,-6.1719,-6.1719,-6.1719,-6.1719,-5.1875,0.0,0.0,-5.8164,0.0,0.0,-6.1875,-6.4375,0.0,-7.1484,-7.5039,0.0,-7.9844,-8.1406,-8.2304,-8.2304,-8.2304,0.0,-7.9453,0.0,0.0,-7.6719,-7.4648,-7.2969,-7.1758,-6.6992,0.0,-5.8476,0.0,-5.0664,-4.8281,-4.6953,-4.6289,0.0,0.0,-5.168,0.0,-5.9844,-6.4726,-6.8984,-7.0195,0.0,0.0,-6.9648,-6.9062,-6.8633,-6.7773,-6.7226,-6.6914,-6.6914,-6.6914,-6.6914,-6.6914,-6.6914,-6.6797,-6.6328,-6.5898,-6.5508,-6.5,-6.3945,-6.289,-6.2383,-6.0898,-5.914,-5.7539,-5.7539,-5.7461,0.0,-5.5976,-5.6015,0.0,0.0,0.0,0.0,0.0,0.0,0.0,0.0,0.0,0.0,0.0,0.0,0.0,0.0,0.0,0.0,0.0,0.0,0.0,0.0,0.0,-5.4648,-5.7265,-5.9453,-6.1133,-6.1523,-6.1719,-6.1719,-6.1719,-6.1719,-6.1719,-6.1719,-6.1719,-6.1719,-6.1719,-6.1719,-6.1719,-6.1719,-6.1719,-6.1719,-6.1719,-6.1719,-6.1719,-6.1719,-6.1719,-6.1719,0.0,0.0,0.0,0.0,0.0,0.0,0.0,-6.7461,0.0,-7.2265,0.0,-7.7851,-7.7851,-8.0508,-8.2304,-8.2304,0.0,-8.1054,-7.8047,-7.9922,-7.9805,-7.6719,-7.7187,-7.6719,-7.4961,-7.0625,0.0,0.0,0.0,-5.1875,-4.7734,-4.6758,0.0,0.0,0.0,0.0,0.0,-6.125,-6.5859,-6.8476,-7.0078,-7.0781,-7.0859,-7.0742,-7.0273,-6.9531,-6.8672,-6.7812,-6.7031,-6.6953,-6.6914,-6.6914,-6.6914,-6.6914,-6.6914,-6.6914,-6.6367,-6.5781,-6.5781,-6.457,-6.332,-6.3203,-6.2539,-6.125,-5.8945,-5.8398,-5.8398,-5.8398,-5.6601,-5.6289,-6.043,0.0,0.0,0.0,0.0,0.0,0.0,0.0,0.0,0.0,0.0,0.0,0.0,0.0,0.0,0.0,0.0,0.0,0.0,0.0,0.0,-5.375,-5.6484,-5.8711,-6.039,-6.125,-6.1719,-6.1719,-6.1719,-6.1719,-6.1719,-6.1719,-6.1719,-6.1719,-6.1719,-6.1719,-6.1719,-6.1719,-6.1719,-6.1719,-6.1719,-6.1719,-6.1719,-6.1719,-6.1719,-6.1719,0.0,0.0,0.0,0.0,0.0,-6.9062,-7.1562,-7.3281,-7.4805,-7.6133,-7.9297,-8.1406,-8.1406,-8.1953,-8.2304,-8.2304,-8.2304,0.0,0.0,0.0,0.0,-8.0156,-7.957,-7.8476,-7.6797,-7.1836,-6.6992,0.0,-5.6758,-5.2187,-4.8633,-4.7031,0.0,0.0,0.0,0.0,-5.8359,-6.2539,0.0,-6.9297,-7.0273,-7.1133,-7.168,-7.0976,-7.0625,-7.039,-6.9492,-6.8672,-6.7851,-6.7148,-6.6914,-6.6914,-6.6914,-6.6914,-6.6914,-6.6914,-6.6797,-6.668,-6.668,-6.5937,-6.4961,-6.4258,-6.3437,-6.2461,-6.1289,-6.1015,-6.1015,-6.1015,-6.0664,-6.0,-5.8789,0.0,0.0,0.0,0.0,0.0,0.0,0.0,0.0,0.0,0.0,0.0,0.0,0.0,0.0,0.0,0.0,0.0,0.0,0.0,0.0,0.0,-5.6172,0.0,0.0,0.0,-6.1719,-6.1719,-6.1719,-6.1719,-6.1719,-6.1719,-6.1719,-6.1719,-6.1719,-6.1719,-6.1719,-6.1719,-6.1719,-6.1719,-6.1719,-6.1719,-6.1719,-6.1719,-6.1719,-6.1719,0.0,0.0,0.0,0.0,0.0,0.0,0.0,-7.7539,-7.8711,-7.7383,-7.8633,-7.9648,-7.9648,-8.125,-8.2304,-8.2304,-8.2304,-8.2304,-8.2304,-8.2304,-8.2109,-8.1679,-8.0859,0.0,-7.789,-7.3672,-6.8906,-6.3672,-5.8086,-5.3359,-4.9531,-4.7344,0.0,0.0,0.0,-5.3711,0.0,0.0,0.0,-6.8906,-7.0195,-7.1211,-7.1953,-7.1523,-7.1367,-7.125,-7.039,-6.9844,-6.9297,-6.8008,-6.7265,-6.6914,-6.6914,-6.6914,-6.6914,-6.6914,-6.6914,-6.6914,-6.6914,-6.625,-6.539,-6.4531,-6.3633,-6.2773,-6.1914,-6.1719,-6.1719,-6.1719,-6.1719,-6.0937,-5.8359,-5.543,0.0,0.0,0.0,0.0,0.0,0.0,0.0,0.0,0.0,0.0,0.0,0.0,0.0,0.0,0.0,0.0,0.0,0.0,0.0,0.0,0.0,0.0,0.0,0.0,-6.1719,-6.1719,-6.1719,-6.1719,-6.1719,-6.1719,-6.1719,-6.1719,-6.1719,-6.1719,-6.1719,-6.1719,-6.1719,-6.1719,-6.1719,-6.1719,-6.1719,-6.1719,-6.1719,-6.1719,0.0,-6.8437,0.0,0.0,-7.414,0.0,-7.7383,-8.0234,-8.1328,-7.8633,-7.8281,-7.8281,-7.8281,-8.0703,-8.2304,-8.2304,-8.2304,-8.2304,-8.2304,-8.2304,-8.2304,-8.2304,-8.1484,-8.039,-7.9062,-7.5625,-7.0976,0.0,-6.0117,-5.5312,-5.0664,-4.8242,-4.7305,0.0,0.0,0.0,0.0,0.0,-6.6172,-6.8867,-7.0156,-7.1211,-7.1992,-7.1992,-7.1992,-7.1914,-7.1211,-7.0859,-7.0508,-6.918,-6.8047,-6.7148,-6.6953,-6.6914,-6.6914,-6.6914,-6.6914,-6.6914,-6.6914,-6.6406,-6.5625,-6.457,-6.3789,-6.3008,-6.1953,-6.1719,-6.1719,-6.1719,-6.1719,-6.0937,-5.8359,-5.6523,0.0,0.0,0.0,0.0,0.0,0.0,0.0,0.0,0.0,0.0,0.0,0.0,0.0,0.0,0.0,0.0,-4.0117,-4.2891,-4.6406,0.0,0.0,-5.6367,-5.8633,0.0,-6.1719,-6.1719,-6.1719,-6.1719,-6.1719,-6.1719,-6.1719,-6.1719,-6.1719,-6.1719,-6.1719,-6.1719,-6.1719,-6.1719,-6.1719,-6.1719,-6.1719,-6.1719,-6.1719,-6.1719,0.0,0.0,0.0,0.0,0.0,0.0,-7.8359,-8.0625,-8.2187,-8.1875,-8.1836,-8.1836,-8.1836,-8.2109,-8.2304,-8.2304,-8.2304,-8.2304,-8.2304,-8.2304,-8.2304,-8.2304,-8.1445,-8.0937,-8.0781,-7.7422,-7.3086,0.0,0.0,-5.8203,-5.2422,-5.0664,-5.0664,0.0,0.0,0.0,0.0,-6.4648,-6.7422,-7.0469,-7.0625,-7.1211,-7.1992,-7.1992,-7.1992,-7.1992,-7.1914,-7.1367,-7.0664,-7.0508,-6.9414,-6.793,-6.7148,-6.6914,-6.6914,-6.6914,-6.6914,-6.6914,-6.6914,-6.6836,-6.6367,-6.4726,-6.4258,-6.375,-6.207,-6.1719,-6.1719,-6.1719,-6.1719,-6.0937,-5.8359,-5.8945,-5.8242,0.0,0.0,0.0,0.0,0.0,0.0,0.0,0.0,0.0,0.0,0.0,0.0,0.0,0.0,0.0,-4.0898,-4.207,-4.4648,-4.8984,0.0,-5.5781,-5.6836,-6.0078,-6.1719,-6.1719,-6.1719,-6.1719,-6.1719,-6.1719,-6.1719,-6.1719,-6.1719,-6.1719,-6.1719,-6.1719,-6.1719,-6.1719,-6.1719,-6.1719,-6.1719,-6.1719,-6.1719,-6.1719,0.0,0.0,0.0,0.0,0.0,0.0,0.0,-8.164,-8.2304,-8.2304,-8.2304,-8.2304,-8.2304,-8.2304,-8.2304,-8.2304,-8.2304,-8.2304,-8.2304,-8.2304,-8.2304,-8.2304,-8.1953,-8.1523,-8.1015,-7.8672,-7.5156,0.0,0.0,0.0,0.0,-5.3789,-5.3398,0.0,0.0,-6.1172,-6.3945,-6.6758,-6.9023,-7.0742,-7.1289,-7.168,-7.1992,-7.1992,-7.1992,-7.1992,-7.1992,-7.1797,-7.1406,-7.0898,-6.9609,-6.8125,-6.7773,-6.7305,-6.6914,-6.6914,-6.6914,-6.6914,-6.6914,-6.6914,-6.6601,-6.539,-6.4687,-6.3984,-6.2773,-6.207,-6.1719,-6.1719,-6.1719,-6.1406,-6.0351,-5.9492,-5.8398,-5.6836,0.0,0.0,0.0,0.0,0.0,0.0,0.0,0.0,0.0,0.0,0.0,0.0,0.0,0.0,0.0,-4.1211,0.0,-4.7969,0.0,-5.5195,-5.6601,-6.0,-6.1719,-6.1719,-6.1719,-6.1719,-6.1719,-6.1719,-6.1719,-6.1719,-6.1719,-6.1719,-6.1719,-6.1719,-6.1719,-6.1719,-6.1719,-6.1719,-6.1719,-6.1719,-6.1719,-6.1719,-7.7851,0.0,-7.7031,0.0,-7.9492,-7.9492,-8.1914,-8.2304,-8.2304,-8.2304,-8.2304,-8.2304,-8.2304,-8.2304,-8.2304,-8.2304,-8.2304,-8.2304,-8.2304,-8.2304,-8.2304,-8.2304,-8.2304,0.0,-8.1406,-7.9961,-7.7344,-7.3515,-6.9101,0.0,0.0,0.0,-5.7422,0.0,-6.1914,-6.418,-6.5976,-6.8711,-7.0312,-7.1133,-7.1758,-7.1992,-7.1992,-7.1992,-7.1992,-7.1992,-7.1992,-7.1992,-7.1914,-7.1289,-7.0117,-6.8906,-6.8633,-6.7969,-6.7265,-6.7265,-6.7109,-6.6914,-6.6914,-6.6914,-6.668,-6.582,-6.4922,-6.4062,-6.3203,-6.2344,-6.1719,-6.1719,-6.1719,-6.1719,-6.1719,-6.0234,-5.8906,-5.8515,0.0,0.0,0.0,0.0,0.0,0.0,0.0,-4.5156,0.0,0.0,0.0,0.0,0.0,0.0,0.0,0.0,0.0,0.0,0.0,0.0,-5.6601,-6.0,-6.1719,-6.1719,-6.1719,-6.1719,-6.1719,-6.1719,-6.1719,-6.1719,-6.1719,-6.1719,-6.1719,-6.1719,-6.1719,-6.1719,-6.1719,-6.1719,-6.1719,-6.1719,-6.1719,-6.1719,-7.9336,-7.9648,-8.0195,-8.1953,-8.2265,-8.2265,-8.2304,-8.2304,-8.2304,-8.2304,-8.2304,-8.2304,-8.2304,-8.2304,-8.2304,-8.2304,-8.2304,-8.2304,-8.2304,-8.2304,-8.2304,0.0,0.0,-8.2304,-8.2265,-8.1406,-7.9726,-7.7148,0.0,0.0,-6.6758,0.0,-6.3359,-6.4297,-6.6055,-6.7773,-6.9414,-7.0312,-7.1172,-7.1992,-7.1992,-7.1992,-7.1992,-7.1992,-7.1992,-7.1992,-7.1992,-7.1992,-7.1992,-7.1992,-7.1406,-7.0508,-6.9648,-6.8828,-6.8164,-6.8164,-6.7578,-6.6914,-6.6914,-6.6914,-6.668,-6.582,-6.4922,-6.4062,-6.3203,-6.2344,-6.1719,-6.1719,-6.1719,-6.1719,-6.1719,-6.168,-6.0547,-5.7187,0.0,0.0,0.0,0.0,0.0,0.0,-4.5859,-4.4062,-4.4883,0.0,0.0,0.0,0.0,0.0,0.0,0.0,0.0,-4.875,-5.3047,0.0,-5.6601,-6.0,-6.1719,-6.1719,-6.1719,-6.1719,-6.1719,-6.1719,-6.1719,-6.1719,-6.1719,-6.1719,-6.1719,-6.1719,-6.1719,-6.1719,-6.1719,-6.1719,-6.1719,-6.1719,-6.1719,-6.1719,-8.1367,-8.1484,-8.164,-8.2187,-8.2304,-8.2304,-8.2304,-8.2304,-8.2304,-8.2304,-8.2304,-8.2304,-8.2304,-8.2304,-8.2304,0.0,-8.2304,-8.2304,0.0,-8.2304,-8.2304,-8.2304,-8.2304,-8.2304,-8.2304,-8.1445,-8.0312,-7.8906,0.0,0.0,0.0,-6.8359,-6.8398,-6.875,-7.0508,-7.1562,-7.2109,-7.3008,-7.3515,-7.3789,-7.3789,-7.3437,-7.289,-7.289,-7.2539,-7.1992,-7.1992,-7.1992,-7.1992,-7.1992,-7.1836,-7.1523,-7.125,-7.0195,-6.8906,-6.8359,-6.8008,-6.7656,-6.707,-6.6914,-6.6836,-6.6562,-6.582,-6.4961,-6.4062,-6.2734,-6.1719,-6.1719,-6.1719,-6.1719,-6.1719,-6.1719,-6.0976,-5.875,-5.8828,0.0,0.0,0.0,0.0,0.0,0.0,-4.6211,0.0,-4.4375,0.0,0.0,0.0,0.0,0.0,0.0,0.0,0.0,-5.3633,0.0,-5.7461,-6.0273,-6.1719,-6.1719,-6.1719,-6.1719,-6.1719,-6.1719,-6.1719,-6.1719,-6.1719,-6.1719,-6.1719,-6.1719,-6.1719,-6.1719,-6.1719,-6.1719,-6.1719,-6.1719,-6.1719,-6.1719,-8.2304,-8.2304,-8.2304,-8.2304,-8.2304,-8.2304,-8.2304,-8.2304,-8.2304,-8.2304,-8.2304,-8.2304,-8.2304,-8.2304,0.0,-8.2304,-8.2304,-8.2304,-8.2304,-8.2304,-8.2304,-8.2304,-8.2304,-8.2304,-8.2304,-8.1758,0.0,-8.0195,-7.7109,-7.4453,-7.2344,-7.2226,-7.2148,-7.2226,-7.3281,-7.3789,-7.3828,-7.4375,-7.4609,-7.4609,-7.4609,-7.4258,-7.3789,-7.3789,-7.3242,-7.25,-7.25,-7.2265,-7.1992,-7.1992,-7.1992,-7.1992,-7.1992,-7.125,-7.0195,-6.9375,-6.8672,-6.8086,-6.7539,-6.7148,-6.6914,-6.6914,-6.625,-6.5273,-6.4101,-6.2734,-6.1719,-6.1719,-6.1719,-6.1719,-6.1719,-6.1719,-6.1133,-5.9453,-5.9219,-5.7969,-5.4492,0.0,0.0,0.0,0.0,0.0,0.0,-4.7148,-4.7148,0.0,0.0,0.0,0.0,0.0,0.0,-5.0742,-5.5195,-5.7969,-5.8828,-6.0742,-6.1719,-6.1719,-6.1719,-6.1719,-6.1719,-6.1719,-6.1719,-6.1719,-6.1719,-6.1719,-6.1719,-6.1719,-6.1719,-6.1719,-6.1719,-6.1719,-6.1719,-6.1719,-6.1719,-6.1719,-8.2304,-8.2304,-8.2304,-8.2304,-8.2304,-8.2304,-8.2304,-8.2304,-8.2304,-8.2304,-8.2304,-8.2304,-8.2304,-8.2304,-8.2304,-8.2304,0.0,0.0,-8.2304,-8.2304,-8.2304,-8.2304,-8.2304,-8.2304,-8.2304,-8.2304,-8.1875,-8.1015,-7.8633,-7.7422,-7.7344,-7.5664,-7.4883,-7.4883,-7.4805,-7.4765,-7.4765,-7.4765,-7.4765,-7.4765,-7.4765,-7.4726,-7.4687,-7.4687,-7.414,-7.3398,-7.3398,-7.2812,-7.2109,-7.2109,-7.2031,-7.1992,-7.1992,-7.1992,-7.1836,-7.0976,-6.9609,-6.8359,-6.8242,-6.7617,-6.6992,-6.6914,-6.625,-6.5156,-6.3476,-6.2422,-6.1758,-6.1719,-6.1719,-6.1719,-6.1719,-6.1719,-6.1133,-5.9453,-5.914,-5.789,-5.4492,0.0,0.0,0.0,0.0,0.0,-4.8047,-5.0078,-5.082,0.0,0.0,0.0,0.0,0.0,-5.0976,-5.4062,-5.75,-5.9687,-6.0469,-6.1289,-6.1719,-6.1719,-6.1719,-6.1719,-6.1719,-6.1719,-6.1719,-6.1719,-6.1719,-6.1719,-6.1719,-6.1719,-6.1719,-6.1719,-6.1719,-6.1719,-6.1719,-6.1719,-6.1719,-6.1719,0.0,0.0,-8.2304,-8.2304,-8.2304,-8.2304,-8.2304,-8.2304,-8.2304,-8.2304,-8.2304,-8.2304,-8.2304,-8.2304,-8.2304,-8.2304,-8.2304,-8.2304,-8.2304,-8.2304,-8.2304,-8.2304,-8.2304,-8.2304,-8.2304,-8.2304,-8.1875,-8.1015,-8.039,-7.9765,-7.9101,-7.8047,-7.7578,-7.7539,-7.6875,-7.6562,-7.6562,-7.6562,-7.6562,-7.6562,-7.6562,-7.6172,-7.5586,-7.5586,-7.5039,-7.4297,-7.4297,-7.3711,-7.3008,-7.3008,-7.2539,-7.1992,-7.1992,-7.1992,-7.1836,-7.0976,-7.043,-6.9844,-6.8555,-6.8047,-6.7734,-6.707,-6.625,-6.5312,-6.4258,-6.332,-6.25,-6.1836,-6.1719,-6.1719,-6.1719,-6.1719,-6.1133,-5.9453,-5.8633,-5.7226,-5.4414,-5.3828,0.0,0.0,-5.1719,-5.168,-5.0625,-5.1641,-5.1953,0.0,0.0,0.0,-5.3398,-5.4883,-5.5859,-5.5976,-5.8672,-6.0547,-6.1367,-6.1601,-6.1719,-6.1719,-6.1719,-6.1719,-6.1719,-6.1719,-6.1719,-6.1719,-6.1719,-6.1719,-6.1719,-6.1719,-6.1719,-6.1719,-6.1719,-6.1719,-6.1719,-6.1719,-6.1719,-6.1719,-8.3476,-8.3476,-8.3476,-8.3476,-8.3476,-8.3476,-8.3476,-8.3164,-8.289,-8.289,-8.2539,-8.2304,-8.2304,-8.2304,-8.2304,-8.2304,-8.2304,-8.2304,-8.2304,-8.2304,-8.2304,-8.2304,-8.2304,-8.2304,-8.2304,-8.2304,-8.207,-8.1601,-8.1211,-8.0742,-8.0273,-7.9453,-7.8867,-7.8476,-7.8008,-7.7578,-7.7187,-7.7187,-7.7187,-7.7187,-7.7187,-7.6914,-7.6484,-7.6484,-7.5937,-7.5195,-7.5195,-7.4648,-7.3828,-7.3437,-7.3008,-7.2539,-7.2148,-7.1992,-7.1914,-7.1445,-7.1015,-7.0508,-6.9609,-6.8789,-6.8008,-6.7109,-6.625,-6.5469,-6.5,-6.3906,-6.2851,-6.2383,-6.1992,-6.1719,-6.1719,-6.1719,-6.1015,-5.8945,-5.8555,-5.7422,-5.4414,-5.4336,-5.4258,-5.3281,-5.3945,-5.4297,-5.3828,-5.4922,-5.5156,-5.3867,-5.5742,0.0,-5.582,-5.8242,-5.9062,-5.7812,-5.9883,-6.1211,-6.1719,-6.1719,-6.1719,-6.1719,-6.1719,-6.1719,-6.1719,-6.1719,-6.1719,-6.1719,-6.1719,-6.1719,-6.1719,-6.1719,-6.1719,-6.1719,-6.1719,-6.1719,-6.1719,-6.1719,-6.1719,-6.1719,-8.4883,-8.4883,-8.4883,-8.4883,-8.4883,-8.4844,-8.4726,-8.4062,-8.3554,-8.3437,-8.2773,-8.2304,-8.2304,-8.2304,-8.2304,-8.2304,-8.2304,-8.2304,-8.2304,-8.2304,-8.2304,-8.2304,-8.2304,-8.2304,-8.2304,-8.2304,-8.2304,-8.2304,-8.1562,-8.1211,-8.1172,-8.0312,-7.9531,-7.8867,-7.875,-7.8203,-7.7383,-7.7383,-7.7305,-7.7187,-7.7187,-7.7187,-7.7187,-7.7187,-7.6758,-7.6094,-7.6094,-7.5547,-7.4687,-7.3945,-7.3594,-7.3359,-7.2461,-7.2187,-7.2187,-7.2031,-7.1484,-7.0859,-7.0742,-6.9492,-6.8008,-6.7265,-6.6445,-6.5742,-6.5625,-6.4453,-6.3359,-6.3203,-6.25,-6.1914,-6.1914,-6.1797,-6.0859,-5.832,-5.8515,-5.7812,-5.4453,0.0,-5.5508,-5.5508,-5.6367,-5.6992,-5.6992,-5.832,-5.8633,-5.7265,-5.918,-5.9844,-5.8555,-6.0508,-6.1055,-5.9609,-6.0976,-6.1719,-6.1719,-6.1719,-6.1719,-6.1719,-6.1719,-6.1719,-6.1719,-6.1719,-6.1719,-6.1719,-6.1719,-6.1719,-6.1719,-6.1719,-6.1719,-6.1719,-6.1719,-6.1719,-6.1719,-6.1719,-6.1719,-6.1719,-8.4883,-8.4883,-8.4883,-8.4883,-8.4883,-8.4648,-8.3906,-8.3672,-8.3359,-8.2617,-8.2383,-8.2304,-8.2304,-8.2304,-8.2304,-8.2304,-8.2304,-8.2304,-8.2304,-8.2304,-8.2304,-8.2304,-8.2304,-8.2304,-8.2304,-8.2304,-8.2304,-8.2304,-8.2148,-8.2109,-8.207,-8.1211,-8.0742,-8.0586,-7.9844,-7.9062,-7.8281,-7.8281,-7.7851,-7.7187,-7.7187,-7.7187,-7.7187,-7.7187,-7.7109,-7.6992,-7.6992,-7.6445,-7.5664,-7.5547,-7.5,-7.4258,-7.3359,-7.3086,-7.2969,-7.2226,-7.1914,-7.164,-7.0898,-6.9492,-6.8164,-6.8047,-6.7344,-6.6523,-6.5781,-6.539,-6.5,-6.4258,-6.3398,-6.2812,-6.2812,-6.2187,-6.0859,-5.832,-5.8008,-5.7148,-5.4375,0.0,-5.6406,-5.6406,-5.7812,-5.8789,-5.8789,-5.9023,-5.9375,-5.9765,-6.0195,-6.0625,-6.1094,-6.1484,-6.1562,-6.1328,-6.1562,-6.1719,-6.1719,-6.1719,-6.1719,-6.1719,-6.1719,-6.1719,-6.1719,-6.1719,-6.1719,-6.1719,-6.1719,-6.1719,-6.1719,-6.1719,-6.1719,-6.1719,-6.1719,-6.1719,-6.1719,-6.1719,-6.1719,-6.1719,-8.6062,-8.6069,-8.6118,-8.6288,-8.6289,-8.6015,-8.5117,-8.4609,-8.3984,-8.3125,-8.2578,-8.2304,-8.2304,-8.2304,-8.2304,-8.2304,-8.2304,-8.2304,-8.2304,-8.2304,-8.2304,-8.2304,-8.2304,-8.2304,-8.2304,-8.2304,-8.2304,-8.2304,-8.2304,-8.2304,-8.2304,-8.1875,-8.1445,-8.0976,-8.0586,-7.9922,-7.9101,-7.8672,-7.8281,-7.7851,-7.7383,-7.7187,-7.7187,-7.7187,-7.7187,-7.7187,-7.7187,-7.6953,-7.6523,-7.6055,-7.5625,-7.5156,-7.4297,-7.3984,-7.3828,-7.2969,-7.2383,-7.1797,-7.0937,-7.0156,-6.9336,-6.8437,-6.789,-6.7383,-6.6484,-6.5937,-6.5508,-6.5078,-6.4297,-6.3555,-6.3086,-6.2656,-6.1562,-5.9023,-5.8594,-5.8008,-5.6328,-5.6797,-5.7656,-5.8555,-5.9375,-6.0039,-6.0508,-6.0547,-6.0703,-6.1055,-6.1094,-6.1289,-6.168,-6.1719,-6.1719,-6.1719,-6.1719,-6.1719,-6.1719,-6.1719,-6.1719,-6.1719,-6.1719,-6.1719,-6.1719,-6.1719,-6.1719,-6.1719,-6.1719,-6.1719,-6.1719,-6.1719,-6.1719,-6.1719,-6.1719,-6.1719,-6.1719,-6.1719,-6.1719,-6.1719,-8.7003,-8.7024,-8.71,-8.7372,-8.7417,-8.7146,-8.6328,-8.5469,-8.4609,-8.3711,-8.2851,-8.2304,-8.2304,-8.2304,-8.2304,-8.2304,-8.2304,-8.2304,-8.2304,-8.2304,-8.2304,-8.2304,-8.2304,-8.2304,-8.2304,-8.2304,-8.2304,-8.2304,-8.2304,-8.2304,-8.2304,-8.2304,-8.1953,-8.1289,-8.1289,-8.082,-7.9961,-7.9336,-7.8945,-7.8711,-7.7851,-7.75,-7.7461,-7.7265,-7.7187,-7.7187,-7.7187,-7.7187,-7.7109,-7.6445,-7.6211,-7.6055,-7.5195,-7.4883,-7.4726,-7.3867,-7.2969,-7.2109,-7.125,-7.0859,-7.039,-6.9101,-6.8476,-6.8008,-6.7344,-6.6523,-6.5898,-6.5898,-6.5195,-6.4414,-6.3711,-6.3281,-6.2226,-5.9844,0.0,-5.9101,-5.8047,-5.8242,-5.8945,-6.0234,-6.0586,-6.0976,-6.164,-6.1719,-6.1719,-6.1719,-6.1719,-6.1719,-6.1719,-6.1719,-6.1719,-6.1719,-6.1719,-6.1719,-6.1719,-6.1719,-6.1719,-6.1719,-6.1719,-6.1719,-6.1719,-6.1719,-6.1719,-6.1719,-6.1719,-6.1719,-6.1719,-6.1719,-6.1719,-6.1719,-6.1719,-6.1719,-6.1719,-6.1719,-6.1719,-6.1719,-8.6841,-8.6802,-8.6901,-8.7096,-8.7116,-8.6909,-8.6288,-8.5469,-8.4609,-8.3711,-8.2851,-8.2304,-8.2304,-8.2304,-8.2304,-8.2304,-8.2304,-8.2304,-8.2304,-8.2304,-8.2304,-8.2304,-8.2304,-8.2304,-8.2304,-8.2304,-8.2304,-8.2304,-8.2304,-8.2304,-8.2304,-8.2304,-8.2265,-8.2187,-8.2187,-8.1719,-8.0898,-8.0859,-8.0351,-7.9531,-7.8711,-7.8398,-7.832,-7.75,-7.7187,-7.7187,-7.7187,-7.7187,-7.7187,-7.7148,-7.7109,-7.6953,-7.6094,-7.5781,-7.5625,-7.4765,-7.3906,-7.3008,-7.2148,-7.1328,-7.0664,-7.0547,-6.9336,-6.8164,-6.8125,-6.7422,-6.6797,-6.6797,-6.6094,-6.5469,-6.543,-6.4101,-6.2422,-6.0586,0.0,0.0,-5.8125,-5.9258,-6.0273,-6.039,-6.1094,-6.164,-6.168,-6.1719,-6.1719,-6.1719,-6.1719,-6.1719,-6.1719,-6.1719,-6.1719,-6.1719,-6.1719,-6.1719,-6.1719,-6.1719,-6.1719,-6.1719,-6.1719,-6.1719,-6.1719,-6.1719,-6.1719,-6.1719,-6.1719,-6.1719,-6.1719,-6.1719,-6.1719,-6.1719,-6.1719,-6.1719,-6.1719,-6.1719,-6.1719,-6.1719,-8.6583,-8.6616,-8.6671,-8.6894,-8.689,-8.6488,-8.5141,-8.4817,-8.4226,-8.2782,-8.2417,-8.2304,-8.2304,-8.2304,-8.2304,-8.2304,-8.2304,-8.2304,-8.2304,-8.2304,-8.2304,-8.2304,-8.2304,-8.2304,-8.2304,-8.2304,-8.2304,-8.2304,-8.2304,-8.2304,-8.2304,-8.2304,-8.2304,-8.2304,-8.2304,-8.2109,-8.1758,-8.1211,-8.082,-8.0429,-7.957,-7.9258,-7.914,-7.832,-7.8008,-7.793,-7.7383,-7.7187,-7.7187,-7.7187,-7.7187,-7.7148,-7.6797,-7.6719,-7.6523,-7.5664,-7.4414,-7.3242,-7.289,-7.2187,-7.1367,-7.0859,-7.0234,-6.9492,-6.8437,-6.793,-6.7539,-6.6992,-6.664,-6.625,-6.5703,-6.5078,-6.4023,-6.2305,0.0,-6.0976,-6.0351,-6.0351,-6.0586,-6.1133,-6.1484,-6.1719,-6.1719,-6.1719,-6.1719,-6.1719,-6.1719,-6.1719,-6.1719,-6.1719,-6.1719,-6.1719,-6.1719,-6.1719,-6.1719,-6.1719,-6.1719,-6.1719,-6.1719,-6.1719,-6.1719,-6.2265,-6.2226,-6.1719,-6.2265,-6.2187,-6.1719,-6.1719,-6.2031,-6.25,-6.25,-6.2851,-6.332,-6.332,-6.2969,-6.25,-8.6346,-8.6349,-8.643,-8.6661,-8.6467,-8.5912,-8.4785,-8.4325,-8.3649,-8.2484,-8.2202,-8.2125,-8.2217,-8.2218,-8.2218,-8.2218,-8.2218,-8.2175,-8.212,-8.2118,-8.2173,-8.2304,-8.2304,-8.2304,-8.2304,-8.2304,-8.2304,-8.2304,-8.2304,-8.2304,-8.2304,-8.2304,-8.2304,-8.2304,-8.2304,-8.2304,-8.2265,-8.164,-8.1406,-8.1328,-8.0469,-8.0117,-8.0039,-7.918,-7.8867,-7.8789,-7.789,-7.7617,-7.7578,-7.7305,-7.7187,-7.7187,-7.7187,-7.7187,-7.7031,-7.6172,-7.5039,-7.3984,-7.3437,-7.2851,-7.2187,-7.1328,-7.0898,-7.039,-6.9258,-6.8789,-6.8359,-6.7461,-6.7305,-6.7031,-6.6172,-6.5781,-6.5195,-6.4023,-6.3086,-6.2422,-6.2148,-6.1601,-6.1328,-6.164,-6.1719,-6.1719,-6.1719,-6.1719,-6.1719,-6.1719,-6.1719,-6.1719,-6.1719,-6.1719,-6.1719,-6.1719,-6.1719,-6.1719,-6.1719,-6.1719,-6.1719,-6.1719,-6.1992,-6.2109,-6.2148,-6.3008,-6.3086,-6.2539,-6.3164,-6.3086,-6.2539,-6.2539,-6.2851,-6.3398,-6.3398,-6.3789,-6.4297,-6.4297,-6.3906,-6.3359,-8.6094,-8.6094,-8.6184,-8.6455,-8.5783,-8.5269,-8.546,-8.4062,-8.2972,-8.2972,-8.2233,-8.1792,-8.198,-8.1988,-8.1988,-8.1988,-8.1988,-8.1899,-8.1695,-8.1688,-8.1878,-8.2265,-8.2304,-8.2304,-8.2304,-8.2304,-8.2304,-8.2304,-8.2304,-8.2304,-8.2304,-8.2304,-8.2304,-8.2304,-8.2304,-8.2304,-8.2304,-8.2304,-8.2304,-8.2226,-8.1367,-8.1015,-8.0937,-8.0039,-7.9726,-7.9609,-7.8789,-7.8515,-7.8398,-7.75,-7.7226,-7.7226,-7.7187,-7.7187,-7.7031,-7.6172,-7.5898,-7.5508,-7.3789,-7.332,-7.3086,-7.2226,-7.1367,-7.0703,-7.0703,-7.0039,-6.918,-6.8398,-6.8203,-6.793,-6.707,-6.6211,-6.5625,-6.5586,-6.4883,-6.4023,-6.3125,-6.3008,-6.2695,-6.1836,-6.1719,-6.1719,-6.1719,-6.1719,-6.1719,-6.1719,-6.1719,-6.1719,-6.1719,-6.1719,-6.1719,-6.1719,-6.1719,-6.1719,-6.1719,-6.1719,-6.1719,-6.1719,-6.2578,-6.3008,-6.3047,-6.3906,-6.4297,-6.4297,-6.4297,-6.4297,-6.4297,-6.4297,-6.4297,-6.4297,-6.4297,-6.4297,-6.4336,-6.4336,-6.4336,-6.418,-8.6094,-8.6094,-8.5934,-8.5445,-8.5167,-8.4595,-8.3434,-8.2956,-8.251,-8.1938,-8.1783,-8.171,-8.176,-8.1805,-8.1805,-8.1805,-8.1805,-8.1746,-8.1688,-8.1688,-8.1739,-8.1878,-8.2,-8.2071,-8.2071,-8.2221,-8.2304,-8.2304,-8.2304,-8.2304,-8.2304,-8.2304,-8.2304,-8.2304,-8.2304,-8.2304,-8.2304,-8.2304,-8.2304,-8.2265,-8.2031,-8.1914,-8.1836,-8.0937,-8.0625,-8.0508,-7.9648,-7.9336,-7.9219,-7.8398,-7.8125,-7.8008,-7.7383,-7.7187,-7.7148,-7.6875,-7.6367,-7.5781,-7.5273,-7.4219,-7.3086,-7.2226,-7.1797,-7.1445,-7.0859,-7.0508,-7.0078,-6.9219,-6.8594,-6.8125,-6.7851,-6.7109,-6.6328,-6.5703,-6.539,-6.4922,-6.4023,-6.3906,-6.3828,-6.3555,-6.3515,-6.3281,-6.2656,-6.2617,-6.2617,-6.2617,-6.2617,-6.2617,-6.2617,-6.2617,-6.289,-6.3515,-6.3515,-6.3515,-6.3515,-6.293,-6.2617,-6.2617,-6.3515,-6.3906,-6.3945,-6.4805,-6.4883,-6.4336,-6.4961,-6.4883,-6.4297,-6.4297,-6.4648,-6.5195,-6.5195,-6.5586,-6.6133,-6.6133,-6.5742,-6.5078,-8.5709,-8.5632,-8.5363,-8.4516,-8.4093,-8.3516,-8.2439,-8.215,-8.1825,-8.1362,-8.1395,-8.1512,-8.1572,-8.1591,-8.1591,-8.1591,-8.1494,-8.1469,-8.1469,-8.1469,-8.1469,-8.1469,-8.167,-8.1812,-8.1878,-8.1992,-8.2062,-8.2062,-8.2127,-8.2175,-8.2175,-8.2264,-8.2304,-8.2304,-8.2304,-8.2304,-8.2304,-8.2304,-8.2304,-8.2304,-8.2304,-8.2304,-8.2226,-8.1719,-8.1523,-8.1406,-8.0547,-8.0195,-8.0078,-7.9258,-7.875,-7.8398,-7.789,-7.7461,-7.7187,-7.7187,-7.6836,-7.6328,-7.5976,-7.5117,-7.4023,-7.2812,-7.2265,-7.1875,-7.1328,-7.1211,-7.0976,-7.0078,-6.9531,-6.8984,-6.832,-6.7773,-6.7148,-6.625,-6.6094,-6.582,-6.4922,-6.4805,-6.4687,-6.4336,-6.4297,-6.4101,-6.3555,-6.3515,-6.3515,-6.3515,-6.3515,-6.3515,-6.3515,-6.3515,-6.375,-6.4297,-6.4297,-6.4297,-6.4297,-6.4101,-6.3867,-6.3515,-6.4414,-6.4805,-6.4844,-6.5703,-6.582,-6.5351,-6.5898,-6.582,-6.5312,-6.5312,-6.5625,-6.6094,-6.6094,-6.6445,-6.6914,-6.6914,-6.6562,-6.5937,-8.4939,-8.4786,-8.4516,-8.3632,-8.2824,-8.2285,-8.2208,-8.1554,-8.1093,-8.1093,-8.1093,-8.1152,-8.1335,-8.1371,-8.1371,-8.1371,-8.1224,-8.1093,-8.1093,-8.1093,-8.1093,-8.1093,-8.1285,-8.1458,-8.1623,-8.1664,-8.1688,-8.1688,-8.1883,-8.1976,-8.198,-8.217,-8.2263,-8.2263,-8.2263,-8.2263,-8.2263,-8.2264,-8.2265,-8.2265,-8.2304,-8.2304,-8.2304,-8.2304,-8.2304,-8.2187,-8.1406,-8.1133,-8.0976,-8.0117,-7.9297,-7.8594,-7.8515,-7.7969,-7.7305,-7.7226,-7.7187,-7.7031,-7.6211,-7.5976,-7.5508,-7.3945,-7.2812,-7.2109,-7.2031,-7.1992,-7.1758,-7.0976,-7.0742,-7.0234,-6.8711,-6.8281,-6.793,-6.7148,-6.6953,-6.6601,-6.582,-6.5703,-6.543,-6.4648,-6.4531,-6.4492,-6.4414,-6.4414,-6.4375,-6.4297,-6.4375,-6.4414,-6.4414,-6.4414,-6.4453,-6.4531,-6.4531,-6.4531,-6.4531,-6.5312,-6.5273,-6.4414,-6.5312,-6.5703,-6.5742,-6.6523,-6.6914,-6.6914,-6.6914,-6.6914,-6.6914,-6.6914,-6.6914,-6.6914,-6.6914,-6.6914,-6.6914,-6.6914,-6.6836,-6.6523,-8.4055,-8.3862,-8.3593,-8.2708,-8.2439,-8.2093,-8.1477,-8.1208,-8.1093,-8.1093,-8.1093,-8.1124,-8.1176,-8.1191,-8.1191,-8.1191,-8.1139,-8.1093,-8.1093,-8.1093,-8.1093,-8.1093,-8.1146,-8.1181,-8.1228,-8.1534,-8.1688,-8.1688,-8.1725,-8.1785,-8.1785,-8.1825,-8.1844,-8.1844,-8.1844,-8.1844,-8.185,-8.1992,-8.2062,-8.2065,-8.2223,-8.2304,-8.2304,-8.2304,-8.2304,-8.2265,-8.2109,-8.2031,-8.1875,-8.1015,-8.0156,-7.9336,-7.8711,-7.8359,-7.8086,-7.7383,-7.7187,-7.7148,-7.6953,-7.6406,-7.582,-7.543,-7.418,-7.2851,-7.2148,-7.1992,-7.1953,-7.1758,-7.1172,-7.0586,-7.0234,-6.9101,-6.8125,-6.7969,-6.7344,-6.6836,-6.664,-6.6601,-6.6562,-6.6367,-6.6328,-6.6055,-6.539,-6.5312,-6.5039,-6.4336,-6.4922,-6.5312,-6.5312,-6.5312,-6.5625,-6.6328,-6.6328,-6.6328,-6.6328,-6.6523,-6.6172,-6.5312,-6.6211,-6.6601,-6.6601,-6.6797,-6.6914,-6.6914,-6.6914,-6.6914,-6.6914,-6.6914,-6.6914,-6.6914,-6.6914,-6.6914,-6.6914,-6.6914,-6.6484,-6.5625,-8.3131,-8.2978,-8.2708,-8.1862,-8.1747,-8.1593,-8.117,-8.1093,-8.1093,-8.1093,-8.1093,-8.1093,-8.1093,-8.1093,-8.1093,-8.1093,-8.1093,-8.1093,-8.1093,-8.1093,-8.1093,-8.1093,-8.1093,-8.1093,-8.1093,-8.1298,-8.1391,-8.1391,-8.1494,-8.1553,-8.1563,-8.167,-8.1688,-8.1688,-8.1688,-8.1688,-8.1688,-8.1825,-8.1861,-8.1867,-8.1976,-8.2,-8.2,-8.2,-8.2065,-8.217,-8.217,-8.217,-8.2088,-8.1506,-8.0816,-8.0098,-7.9668,-7.9006,-7.8266,-7.7796,-7.7307,-7.6926,-7.6926,-7.6641,-7.6265,-7.5726,-7.5001,-7.409,-7.289,-7.2305,-7.1992,-7.1992,-7.164,-7.1171,-7.0691,-6.9907,-6.9117,-6.8613,-6.7787,-6.7255,-6.7363,-6.7017,-6.6789,-6.6875,-6.6914,-6.6719,-6.625,-6.6211,-6.6015,-6.5586,-6.5976,-6.6211,-6.6211,-6.6211,-6.6445,-6.6875,-6.6914,-6.6914,-6.6914,-6.6914,-6.668,-6.6211,-6.668,-6.6914,-6.6914,-6.6914,-6.6914,-6.6914,-6.6914,-6.6914,-6.6914,-6.6914,-6.6914,-6.6914,-6.6914,-6.6914,-6.6914,-6.6914,-6.6094,-6.4805,-8.2247,-8.2093,-8.1862,-8.1208,-8.1093,-8.1093,-8.1093,-8.1093,-8.1093,-8.1093,-8.1093,-8.1093,-8.1093,-8.1093,-8.1093,-8.1093,-8.1093,-8.1093,-8.1093,-8.1093,-8.1093,-8.1093,-8.1093,-8.1093,-8.1093,-8.1093,-8.1093,-8.1093,-8.1258,-8.1361,-8.1335,-8.1504,-8.1609,-8.1609,-8.1609,-8.1609,-8.1609,-8.1615,-8.167,-8.1631,-8.1711,-8.1688,-8.1688,-8.1688,-8.1819,-8.1962,-8.1962,-8.1962,-8.1909,-8.1778,-8.1318,-8.0826,-8.0709,-7.97,-7.8534,-7.8222,-7.7518,-7.6777,-7.6621,-7.6727,-7.6629,-7.5761,-7.5558,-7.5198,-7.3929,-7.2843,-7.2143,-7.2226,-7.2069,-7.1671,-7.0844,-7.0597,-7.0208,-6.9273,-6.8397,-6.7864,-6.8054,-6.7329,-6.6814,-6.6981,-6.6906,-6.6828,-6.6828,-6.6833,-6.6834,-6.6834,-6.6874,-6.6914,-6.6914,-6.6914,-6.6914,-6.6914,-6.6914,-6.6914,-6.6914,-6.6914,-6.6914,-6.6914,-6.6914,-6.6914,-6.6914,-6.6914,-6.6914,-6.6914,-6.6914,-6.6914,-6.6914,-6.6914,-6.6914,-6.6914,-6.6914,-6.6914,-6.6875,-6.6562,-6.5547,-6.414,-8.14,-8.1246,-8.1246,-8.1131,-8.1093,-8.1093,-8.1093,-8.1093,-8.1093,-8.1093,-8.1093,-8.1093,-8.1093,-8.1093,-8.1093,-8.1093,-8.1093,-8.1093,-8.1093,-8.1093,-8.1093,-8.1093,-8.1093,-8.1093,-8.1093,-8.1093,-8.1093,-8.1093,-8.1116,-8.1131,-8.1131,-8.1152,-8.1181,-8.1181,-8.1181,-8.1181,-8.1196,-8.1359,-8.1436,-8.1458,-8.1645,-8.1688,-8.1688,-8.1688,-8.1703,-8.1725,-8.1725,-8.1725,-8.1757,-8.1695,-8.1625,-8.1414,-8.0667,-8.0277,-7.981,-7.8292,-7.7764,-7.747,-7.6777,-7.6604,-7.6611,-7.6473,-7.5896,-7.5294,-7.5087,-7.3762,-7.2711,-7.3042,-7.2408,-7.1705,-7.1576,-7.0987,-7.0407,-7.0097,-6.9285,-6.8747,-6.8767,-6.8001,-6.7475,-6.7492,-6.6875,-6.6452,-6.6452,-6.6588,-6.6634,-6.6634,-6.679,-6.6914,-6.6914,-6.6914,-6.6914,-6.6914,-6.6914,-6.6914,-6.6914,-6.6914,-6.6914,-6.6914,-6.6914,-6.6914,-6.6914,-6.6914,-6.6914,-6.6914,-6.6914,-6.6914,-6.6914,-6.6914,-6.6914,-6.6914,-6.6914,-6.6914,-6.6719,-6.5195,-6.4492,-6.4062,-8.117,-8.1093,-8.1093,-8.1093,-8.1093,-8.1093,-8.1093,-8.1093,-8.1093,-8.1093,-8.1093,-8.1093,-8.1093,-8.1093,-8.1093,-8.1093,-8.1093,-8.1093,-8.1093,-8.1093,-8.1093,-8.1093,-8.1093,-8.1093,-8.1093,-8.1093,-8.1093,-8.1093,-8.1093,-8.1093,-8.1093,-8.1093,-8.1093,-8.1093,-8.1093,-8.1093,-8.1108,-8.121,-8.1242,-8.1256,-8.1336,-8.1347,-8.1347,-8.1347,-8.1425,-8.1524,-8.1524,-8.1524,-8.1504,-8.1418,-8.1425,-8.1485,-8.1087,-8.0621,-8.0087,-7.9301,-7.8346,-7.7438,-7.709,-7.6708,-7.64,-7.6284,-7.6049,-7.5847,-7.5847,-7.4798,-7.3675,-7.3061,-7.2603,-7.2106,-7.151,-7.1138,-7.0837,-7.062,-6.9881,-6.9381,-6.9437,-6.8726,-6.8,-6.7651,-6.7275,-6.6893,-6.6426,-6.6516,-6.6616,-6.6616,-6.6788,-6.6914,-6.6914,-6.6914,-6.6914,-6.6914,-6.6914,-6.6914,-6.6914,-6.6914,-6.6914,-6.6914,-6.6914,-6.6914,-6.6914,-6.6914,-6.6914,-6.6914,-6.6914,-6.6914,-6.6914,-6.6914,-6.6914,-6.6914,-6.6914,-6.6914,-6.668,-6.4922,-6.4297,-6.4062]},{"header":{"parameterUnit":"m.s-1","parameterCategory":1,"la1":30.6,"la2":28.766,"lo1":-90.7593,"lo2":-88.6598,"dy":0.0162,"dx":0.0183,"nx":116,"ny":114,"refTime":"2024-05-23T12:00:00:Z","depth":0,"parameterNumber":3,"parameterNumberName":"V-component_of_WINDS"},"data":[0.0,0.0,0.0,0.0,0.0,0.0,0.0,0.0,0.0,0.0,0.0,0.0,0.0,0.0,0.0,0.0,0.0,0.0,0.0,0.0,0.0,0.0,0.0,0.0,0.0,0.0,0.0,0.0,0.0,0.0,0.0,0.0,0.0,0.0,0.0,0.0,0.0,0.0,0.0,0.0,0.0,0.0,0.0,0.0,0.0,0.0,0.0,0.0,0.0,0.0,0.0,0.0,0.0,0.0,0.0,0.0,0.0,0.0,0.0,0.0,0.0,0.0,0.0,0.0,0.0,0.0,0.0,0.0,0.0,0.0,0.0,0.0,0.0,0.0,0.0,0.0,0.0,0.0,0.0,0.0,0.0,0.0,0.0,0.0,0.0,0.0,0.0,0.0,0.0,0.0,0.0,0.0,0.0,0.0,0.0,0.0,0.0,0.0,0.0,0.0,0.0,0.0,0.0,0.0,0.0,0.0,0.0,0.0,0.0,0.0,0.0,0.0,0.0,0.0,0.0,0.0,0.0,0.0,0.0,0.0,0.0,0.0,0.0,0.0,0.0,0.0,0.0,0.0,0.0,0.0,0.0,0.0,0.0,0.0,0.0,0.0,0.0,0.0,0.0,0.0,0.0,0.0,0.0,0.0,0.0,0.0,0.0,0.0,0.0,0.0,0.0,0.0,0.0,0.0,0.0,0.0,0.0,0.0,0.0,0.0,0.0,0.0,0.0,0.0,0.0,0.0,0.0,0.0,0.0,0.0,0.0,0.0,0.0,0.0,0.0,0.0,0.0,0.0,0.0,0.0,0.0,0.0,0.0,0.0,0.0,0.0,0.0,0.0,0.0,0.0,0.0,0.0,0.0,0.0,0.0,0.0,0.0,0.0,0.0,0.0,0.0,0.0,0.0,0.0,0.0,0.0,0.0,0.0,0.0,0.0,0.0,0.0,0.0,0.0,0.0,0.0,0.0,0.0,0.0,0.0,0.0,0.0,0.0,0.0,0.0,0.0,0.0,0.0,0.0,0.0,0.0,0.0,0.0,0.0,0.0,0.0,0.0,0.0,0.0,0.0,0.0,0.0,0.0,0.0,0.0,0.0,0.0,0.0,0.0,0.0,0.0,0.0,0.0,0.0,0.0,0.0,0.0,0.0,0.0,0.0,0.0,0.0,0.0,0.0,0.0,0.0,0.0,0.0,0.0,0.0,0.0,0.0,0.0,0.0,0.0,0.0,0.0,0.0,0.0,0.0,0.0,0.0,0.0,0.0,0.0,0.0,0.0,0.0,0.0,0.0,0.0,0.0,0.0,0.0,0.0,0.0,0.0,0.0,0.0,0.0,0.0,0.0,0.0,0.0,0.0,0.0,0.0,0.0,0.0,0.0,0.0,0.0,0.0,0.0,0.0,0.0,0.0,0.0,0.0,0.0,0.0,0.0,0.0,0.0,0.0,0.0,0.0,0.0,0.0,0.0,0.0,0.0,0.0,0.0,0.0,0.0,0.0,0.0,0.0,0.0,0.0,0.0,0.0,0.0,0.0,0.0,0.0,0.0,0.0,0.0,0.0,0.0,0.0,0.0,0.0,0.0,0.0,0.0,0.0,0.0,0.0,0.0,0.0,0.0,0.0,0.0,0.0,0.0,0.0,0.0,0.0,0.0,0.0,0.0,0.0,0.0,0.0,0.0,0.0,0.0,0.0,0.0,0.0,0.0,0.0,0.0,0.0,0.0,0.0,0.0,0.0,0.0,0.0,0.0,0.0,0.0,0.0,0.0,0.0,0.0,0.0,0.0,0.0,0.0,0.0,0.0,0.0,0.0,0.0,0.0,0.0,0.0,0.0,0.0,0.0,0.0,0.0,0.0,0.0,0.0,0.0,0.0,0.0,0.0,0.0,0.0,0.0,0.0,0.0,0.0,0.0,0.0,0.0,0.0,0.0,0.0,0.0,0.0,0.0,0.0,0.0,0.0,0.0,0.0,0.0,0.0,0.0,0.0,0.0,0.0,0.0,0.0,0.0,0.0,0.0,0.0,0.0,0.0,0.0,0.0,0.0,0.0,0.0,0.0,0.0,0.0,0.0,0.0,0.0,0.0,0.0,0.0,0.0,0.0,0.0,0.0,0.0,0.0,0.0,0.0,0.0,0.0,0.0,0.0,0.0,0.0,0.0,0.0,0.0,0.0,0.0,0.0,0.0,0.0,0.0,0.0,0.0,0.0,0.0,0.0,0.0,0.0,0.0,0.0,0.0,0.0,0.0,0.0,0.0,0.0,0.0,0.0,0.0,0.0,0.0,0.0,0.0,0.0,0.0,0.0,0.0,0.0,0.0,0.0,0.0,0.0,0.0,0.0,0.0,0.0,0.0,0.0,0.0,0.0,0.0,0.0,0.0,0.0,0.0,0.0,0.0,0.0,0.0,0.0,0.0,0.0,0.0,0.0,0.0,0.0,0.0,0.0,0.0,0.0,0.0,0.0,0.0,0.0,0.0,0.0,0.0,0.0,0.0,0.0,0.0,0.0,0.0,0.0,0.0,0.0,0.0,0.0,0.0,0.0,0.0,0.0,0.0,0.0,0.0,0.0,0.0,0.0,0.0,0.0,0.0,0.0,0.0,0.0,0.0,0.0,0.0,0.0,0.0,0.0,0.0,0.0,0.0,0.0,0.0,0.0,0.0,0.0,0.0,0.0,0.0,0.0,0.0,0.0,0.0,0.0,0.0,0.0,0.0,0.0,0.0,0.0,0.0,0.0,0.0,0.0,0.0,0.0,0.0,0.0,0.0,0.0,0.0,0.0,0.0,0.0,0.0,0.0,0.0,0.0,0.0,0.0,0.0,0.0,0.0,0.0,0.0,0.0,0.0,0.0,0.0,0.0,0.0,0.0,0.0,0.0,0.0,0.0,0.0,0.0,0.0,0.0,0.0,0.0,0.0,0.0,0.0,0.0,0.0,0.0,0.0,0.0,0.0,0.0,0.0,0.0,0.0,0.0,0.0,0.0,0.0,0.0,0.0,0.0,0.0,0.0,0.0,0.0,0.0,0.0,0.0,0.0,0.0,0.0,0.0,0.0,0.0,0.0,0.0,0.0,0.0,0.0,0.0,0.0,0.0,0.0,0.0,0.0,0.0,0.0,0.0,0.0,0.0,0.0,0.0,0.0,0.0,0.0,0.0,0.0,0.0,0.0,0.0,0.0,0.0,0.0,0.0,0.0,0.0,0.0,0.0,0.0,0.0,0.0,0.0,0.0,0.0,0.0,0.0,0.0,0.0,0.0,0.0,0.0,0.0,0.0,0.0,0.0,0.0,0.0,0.0,0.0,0.0,0.0,0.0,0.0,0.0,0.0,0.0,0.0,0.0,0.0,0.0,0.0,0.0,0.0,0.0,0.0,0.0,0.0,0.0,0.0,0.0,0.0,0.0,0.0,0.0,0.0,0.0,0.0,0.0,0.0,0.0,0.0,0.0,0.0,0.0,0.0,0.0,0.0,0.0,0.0,0.0,0.0,0.0,0.0,0.0,0.0,0.0,0.0,0.0,0.0,0.0,0.0,0.0,0.0,0.0,0.0,0.0,0.0,0.0,0.0,0.0,0.0,0.0,0.0,0.0,0.0,0.0,0.0,0.0,0.0,0.0,0.0,0.0,0.0,0.0,0.0,0.0,0.0,0.0,0.0,0.0,0.0,0.0,0.0,0.0,0.0,0.0,0.0,0.0,0.0,0.0,0.0,0.0,0.0,0.0,0.0,0.0,0.0,0.0,0.0,0.0,0.0,0.0,0.0,0.0,0.0,0.0,0.0,0.0,0.0,0.0,0.0,0.0,0.0,0.0,0.0,0.0,0.0,0.0,0.0,0.0,0.0,0.0,0.0,0.0,0.0,0.0,0.0,0.0,0.0,0.0,0.0,0.0,0.0,0.0,0.0,0.0,0.0,0.0,0.0,0.0,0.0,0.0,0.0,0.0,0.0,0.0,0.0,0.0,0.0,0.0,0.0,0.0,0.0,0.0,0.0,0.0,0.0,0.0,0.0,0.0,0.0,0.0,0.0,0.0,0.0,0.0,0.0,0.0,0.0,0.0,0.0,0.0,0.0,0.0,0.0,0.0,0.0,0.0,0.0,0.0,0.0,0.0,0.0,0.0,0.0,0.0,0.0,0.0,0.0,0.0,0.0,0.0,0.0,0.0,0.0,0.0,0.0,0.0,0.0,0.0,0.0,0.0,0.0,0.0,0.0,0.0,0.0,0.0,0.0,0.0,0.0,0.0,0.0,0.0,0.0,0.0,0.0,0.0,0.0,0.0,0.0,0.0,0.0,0.0,0.0,0.0,0.0,0.0,0.0,0.0,0.0,0.0,0.0,0.0,0.0,0.0,0.0,0.0,0.0,0.0,0.0,0.0,0.0,0.0,0.0,0.0,0.0,0.0,0.0,0.0,0.0,0.0,0.0,0.0,0.0,0.0,0.0,0.0,0.0,0.0,0.0,0.0,0.0,0.0,0.0,0.0,0.0,0.0,0.0,0.0,0.0,0.0,0.0,0.0,0.0,0.0,0.0,0.0,0.0,0.0,0.0,0.0,0.0,0.0,0.0,0.0,0.0,0.0,0.0,0.0,0.0,0.0,0.0,0.0,0.0,0.0,0.0,0.0,0.0,0.0,0.0,0.0,0.0,0.0,0.0,0.0,0.0,0.0,0.0,0.0,0.0,0.0,0.0,0.0,0.0,0.0,0.0,0.0,0.0,0.0,0.0,0.0,0.0,0.0,0.0,0.0,0.0,0.0,0.0,0.0,0.0,0.0,0.0,0.0,0.0,0.0,0.0,0.0,0.0,0.0,0.0,0.0,0.0,0.0,0.0,0.0,0.0,0.0,0.0,0.0,0.0,0.0,0.0,0.0,0.0,0.0,0.0,0.0,0.0,0.0,0.0,0.0,0.0,0.0,0.0,0.0,0.0,0.0,0.0,0.0,0.0,0.0,0.0,0.0,0.0,0.0,0.0,0.0,0.0,0.0,0.0,0.0,0.0,0.0,0.0,0.0,0.0,0.0,0.0,0.0,0.0,0.0,0.0,0.0,0.0,0.0,0.0,0.0,0.0,0.0,0.0,0.0,0.0,0.0,0.0,0.0,0.0,0.0,0.0,0.0,0.0,0.0,0.0,0.0,0.0,0.0,0.0,0.0,0.0,0.0,0.0,0.0,0.0,0.0,0.0,0.0,0.0,0.0,0.0,0.0,0.0,0.0,0.0,0.0,0.0,0.0,0.0,0.0,0.0,0.0,0.0,0.0,0.0,0.0,0.0,0.0,0.0,0.0,0.0,0.0,0.0,0.0,0.0,0.0,0.0,0.0,0.0,0.0,0.0,0.0,0.0,0.0,0.0,0.0,0.0,0.0,0.0,0.0,0.0,0.0,0.0,0.0,0.0,0.0,0.0,0.0,0.0,0.0,0.0,0.0,0.0,0.0,0.0,0.0,0.0,0.0,0.0,0.0,0.0,0.0,0.0,0.0,0.0,0.0,0.0,0.0,0.0,0.0,0.0,0.0,0.0,0.0,0.0,0.0,0.0,0.0,0.0,0.0,0.0,0.0,0.0,0.0,0.0,0.0,0.0,0.0,0.0,0.0,0.0,0.0,0.0,0.0,0.0,0.0,0.0,0.0,0.0,0.0,0.0,0.0,0.0,0.0,0.0,0.0,0.0,0.0,0.0,0.0,0.0,0.0,0.0,0.0,0.0,0.0,0.0,0.0,0.0,0.0,0.0,0.0,0.0,0.0,0.0,0.0,0.0,0.0,0.0,0.0,0.0,0.0,0.0,0.0,0.0,0.0,0.0,0.0,0.0,0.0,0.0,0.0,0.0,0.0,0.0,0.0,0.0,0.0,0.0,0.0,0.0,0.0,0.0,0.0,0.0,0.0,0.0,0.0,0.0,0.0,0.0,0.0,0.0,0.0,0.0,0.0,0.0,0.0,0.0,0.0,0.0,0.0,0.0,0.0,0.0,0.0,0.0,0.0,0.0,0.0,0.0,0.0,0.0,0.0,0.0,0.0,0.0,0.0,0.0,0.0,0.0,0.0,0.0,0.0,0.0,0.0,0.0,0.0,0.0,0.0,0.0,0.0,0.0,0.0,0.0,-1.1198,0.0,0.0,0.0,0.0,0.0,0.0,0.0,0.0,0.0,0.0,0.0,0.0,0.0,0.0,0.0,0.0,0.0,0.0,0.0,0.0,0.0,0.0,0.0,0.0,0.0,0.0,0.0,0.0,0.0,0.0,0.0,0.0,0.0,0.0,0.0,0.0,0.0,-0.0323,-0.0951,-0.0312,-0.0615,-0.1774,-0.0572,-0.0259,-0.0766,0.0,0.0,0.0,0.0,0.0,0.0,0.0,0.0,0.0,0.0,0.0,0.0,0.0,0.0,0.0,0.0,0.0,0.0,0.0,0.0,0.0,0.0,0.0,0.0,0.0,0.0,0.0,0.0,0.0,0.0,0.0,0.0,0.0,0.0,0.0,0.0,0.0,0.0,0.0,0.0,0.0,0.0,0.0,0.0,0.0,0.0,0.0,0.0,0.0,0.0,0.0,0.0,0.0,0.0,0.0,0.0,0.0,0.0,0.0,0.0,0.0,0.0,0.0,0.0,0.0,0.0,0.0,0.0,0.0,0.0,0.0,-1.2345,0.0,0.0,0.0,0.0,0.0,0.0,0.0,0.0,0.0,0.0,0.0,0.0,0.0,0.0,0.0,0.0,0.0,0.0,0.0,0.0,0.0,0.0,0.0,0.0,0.0,0.0,0.0,0.0,0.0,0.0,0.0,0.0,0.0,0.0,0.0,0.0,-0.0655,-0.1992,-0.1323,-0.1571,-0.2646,-0.1764,-0.1713,-0.233,-0.1638,0.0,0.0,0.0,0.0,0.0,0.0,0.0,0.0,0.0,0.0,0.0,0.0,0.0,0.0,0.0,0.0,0.0,0.0,0.0,0.0,0.0,0.0,0.0,0.0,0.0,0.0,0.0,0.0,0.0,0.0,0.0,0.0,0.0,0.0,0.0,0.0,0.0,0.0,0.0,0.0,0.0,0.0,0.0,0.0,0.0,0.0,0.0,0.0,0.0,0.0,0.0,0.0,0.0,0.0,0.0,0.0,0.0,0.0,0.0,0.0,0.0,0.0,0.0,-1.1159,-1.2144,-1.2642,-1.3969,-1.5442,-1.6805,-1.5491,-1.5106,-1.5384,-1.4631,0.0,0.0,0.0,0.0,0.0,0.0,0.0,0.0,0.0,0.0,0.0,0.0,0.0,0.0,0.0,0.0,0.0,0.0,0.0,0.0,0.0,0.0,0.0,0.0,0.0,0.0,0.0,0.0,0.0,0.0,0.0,0.0,0.0,0.0,-0.0657,-0.2015,-0.4038,-0.5109,-0.5333,-0.619,-0.6173,-0.526,-0.178,-0.0764,-0.1662,0.0,0.0,0.0,0.0,0.0,0.0,0.0,0.0,0.0,0.0,0.0,0.0,0.0,0.0,0.0,0.0,0.0,0.0,0.0,0.0,0.0,0.0,0.0,0.0,0.0,0.0,0.0,0.0,0.0,0.0,0.0,0.0,0.0,0.0,0.0,0.0,0.0,0.0,0.0,0.0,0.0,-0.602,-0.6525,0.0,0.0,0.0,0.0,0.0,0.0,0.0,0.0,0.0,0.0,0.0,0.0,0.0,-0.9035,-0.9429,-1.01,-1.1123,-1.2555,-1.3165,-1.501,-1.7742,-1.796,-1.9059,-2.0819,-2.0598,0.0,-1.7965,-1.7081,0.0,0.0,0.0,0.0,0.0,0.0,0.0,0.0,0.0,0.0,0.0,0.0,0.0,0.0,0.0,0.0,0.0,0.0,0.0,0.0,0.0,0.0,0.0,0.0,0.0,0.0,0.0,0.0,0.0,0.0,0.0,0.0,0.0,0.0,-0.0699,-0.21,-0.4799,-0.6112,-0.6166,-0.5946,-0.6017,-0.6158,-0.3649,-0.2381,-0.2061,-0.1389,0.0,0.0,0.0,0.0,0.0,0.0,0.0,0.0,0.0,0.0,0.0,0.0,0.0,0.0,0.0,0.0,0.0,0.0,0.0,0.0,0.0,0.0,0.0,0.0,0.0,0.0,0.0,0.0,0.0,0.0,0.0,0.0,0.0,0.0,0.0,0.0,0.0,0.0,0.0,-0.6094,-0.6721,-0.7041,-0.7041,-0.6946,0.0,0.0,0.0,0.0,0.0,0.0,0.0,0.0,0.0,-0.939,-0.9693,-0.9992,-1.0358,-1.1703,-1.2893,-1.3819,-1.5128,-1.6488,-1.7873,-1.8881,-1.9676,-2.0454,-2.1398,-2.1283,-2.0374,-1.9319,-1.8263,-1.7261,0.0,0.0,0.0,0.0,-1.6393,-1.6544,0.0,0.0,0.0,0.0,0.0,0.0,0.0,0.0,0.0,0.0,0.0,0.0,0.0,0.0,0.0,0.0,0.0,0.0,0.0,0.0,0.0,0.0,0.0,0.0,0.0,-0.0694,-0.1782,-0.3228,-0.5701,-0.6974,-0.7113,-0.6168,-0.6222,-0.7135,-0.6085,-0.456,-0.2668,-0.2238,-0.146,-0.0466,0.0,0.0,0.0,0.0,0.0,0.0,0.0,0.0,0.0,0.0,0.0,0.0,0.0,0.0,0.0,0.0,0.0,0.0,0.0,0.0,0.0,0.0,0.0,0.0,0.0,0.0,0.0,0.0,0.0,0.0,0.0,0.0,0.0,0.0,0.0,0.0,0.0,-0.6776,-0.7368,-0.7529,-0.7746,-0.7746,0.0,0.0,0.0,0.0,0.0,0.0,-0.9035,-0.9442,-0.9869,-1.0317,-1.0588,-1.0867,-1.1103,-1.264,-1.3837,-1.4514,-1.5923,-1.7117,-1.8143,-1.9462,-2.0206,-2.057,-2.1815,-2.2285,-2.2124,-2.0935,-1.9853,-1.8905,-1.8531,-1.8156,-1.7849,-1.8102,-1.8262,-1.849,0.0,0.0,0.0,0.0,0.0,0.0,0.0,0.0,0.0,0.0,0.0,0.0,0.0,0.0,0.0,0.0,0.0,0.0,0.0,0.0,0.0,0.0,0.0,0.0,0.0,-0.2639,-0.4661,-0.609,-0.7761,-0.8649,-0.8796,-0.8881,-0.9004,-0.9053,-0.8807,-0.6969,-0.4024,-0.2739,-0.2094,-0.178,-0.0518,0.0,0.0,0.0,0.0,0.0,0.0,0.0,0.0,0.0,0.0,0.0,0.0,0.0,0.0,0.0,0.0,0.0,0.0,0.0,0.0,0.0,0.0,0.0,0.0,0.0,0.0,0.0,0.0,0.0,0.0,0.0,0.0,0.0,0.0,0.0,0.0,0.0,0.0,-0.7955,-0.8391,0.0,0.0,0.0,0.0,-0.8628,-0.9069,-0.9517,-0.9896,-1.027,-1.0643,-1.109,-1.126,-1.1491,-1.1782,-1.1876,-1.289,-1.4866,-1.4948,-1.6917,-2.0552,-2.0624,-2.1712,-2.359,-2.331,-2.3086,-2.2726,-2.155,-2.0695,-2.0094,-1.9519,-1.8945,-1.8477,-1.8771,-1.9052,-1.9345,0.0,0.0,0.0,0.0,0.0,0.0,0.0,0.0,0.0,0.0,0.0,0.0,0.0,0.0,0.0,0.0,0.0,0.0,0.0,0.0,0.0,0.0,0.0,-0.0458,-0.1376,-0.3233,-0.5012,-0.6664,-0.8148,-0.8981,-0.9225,-0.9273,-0.93,-0.9357,-0.9245,-0.8003,-0.5885,-0.5165,-0.3788,-0.2057,-0.1533,-0.0772,0.0,0.0,0.0,0.0,0.0,0.0,0.0,0.0,0.0,0.0,0.0,0.0,0.0,0.0,0.0,0.0,0.0,0.0,0.0,0.0,0.0,0.0,0.0,0.0,0.0,0.0,0.0,0.0,0.0,0.0,0.0,0.0,0.0,0.0,0.0,0.0,0.0,-0.8737,-0.915,0.0,-0.8933,-0.9171,-0.9408,-0.9505,-0.9992,-1.0399,-1.0744,-1.105,-1.1335,-1.1586,-1.1742,-1.187,-1.1979,-1.2074,-1.311,-1.5159,-1.5202,-1.6618,-1.9011,-1.9011,-1.9365,-1.9949,-2.1102,-2.1478,-2.1278,-2.2154,-2.2071,-2.1336,-2.1136,-2.0815,-2.0529,-2.0575,-2.0561,-2.0508,0.0,0.0,0.0,0.0,0.0,0.0,0.0,0.0,0.0,0.0,0.0,0.0,0.0,0.0,0.0,0.0,0.0,0.0,0.0,0.0,0.0,0.0,-0.049,-0.1402,-0.2843,-0.4365,-0.5917,-0.7587,-0.8581,-0.9211,-0.9456,-0.9456,-0.9456,-0.9456,-0.9456,-0.8845,-0.7735,-0.734,-0.5241,-0.2194,-0.2124,-0.1232,0.0,0.0,0.0,0.0,0.0,0.0,0.0,0.0,0.0,0.0,0.0,0.0,0.0,0.0,0.0,0.0,0.0,0.0,0.0,0.0,0.0,0.0,0.0,0.0,0.0,0.0,0.0,0.0,0.0,0.0,0.0,0.0,0.0,0.0,0.0,0.0,-0.9069,-0.9268,-0.9761,-0.9992,-0.9639,-0.9964,-1.0263,-1.0412,-1.0799,-1.1131,-1.1375,-1.1633,-1.1837,-1.1979,-1.2088,-1.2162,-1.221,-1.2366,-1.3388,-1.5354,-1.5548,-1.6904,-1.9245,-1.9245,-1.9541,-2.0123,-2.1365,-2.175,-2.1709,-2.2832,-2.2979,-2.2418,-2.2218,-2.1951,-2.1762,-2.1762,-2.151,-2.1243,0.0,0.0,0.0,0.0,0.0,0.0,0.0,0.0,0.0,0.0,0.0,0.0,0.0,0.0,0.0,0.0,0.0,0.0,0.0,0.0,0.0,0.0,-0.1395,-0.2843,-0.4197,-0.6002,-0.7586,-0.8905,-0.9245,-0.9469,-0.9618,-0.9618,-0.9618,-0.9618,-0.9618,-0.953,-0.9367,-0.9026,-0.6305,-0.2325,-0.2292,-0.135,0.0,0.0,0.0,0.0,0.0,0.0,0.0,0.0,0.0,0.0,0.0,0.0,0.0,0.0,0.0,0.0,0.0,0.0,0.0,0.0,0.0,0.0,0.0,0.0,0.0,0.0,0.0,0.0,0.0,0.0,0.0,0.0,0.0,0.0,-0.8029,-0.8974,-0.9571,-0.9442,-1.0195,-1.0561,-1.0071,-1.0557,-1.1029,-1.1172,-1.1463,-1.1694,-1.1837,-1.1986,-1.2142,-1.2298,-1.2305,-1.2372,-1.2515,-1.2664,-1.3589,-1.5403,-1.5596,-1.7654,-2.1314,-2.1314,-2.236,-2.424,-2.4037,-2.3918,-2.3865,-2.3439,-2.32,-2.3121,-2.2604,-2.2258,-2.2004,-2.2004,-2.1804,-2.1574,0.0,0.0,0.0,0.0,0.0,0.0,0.0,0.0,0.0,0.0,0.0,0.0,0.0,0.0,0.0,0.0,0.0,0.0,0.0,0.0,0.0,0.0,-0.1404,-0.2956,-0.4543,-0.6077,-0.7747,-0.9429,-0.951,-0.9618,-0.9761,-0.9761,-0.9761,-0.9761,-0.9761,-0.968,-0.9478,-0.8154,-0.6799,-0.5478,-0.4202,-0.2206,0.0,0.0,0.0,0.0,0.0,0.0,0.0,0.0,0.0,0.0,0.0,0.0,0.0,0.0,0.0,0.0,0.0,0.0,0.0,0.0,0.0,0.0,0.0,0.0,0.0,0.0,0.0,0.0,0.0,0.0,0.0,0.0,0.0,-0.871,-0.8981,-0.9537,-0.997,-1.0317,-1.067,-1.0921,-1.1016,-1.1274,-1.1491,-1.1633,-1.183,-1.2006,-1.2155,-1.2203,-1.2345,-1.2603,-1.261,-1.2684,-1.2834,-1.2874,-1.3193,-1.3699,-1.3742,-1.4223,-1.513,-1.513,-1.5366,-1.5913,-1.7294,-1.7791,-1.7783,-2.0623,-2.1521,-2.1203,-2.2323,-2.2565,-2.2298,-2.2298,-2.1977,-2.1601,0.0,0.0739,0.0,0.0,0.0,0.0,0.0,0.0,0.0,0.0,0.0,0.0,0.0,0.0,0.0,0.0,0.0,0.0,0.0,0.0,0.0,0.0,-0.2096,-0.371,-0.4682,-0.6889,-0.8524,-0.9612,-0.9673,-0.9741,-0.9822,-0.9822,-0.9822,-0.9822,-0.9822,-0.9774,-0.9573,-0.7823,-0.671,-0.5925,-0.4082,-0.2367,-0.0855,-0.0241,-0.0826,-0.2012,-0.1908,-0.2793,-0.405,-0.4268,0.0,0.0,0.0,0.0,0.0,0.0,0.0,0.0,0.0,0.0,0.0,0.0,0.0,0.0,0.0,0.0,0.0,0.0,0.0,0.0,0.0,0.0,0.0,0.0,-0.8899,-0.9435,-0.9795,-1.0127,-1.0453,-1.0712,-1.1002,-1.1226,-1.1463,-1.1619,-1.1796,-1.2006,-1.2108,-1.225,-1.2461,-1.2474,-1.2583,-1.282,-1.2827,-1.2868,-1.2963,-1.3097,-1.3493,-1.4294,-1.4288,-1.4707,-1.5388,-1.6164,-1.6457,-1.6495,-1.8461,-1.9243,-1.9266,-2.1481,-2.2224,0.0,0.0,0.0,0.0,0.0,-2.2205,-2.1884,0.0,0.0628,0.0084,0.0028,0.0,0.0,0.0,0.0,0.0,0.0,0.0,0.0,0.0,0.0,0.0,0.0,0.0,0.0,0.0,0.0,0.0,0.0,-0.2821,-0.4515,-0.4725,-0.7752,-0.9433,-0.9632,-0.9761,-0.9822,-0.9822,-0.9822,-0.9822,-0.9822,-0.9822,-0.9822,-0.9687,-0.7862,-0.6372,-0.4969,-0.3197,-0.2254,-0.1798,-0.0519,-0.0956,-0.2255,-0.223,-0.3197,-0.4576,-0.523,0.0,0.0,0.0,0.0,0.0,0.0,0.0,0.0,0.0,0.0,0.0,0.0,0.0,0.0,0.0,0.0,0.0,0.0,0.0,0.0,0.0,0.0,0.0,0.0,-0.9578,-1.0032,-1.048,-1.0677,-1.0819,-1.0887,-1.1233,-1.1484,-1.1653,-1.1796,-1.1999,-1.2291,-1.2332,-1.2454,-1.2718,0.0,0.0,0.0,0.0,-1.299,-1.301,-1.3132,-1.4091,-1.568,-1.5852,-1.6781,-1.8396,-2.0075,-2.0966,-2.1204,-2.2892,-2.3748,-2.3931,-2.3904,-2.3991,-2.4102,-2.3541,-2.314,-2.2832,-2.2565,-2.2445,-2.2352,0.0,0.131,0.07,0.0112,0.0,0.0,0.0,0.0,0.0,0.0,0.0,0.0,0.0,0.0,0.0,0.0,0.0,0.0,0.0,0.0,0.0,0.0,-0.1705,-0.3346,-0.485,-0.6629,-0.827,-0.9781,-0.9808,-0.9822,-0.9822,-0.9822,-0.9822,-0.9822,-0.9822,-0.9822,-0.9694,-0.8011,-0.71,-0.6529,-0.4881,-0.2692,-0.039,-0.0109,-0.1596,-0.3748,-0.3653,-0.5255,-0.7445,-0.7443,-0.7224,-0.6906,-0.6847,0.0,0.0,0.0,0.0,0.0,0.0,0.0,0.0,0.0,0.0,0.0,0.0,0.0,0.0,0.0,0.0,0.0,0.0,0.0,0.0,-0.9415,-0.9897,-1.0351,-1.0732,-1.0982,-1.109,-1.1118,-1.1389,-1.1681,-1.1952,-1.2115,-1.2277,-1.2447,-1.2576,-1.2671,-1.2725,-1.2847,-1.2983,-1.3125,-1.3132,-1.3193,-1.3315,-1.3342,-1.3501,-1.3877,0.0,0.0,-1.4327,-1.4693,-1.5638,-1.6984,-1.7325,-1.8362,-1.9854,-2.1468,-2.2777,-2.3821,-2.346,-2.314,-2.2928,-2.2806,-2.2619,-2.2405,0.164,0.1023,0.042,0.0056,0.0,0.0,0.0,0.0,0.0,0.0,0.0,0.0,0.0,0.0,0.0,0.0,0.0,0.0,0.0,0.0,0.0,0.0,-0.1529,-0.3141,-0.486,-0.6469,-0.8098,-0.9822,-0.9822,-0.9822,-0.9822,-0.9822,-0.9822,-0.9822,-0.9822,-0.9822,-0.97,-0.8094,-0.6841,-0.5943,-0.5134,-0.287,-0.0172,-0.1676,-0.306,-0.4293,-0.4998,-0.6552,-0.8306,-0.818,-0.7902,-0.7563,-0.7421,-0.7061,-0.66,0.0,0.0,0.0,0.0,0.0,0.0,0.0,0.0,0.0,0.0,0.0,0.0,0.0,0.0,-0.795,0.0,0.0,-0.9435,-0.9964,-1.0304,-1.0609,-1.084,-1.1138,-1.1274,-1.1274,-1.1545,-1.1816,-1.204,-1.2203,-1.2379,-1.2603,-1.2684,-1.2793,-1.2942,-1.3024,-1.3132,-1.3281,-1.3288,-1.3322,-1.3403,-1.3403,-1.3403,-1.3403,-1.3403,-1.3363,-1.3363,-1.4253,-1.5113,-1.5954,-1.6874,-1.8402,-2.0241,-2.2285,-2.3478,-2.3955,-2.3661,-2.3273,-2.2928,-2.2928,-2.2766,-2.2619,0.1257,0.0504,0.0,0.0,0.0,0.0,0.0,0.0,0.0,0.0,0.0,0.0,0.0,0.0,0.0,0.0,0.0,0.0,0.0,0.0,0.0,0.0,-0.1276,-0.2785,-0.4403,-0.6037,-0.7728,-0.9329,-0.9633,-0.9822,-0.9822,-0.9822,-0.9822,-0.9822,-0.9822,-0.9633,-0.9268,-0.7972,-0.6259,-0.4481,-0.4757,-0.3087,-0.0762,-0.3794,-0.4654,-0.4429,-0.594,-0.7293,-0.832,-0.832,-0.8065,-0.7794,-0.7712,-0.7495,-0.7119,-0.6675,-0.6559,0.0,0.0,0.0,0.0,0.0,0.0,0.0,0.0,0.0,-0.7415,-0.797,-0.8431,-0.8893,-0.9374,-0.9713,-1.0046,-1.0466,-1.0663,-1.0826,-1.0941,-1.124,-1.1402,-1.143,-1.1694,-1.1925,-1.2047,-1.2223,-1.244,-1.2712,-1.2759,-1.2888,-1.3159,-1.32,-1.3275,-1.3397,-1.3403,-1.3403,-1.3403,-1.3403,-1.3403,-1.3403,-1.3403,-1.3403,-1.348,-1.4972,-1.5771,-1.6131,-1.8018,-1.9624,-2.1141,-2.2732,-2.3481,-2.3588,-2.3353,-2.3192,-2.2939,-2.2954,-2.2928,-2.2832,0.0,0.0504,0.0,0.0,0.0,0.0,0.0,0.0,0.0,0.0,0.0,0.0,0.0,0.0,0.0,0.0,0.0,0.0,0.0,0.0,0.0,0.0,-0.0176,-0.1074,-0.276,-0.4361,-0.6018,-0.7667,-0.9079,-0.9822,-0.9822,-0.9822,-0.9822,-0.9822,-0.9822,-0.9019,-0.7667,-0.7484,-0.5586,-0.2885,-0.4166,-0.3584,-0.2283,-0.5314,-0.5635,-0.4672,-0.6018,-0.7293,-0.832,-0.832,-0.8065,-0.7834,-0.7901,-0.7826,-0.7672,-0.7346,0.0,-0.6803,-0.6464,-0.645,-0.6613,-0.716,-0.7303,-0.7482,0.0,0.0,-0.8771,-0.9016,-0.9361,-0.9693,-0.9761,-1.0025,-1.0331,-1.0643,-1.0759,-1.1023,-1.1301,-1.1369,-1.1443,-1.1579,-1.1857,-1.2115,-1.2135,-1.2311,-1.2549,-1.2718,-1.2861,-1.3003,-1.3166,-1.3302,-1.3383,-1.3403,-1.3403,-1.3403,-1.3403,-1.3403,-1.3403,-1.3403,-1.3403,-1.3403,-1.3397,-1.3631,-1.4586,-1.6246,-1.8076,-1.8861,-1.895,-1.9176,-2.0173,-2.1507,-2.1483,-2.2181,-2.3247,-2.2966,-2.2928,-2.2859,0.0,0.0224,0.0,0.0,0.0,0.0,0.0,0.0,0.0,0.0,0.0,0.0,0.0,0.0,0.0,0.0,0.0,0.0,0.0,0.0,0.0,0.0,0.0,-0.0777,-0.246,-0.3139,-0.4303,-0.5953,-0.7606,-0.8404,-0.8404,-0.939,-0.9822,-0.9761,-0.8836,-0.8033,-0.7362,-0.6381,-0.461,-0.2641,-0.4202,-0.3785,-0.2456,-0.469,-0.5605,-0.5772,-0.6384,-0.7247,0.0,0.0,-0.7453,-0.7834,-0.7941,-0.7875,-0.7665,-0.7543,-0.7414,0.0,-0.7373,-0.7509,0.0,0.0,-0.8282,-0.8642,-0.9015,-0.9218,-0.9395,-0.9625,-0.9897,-1.0114,-1.0195,-1.0392,-1.0609,0.0,-1.0975,-1.1145,-1.1362,-1.1389,-1.1416,-1.1477,-1.1674,-1.187,-1.2047,-1.225,-1.2515,-1.284,-1.2922,-1.3064,-1.3295,-1.3363,-1.3403,-1.3403,-1.3403,-1.3403,-1.3403,-1.3403,-1.3403,-1.3403,-1.3403,-1.3403,-1.3403,-1.3403,-1.376,-1.4464,-1.6251,-1.6943,-1.6904,-1.8118,-1.9049,-1.9692,-1.9488,-2.0397,-2.1873,-2.2815,-2.302,-2.2928,0.0,0.0,0.0,0.0,0.0,0.0,0.0,0.0,0.0,0.0,0.0,0.0,0.0,0.0,0.0,0.0,0.0,0.0,0.0,0.0,0.0,0.0,0.0,-0.0594,-0.1774,-0.2273,-0.3077,-0.4242,-0.5892,-0.6686,-0.6747,-0.7917,-0.8471,-0.841,-0.724,-0.6442,-0.5953,-0.4732,-0.3314,-0.1895,-0.3065,-0.3008,-0.231,-0.3533,-0.4785,-0.5869,-0.5975,-0.6629,-0.7315,0.0,-0.6557,-0.7266,-0.7609,-0.7706,-0.7604,-0.7645,-0.7685,-0.7767,-0.7934,0.0,0.0,-0.8648,-0.9089,-0.951,-0.9557,-0.9713,-0.991,-1.0127,-1.0297,-1.0432,-1.0534,-1.0643,0.0,-1.0975,-1.1097,-1.1233,-1.1423,-1.1416,-1.1389,-1.1389,-1.145,-1.1613,-1.1911,-1.2155,-1.2474,-1.2929,-1.2963,-1.3091,-1.3383,-1.3403,-1.3403,-1.3403,-1.3403,-1.3403,-1.3403,-1.3403,-1.3403,-1.3403,-1.3403,-1.3403,-1.3403,-1.3403,-1.3261,-1.309,-1.4426,-1.4945,-1.4855,-1.6321,-1.7208,-1.772,-1.749,-1.8453,-2.007,-2.1339,-2.2262,-2.2928,0.0,0.0,0.0,0.0,0.0,0.0,0.0,0.0,0.0,0.0,0.0,0.0,0.0,0.0,0.0,0.0,0.0,0.0,0.0,0.0,0.0,0.0,0.0,0.0,-0.006,-0.1651,-0.2524,-0.2585,-0.418,-0.4977,-0.4977,-0.5039,-0.5039,-0.5039,-0.4977,-0.4119,-0.2647,-0.2585,-0.1588,-0.006,-0.0119,-0.0981,-0.218,-0.2253,-0.3083,-0.426,-0.426,-0.5028,-0.5982,-0.5549,-0.5555,-0.5824,-0.6808,-0.7366,0.0,-0.7767,-0.7909,0.0,0.0,0.0,-0.8771,-0.9118,-0.9476,-0.9849,-0.993,-1.0256,-1.0466,-1.0473,-1.0602,-1.0711,-1.0711,-1.0717,-1.0819,-1.1111,-1.1227,-1.1267,-1.1572,-1.1484,-1.1389,-1.1389,-1.1267,-1.1294,0.0,-1.2033,-1.2474,-1.2929,-1.2963,-1.3091,-1.3383,-1.3403,-1.3403,-1.3403,-1.3403,-1.3403,-1.3403,-1.3403,-1.3403,-1.3403,-1.3403,-1.3403,-1.3403,-1.3403,-1.3315,-1.3159,-1.3097,-1.2947,-1.279,-1.2718,-1.3791,-1.5616,-1.5608,-1.6571,-1.7968,-1.8041,-2.0119,-2.2928,0.0,0.0,0.0,0.0,0.0,0.0,0.0,0.0,0.0,0.0,0.0,0.0,0.0,0.0,0.0,0.0,0.0,0.0,0.0,0.0,0.0,0.0,0.0,0.0,0.0,-0.0534,-0.0837,-0.0837,-0.2506,-0.3281,-0.3341,-0.4397,-0.4902,-0.4841,-0.3754,-0.303,-0.2423,-0.1321,-0.054,0.0,0.0,-0.0911,-0.2092,-0.113,-0.2198,-0.3974,0.0,-0.2764,-0.4502,-0.4294,-0.478,-0.5678,-0.6768,0.0,0.0,-0.7448,-0.7841,-0.8235,0.0,0.0,-0.9354,-0.9551,-0.9937,-1.0283,-1.0331,-1.05,-1.0616,-1.0514,-1.0534,-1.0541,-1.0446,-1.0507,-1.067,-1.0968,-1.1097,-1.1267,-1.1572,-1.1572,-1.1463,-1.126,-1.1375,0.0,0.0,0.0,0.0,-1.2617,-1.2752,-1.2935,-1.3234,-1.3349,-1.3403,-1.3403,-1.3403,-1.3403,-1.3403,-1.3403,-1.3403,-1.3403,-1.3403,-1.3403,-1.3403,-1.3403,-1.3315,-1.3166,-1.3024,-1.2874,-1.2718,-1.2562,-1.2881,-1.3491,-1.3491,-1.4562,-1.6044,-1.591,-1.7352,-1.9501,0.0,0.0,0.0,0.0,0.0,0.0,0.0,0.0,0.0,0.0,0.0,0.0,0.0,0.0,0.0,0.0,0.0,0.0,0.0,0.0,0.0,0.0,0.0,0.0,0.0,0.0,0.0,0.0,-0.1086,-0.1609,-0.1618,-0.2684,-0.3164,-0.3106,-0.2053,-0.1584,-0.1525,-0.0465,0.0,0.0,0.0,-0.0548,-0.1298,-0.036,-0.112,0.0,-0.0646,-0.1033,-0.2548,-0.3136,-0.3981,0.0,0.0,0.0,-0.7305,-0.7604,-0.8038,-0.852,-0.892,-0.9388,-0.9815,-1.0012,-1.0317,-1.0575,-1.0575,-1.0609,-1.0595,-1.0446,-1.0331,-1.0222,-1.0134,-1.0148,-1.0324,-1.0792,-1.0941,-1.1165,-1.1633,-1.1606,-1.1484,-1.1341,-1.145,0.0,0.0,0.0,0.0,-1.2461,-1.2698,-1.2915,-1.3159,-1.3315,-1.3403,-1.3403,-1.3403,-1.3403,-1.3403,-1.3403,-1.3403,-1.3403,-1.3403,-1.3403,-1.3403,-1.3403,-1.3349,-1.3241,-1.3044,-1.2901,-1.2793,-1.2589,-1.2501,-1.2501,-1.2501,-1.3166,-1.4057,-1.3952,-1.5018,-1.6754,0.0,0.0,0.0,0.0,0.0,0.0,0.0,0.0,0.0,0.0,0.0,0.0,0.0,0.0,0.0,0.0,0.0,0.0,0.0,0.0,0.0,0.0,0.0,0.0,0.0,0.0,0.0,0.0,0.0,0.0,0.0,0.0,0.0,0.0,0.0,0.0,0.0,0.0,0.0,0.0,0.0,0.0,0.0,0.0,0.0,0.0,0.0,0.0,0.0,0.0,0.0,0.0,0.0,0.0,0.0,0.0,0.0,-0.8872,-0.9469,-0.9849,-1.0078,-1.0432,-1.0616,-1.0717,-1.0711,-1.0588,-1.0439,-1.0276,-1.0005,-0.9788,0.0,0.0,-0.9849,-1.0561,-1.0711,-1.0995,-1.1714,-1.1592,-1.1477,0.0,0.0,0.0,0.0,0.0,0.0,-1.2467,0.0,-1.3017,-1.3166,-1.3315,-1.3403,-1.3403,-1.3403,-1.3403,-1.3403,-1.3403,-1.3403,-1.3403,-1.3403,-1.3403,-1.3403,-1.3403,-1.3403,-1.3383,-1.3091,-1.2963,-1.2935,-1.263,-1.2501,-1.2501,-1.2501,-1.242,-1.2284,-1.2128,-1.3148,-1.4775,0.0,0.0,0.0,0.0,0.0,0.0,0.0,0.0,0.0,0.0,0.0,0.0,0.0,0.0,0.0,0.0,0.0,0.0,0.0,0.0,0.0,0.0,0.0,0.0,0.0,0.0,0.0,0.0,0.0,0.0,0.0,0.0,0.0,0.0,0.0,0.0,0.0,0.0,0.0,0.0,0.0,0.0,0.0,0.0,0.0,0.0,0.0,0.0,0.0,0.0,0.0,0.0,0.0,0.0,-0.8035,0.0,0.0,-0.932,-0.9802,-1.0154,-1.0426,-1.0616,-1.069,-1.069,-1.0575,-1.0439,-1.0229,-0.9856,-0.9625,-0.9395,0.0,0.0,0.0,-1.0019,-1.0616,0.0,-1.1613,-1.1796,0.0,0.0,0.0,-1.1986,-1.1796,-1.202,0.0,0.0,-1.2678,-1.2901,-1.3159,-1.3315,-1.3403,-1.3403,-1.3403,-1.3403,-1.3403,-1.3403,-1.3403,-1.3403,-1.3403,-1.3403,-1.3403,-1.3403,-1.3403,-1.3383,-1.3091,-1.2963,-1.2935,-1.263,-1.2501,-1.2501,-1.2501,-1.2481,-1.2427,-1.2284,-1.2503,-1.2786,0.0,0.0,0.0,0.0,0.0,0.0,0.0,0.0,0.0,0.0,0.0,0.0,0.0,0.0,0.0,0.0,0.0,0.0,0.0,0.0,0.0,0.0,0.0,0.0,0.0,0.0,0.0,0.0,0.0,0.0,0.0,0.0,0.0,0.0,0.0,0.0,0.0,0.0,0.0,0.0,0.0,0.0,0.0,0.0,0.0,0.0,0.0,0.0,0.0,0.0,0.0,-0.7726,-0.8092,-0.8357,-0.8635,-0.9171,0.0,-0.9761,-1.0141,-1.0412,-1.0616,-1.0697,-1.067,-1.0561,-1.0344,-1.0134,-0.9842,-0.932,-0.9042,0.0,0.0,0.0,0.0,0.0,0.0,0.0,-1.1633,-1.1857,-1.1979,0.0,-1.2244,0.0,-1.2142,-1.2406,-1.2644,0.0,-1.282,-1.2935,-1.3159,-1.3315,-1.3403,-1.3403,-1.3403,-1.3403,-1.3403,-1.3403,-1.3403,-1.3403,-1.3403,-1.3403,-1.3403,-1.3403,-1.3403,-1.3383,0.0,-1.2963,-1.2935,-1.263,-1.2501,-1.2501,-1.2501,-1.2501,-1.2481,-1.2345,-1.2196,-1.204,0.0,0.0,0.0,0.0,0.0,0.0,0.0,0.0,0.0,0.0,0.0,0.0,0.0,0.0,0.0,0.0,0.0,0.0,0.0,0.0,0.0,0.0,0.0,0.0,0.0,0.0,0.0,0.0,0.0,0.0,0.0,0.0,0.0,0.0,0.0,0.0,0.0,0.0,0.0,0.0,0.0,0.0,0.0,0.0,0.0,0.0,0.0,0.0,0.0,0.0,-0.6119,-0.8184,-0.8689,-0.9035,-0.9354,-0.9781,-1.0005,-1.0105,-1.0446,-1.0616,-1.0717,-1.0717,-1.0588,-1.0385,-1.0024,-0.9747,-0.9327,-0.8743,0.0,0.0,-0.7977,0.0,-0.8716,-0.9435,0.0,-1.0778,-1.1674,-1.1816,-1.1952,-1.2277,-1.2447,-1.2528,-1.2528,-1.2793,-1.3097,-1.3159,-1.3057,-1.3051,-1.3193,-1.3329,-1.3403,-1.3403,-1.3403,-1.3403,-1.3403,-1.3403,-1.3403,-1.3403,-1.3403,-1.3403,-1.3403,-1.3403,-1.3403,-1.3383,-1.3091,-1.2963,-1.2935,-1.263,-1.2501,-1.2501,-1.2501,-1.2501,-1.2488,-1.2366,-1.221,-1.2115,0.0,0.0,0.0,0.0,0.0,0.0,0.0,0.0,0.0,0.0,0.0,0.0,0.0,0.0,0.0,0.0,0.0,0.0,0.0,0.0,0.0,0.0,0.0,0.0,0.0,0.0,0.0,0.0,0.0,0.0,0.0,0.0,0.0,0.0,0.0,0.0,0.0,0.0,0.0,0.0,0.0,0.0,0.0,0.0,0.0,0.0,0.0,0.0,0.0,0.0,-0.6384,-0.8804,-0.9313,-0.9659,-0.9958,-1.0283,-1.0392,-1.0453,-1.0629,-1.0697,-1.0717,-1.0717,-1.0514,-1.0236,-0.993,-0.9347,0.0,0.0,0.0,-0.7672,-0.7516,-0.8031,0.0,-0.9207,0.0,0.0,0.0,0.0,-1.1986,0.0,0.0,0.0,0.0,0.0,0.0,0.0,0.0,-1.32,-1.3356,-1.339,-1.3403,-1.3403,-1.3403,-1.3403,-1.3403,-1.3403,-1.3403,-1.3403,-1.3403,-1.3403,-1.3403,-1.3403,-1.3403,-1.3383,-1.3091,0.0,-1.2935,-1.263,-1.2501,-1.2501,-1.2501,-1.2501,-1.2501,-1.2474,-1.2291,-1.2135,0.0,0.0,0.0,0.0,0.0,0.0,0.0,0.0,0.0,0.0,0.0,0.0,0.0,0.0,0.0,0.0,0.0,0.0,0.0,0.0,0.0,0.0,0.0,0.0,0.0,0.0,0.0,0.0,0.0,0.0,0.0,0.0,0.0,0.0,0.0,0.0,0.0,0.0,0.0,0.0,0.0,0.0,0.0,0.0,0.0,0.0,0.0,0.0,0.0,0.0,-0.5806,-0.798,-0.9182,-0.9808,-1.0044,-1.0405,-1.0493,-1.0527,-1.0677,-1.0717,-1.0717,-1.0717,-1.0378,-0.9944,-0.9557,0.0,0.0,0.0,0.0,-0.7312,-0.717,0.0,0.0,0.0,0.0,0.0,0.0,0.0,0.0,0.0,0.0,0.0,0.0,0.0,0.0,0.0,0.0,-1.3322,-1.3397,-1.3403,-1.3403,-1.3403,-1.3403,-1.3403,-1.3403,-1.3403,-1.3403,-1.3403,-1.3403,-1.3403,-1.3403,-1.3403,-1.3403,-1.3383,-1.3091,0.0,-1.2935,-1.263,-1.2501,-1.2501,-1.2501,-1.2501,-1.2501,-1.2501,-1.2318,-1.2135,0.0,0.0,0.0,0.0,0.0,0.0,0.0,0.0,0.0,0.0,0.0,0.0,0.0,0.0,0.0,0.0,0.0,0.0,0.0,0.0,0.0,0.0,0.0,0.0,0.0,0.0,0.0,0.0,0.0,0.0,0.0,0.0,0.0,0.0,0.0,0.0,0.0,0.0,0.0,0.0,0.0,0.0,0.0,0.0,0.0,0.0,0.0,0.0,0.0,0.0,-0.4913,-0.675,-0.8106,-0.9174,-0.999,-1.0317,-1.0439,-1.0527,-1.0677,-1.0717,-1.0717,-1.0717,-1.0243,-0.9666,-0.9303,-0.8499,0.0,0.0,0.0,-0.6943,-0.6896,0.0,0.0,0.0,0.0,0.0,0.0,0.0,0.0,0.0,0.0,0.0,0.0,0.0,0.0,0.0,0.0,0.0,-1.3403,-1.3403,-1.3403,-1.3403,-1.3403,-1.3403,-1.3403,-1.3403,-1.3403,-1.3403,-1.3403,-1.3403,-1.3403,-1.3403,-1.3403,-1.3383,-1.3091,0.0,0.0,-1.263,-1.2501,-1.2501,-1.2501,-1.2501,-1.2501,-1.2501,-1.2318,-1.2135,0.0,0.0,0.0,0.0,0.0,0.0,0.0,0.0,0.0,0.0,0.0,0.0,0.0,0.0,0.0,0.0,0.0,0.0,0.0,0.0,0.0,0.0,0.0,0.0,0.0,0.0,0.0,0.0,0.0,0.0,0.0,0.0,0.0,0.0,0.0,0.0,0.0,0.0,0.0,0.0,0.0,0.0,0.0,0.0,0.0,0.0,0.0,0.0,0.0,0.0,0.0,-0.579,-0.5326,-0.7277,-0.9876,-0.9977,0.0,0.0,-1.0677,-1.0717,-1.0717,-1.0717,-1.0168,-0.9544,-0.9282,0.0,0.0,0.0,-0.6729,-0.6614,-0.6836,-0.7045,0.0,0.0,0.0,0.0,0.0,0.0,0.0,0.0,0.0,0.0,0.0,0.0,0.0,0.0,0.0,0.0,-1.3403,-1.3403,-1.3403,-1.3403,-1.3403,-1.3403,-1.3403,-1.3403,-1.3403,-1.3403,-1.3403,-1.3403,-1.3403,-1.3403,-1.3403,-1.3383,-1.3091,0.0,0.0,-1.263,-1.2501,-1.2501,-1.2501,-1.2501,-1.2501,-1.2501,-1.2318,-1.2135,0.0,0.0,0.0,0.0,0.0,0.0,0.0,0.0,0.0,0.0,0.0,0.0,0.0,0.0,0.0,0.0,0.0,0.0,0.0,0.0,0.0,0.0,0.0,0.0,0.0,0.0,0.0,0.0,0.0,0.0,0.0,0.0,0.0,0.0,0.0,0.0,0.0,0.0,0.0,0.0,0.0,0.0,0.0,0.0,0.0,0.0,0.0,0.0,0.0,0.0,0.0,0.0,-0.3934,-0.5205,0.0,0.0,-0.9303,-1.0161,-1.0493,-1.0649,-1.0717,-1.0717,-1.0093,-0.9395,-0.9096,0.0,0.0,-0.6851,-0.6695,-0.6647,-0.677,-0.7061,-0.7428,-0.7875,-0.8126,-0.856,0.0,0.0,0.0,0.0,0.0,0.0,0.0,0.0,0.0,0.0,0.0,0.0,-1.3403,-1.3403,-1.3403,-1.3403,-1.3403,-1.3403,-1.3403,-1.3403,-1.3403,-1.3403,-1.3403,-1.3403,-1.3403,-1.3403,-1.3349,-1.3254,-1.3051,0.0,0.0,-1.2589,-1.2501,-1.2501,-1.2501,-1.2501,-1.2501,-1.2501,-1.2318,-1.2135,0.0,0.0,0.0,0.0,0.0,0.0,0.0,0.0,0.0,0.0,0.0,0.0,0.0,0.0,0.0,0.0,0.0,0.0,0.0,0.0,0.0,0.0,0.0,0.0,0.0,0.0,0.0,0.0,0.0,0.0,0.0,0.0,0.0,0.0,0.0,0.0,0.0,0.0,0.0,0.0,0.0,0.0,0.0,0.0,0.0,0.0,0.0,0.0,0.0,0.0,0.0,0.0,0.0,0.0,0.0,0.0,-0.8219,-0.9361,-1.024,-1.0541,-1.0656,-1.0656,-1.0012,-0.9293,0.0,0.0,-0.7122,-0.6831,-0.6729,-0.6715,-0.6763,-0.7027,-0.7319,-0.7563,-0.7753,-0.814,-0.8893,0.0,0.0,0.0,0.0,0.0,0.0,0.0,0.0,0.0,0.0,0.0,0.0,-1.3403,-1.3403,-1.3403,-1.3403,-1.3403,-1.3403,-1.3403,-1.3403,-1.3403,-1.3403,-1.3403,-1.3403,-1.3403,-1.3315,-1.3166,-1.3024,0.0,0.0,-1.2562,-1.2501,-1.2501,-1.2501,-1.2501,-1.2501,-1.2501,-1.2318,-1.2135,0.0,0.0,0.0,0.0,0.0,0.0,0.0,0.0,0.0,0.0,0.0,0.0,0.0,0.0,0.0,0.0,0.0,0.0,0.0,0.0,0.0,0.0,0.0,0.0,0.0,0.0,0.0,0.0,0.0,0.0,0.0,0.0,0.0,0.0,0.0,0.0,0.0,0.0,0.0,0.0,0.0,0.0,0.0,0.0,0.0,0.0,0.0,0.0,0.0,0.0,0.0,0.0,0.0,0.0,0.0,0.0,-0.725,-0.7999,-0.984,-1.0385,-1.0493,-1.0493,-0.993,-0.9266,0.0,-0.8018,-0.7285,-0.6987,-0.6803,-0.6749,-0.6856,-0.6889,-0.7082,-0.7529,-0.7848,-0.8296,-0.9098,0.0,0.0,0.0,0.0,0.0,0.0,0.0,0.0,0.0,0.0,0.0,0.0,-1.3403,-1.3403,-1.3403,-1.3403,-1.3403,-1.3403,-1.3403,-1.3403,-1.3403,-1.3403,-1.3403,-1.3403,-1.3403,-1.3315,0.0,0.0,0.0,0.0,-1.2562,-1.2501,-1.2501,-1.2501,-1.2501,-1.2501,-1.2501,-1.2318,-1.2135,0.0,0.0,0.0,0.0,0.0,0.0,0.0,0.0,0.0,0.0,0.0,0.0,0.0,0.0,0.0,0.0,0.0,0.0,0.0,0.0,0.0,0.0,0.0,0.0,0.0,0.0,0.0,0.0,0.0,0.0,0.0,0.0,0.0,0.0,0.0,0.0,0.0,0.0,0.0,0.0,0.0,0.0,0.0,0.0,0.0,0.0,0.0,0.0,0.0,0.0,0.0,0.0,0.0,0.0,0.0,-0.3186,0.0,0.0,-0.8922,-0.9544,-0.9707,-0.9664,-0.9245,-0.8832,-0.8486,-0.7875,-0.7285,-0.695,-0.6849,-0.6871,-0.6876,-0.6964,-0.7247,-0.795,-0.8133,0.0,0.0,0.0,0.0,0.0,0.0,0.0,0.0,0.0,0.0,0.0,0.0,0.0,0.0,-1.3403,-1.3403,-1.3403,-1.3403,-1.3403,-1.3403,-1.3403,-1.3403,-1.3403,-1.3403,-1.3403,-1.3397,-1.3295,-1.3166,0.0,0.0,0.0,0.0,-1.2522,-1.2501,-1.2501,-1.2501,-1.2501,-1.2501,-1.2501,-1.2318,-1.2135,0.0,0.0,0.0,0.0,0.0,0.0,0.0,0.0,0.0,0.0,0.0,0.0,0.0,0.0,0.0,0.0,0.0,0.0,0.0,0.0,0.0,0.0,0.0,0.0,0.0,0.0,0.0,0.0,0.0,0.0,0.0,0.0,0.0,0.0,0.0,0.0,0.0,0.0,0.0,0.0,0.0,0.0,0.0,0.0,0.0,0.0,0.0,0.0,0.0,0.0,0.0,0.0,0.0,0.0,0.0,0.0,-0.3462,0.0,0.0,-0.8693,-0.9205,-0.9221,-0.8886,-0.8547,-0.8248,-0.7719,-0.7231,-0.7004,-0.6923,-0.6903,-0.6957,-0.7038,-0.7287,-0.7923,-0.8065,0.0,0.0,0.0,0.0,0.0,0.0,0.0,0.0,0.0,0.0,0.0,0.0,0.0,0.0,-1.3403,-1.3403,-1.3403,-1.3403,-1.3403,-1.3403,-1.3403,-1.3403,-1.3403,-1.3403,-1.337,-1.3308,-1.3214,-1.3064,0.0,0.0,0.0,0.0,-1.2501,-1.2501,-1.2501,-1.2501,-1.2501,-1.2494,-1.244,-1.2271,-1.2054,0.0,0.0,0.0,0.0,0.0,0.0,0.0,0.0,0.0,0.0,0.0,0.0,0.0,0.0,0.0,0.0,0.0,0.0,0.0,0.0,0.0,0.0,0.0,0.0,0.0,0.0,0.0,0.0,0.0,0.0,0.0,0.0,0.0,0.0,0.0,0.0,0.0,0.0,0.0,0.0,0.0,0.0,0.0,0.0,0.0,0.0,0.0,0.0,0.0,0.0,0.0,0.0,0.0,0.0,0.0,0.0,0.0,0.0,0.0,0.0,0.0,0.0,-0.8763,-0.8343,-0.7995,-0.7496,0.0,-0.7071,-0.697,-0.693,-0.7085,-0.7112,-0.7227,-0.7624,-0.7801,0.0,0.0,0.0,0.0,0.0,0.0,0.0,0.0,0.0,0.0,0.0,0.0,0.0,0.0,-1.3397,-1.3403,-1.3403,-1.3403,-1.3403,-1.3403,-1.3403,-1.3403,-1.3403,-1.339,-1.3308,-1.3173,-1.3152,-1.299,0.0,0.0,0.0,0.0,-1.2501,-1.2501,-1.2501,-1.2501,-1.2494,-1.2467,-1.2338,-1.2189,-1.2026,0.0,0.0,0.0,0.0,0.0,0.0,0.0,0.0,0.0,0.0,0.0,0.0,0.0,0.0,0.0,0.0,0.0,0.0,0.0,0.0,0.0,0.0,0.0,0.0,0.0,0.0,0.0,0.0,0.0,0.0,0.0,0.0,0.0,0.0,0.0,0.0,0.0,0.0,0.0,0.0,0.0,0.0,0.0,0.0,0.0,0.0,0.0,0.0,0.0,0.0,0.0,0.0,0.0,0.0,0.0,0.0,-0.1109,-0.2051,-0.2928,0.0,-0.6697,-0.7395,-0.7712,-0.7726,0.0,-0.72,-0.7031,-0.6851,0.0,0.0,-0.7272,-0.7319,-0.7563,0.0,0.0,0.0,0.0,0.0,0.0,0.0,0.0,0.0,0.0,0.0,0.0,0.0,0.0,0.0,0.0,-1.3336,-1.3403,-1.3403,-1.3403,-1.3403,-1.3403,-1.3403,-1.3403,-1.3397,-1.3281,-1.3207,-1.3166,-1.2935,-1.2793,0.0,0.0,0.0,-1.2501,-1.2501,-1.2501,-1.2501,-1.2501,-1.2433,-1.2338,-1.2305,-1.2121,-1.1877,0.0,0.0,0.0,0.0,0.0,0.0,0.0,0.0,0.0,0.0,0.0,0.0,0.0,0.0,0.0,0.0,0.0,0.0,0.0,0.0,0.0,0.0,0.0,0.0,0.0,0.0,0.0,0.0,0.0,0.0,0.0,0.0,0.0,0.0,0.0,0.0,0.0,0.0,0.0,0.0,0.0,0.0,0.0,0.0,0.0,0.0,0.0,0.0,0.0,0.0,0.0,0.0,0.0,0.0,0.0,0.0,-0.048,-0.1084,-0.1646,-0.3754,-0.5933,-0.6475,-0.7098,-0.7409,-0.6688,0.0,0.0,0.0,0.0,0.0,0.0,0.0,0.0,0.0,0.0,0.0,0.0,0.0,0.0,0.0,0.0,0.0,0.0,0.0,0.0,0.0,0.0,0.0,0.0,-1.3152,-1.32,-1.32,-1.32,-1.3227,-1.3295,-1.3295,-1.3261,-1.32,-1.3112,-1.3037,-1.2963,-1.28,-1.2691,0.0,0.0,0.0,-1.2501,-1.2501,-1.2501,-1.2494,-1.2427,-1.2359,-1.2271,-1.2128,-1.1972,-1.1823,0.0,0.0,0.0,0.0,0.0,0.0,0.0,0.0,0.0,0.0,0.0,0.0,0.0,0.0,0.0,0.0,0.0,0.0,0.0,0.0,0.0,0.0,0.0,0.0,0.0,0.0,0.0,0.0,0.0,0.0,0.0,0.0,0.0,0.0,0.0,0.0,0.0,0.0,0.0,0.0,0.0,0.0,0.0,0.0,0.0,0.0,0.0,0.0,0.0,0.0,0.0,0.0,0.0,0.0,0.0,0.0,0.0,0.0,-0.1113,-0.3425,-0.5629,-0.583,-0.6596,-0.702,-0.5998,0.0,0.0,0.0,0.0,0.0,0.0,0.0,0.0,0.0,0.0,0.0,0.0,0.0,0.0,0.0,0.0,0.0,0.0,0.0,0.0,0.0,0.0,0.0,0.0,-1.2949,-1.2963,-1.2963,-1.2963,-1.301,-1.3105,-1.3125,-1.3078,-1.2963,-1.2935,-1.2854,-1.2732,-1.2705,-1.2623,-1.2501,0.0,0.0,-1.2501,-1.2501,-1.2488,-1.2461,-1.2338,-1.2264,-1.2189,-1.1925,-1.1816,-1.1782,0.0,0.0,0.0,0.0,0.0,0.0,0.0,0.0,0.0,0.0,0.0,0.0,0.0,0.0,0.0,0.0,0.0,0.0,0.0,0.0,0.0,0.0,0.0,0.0,0.0,0.0,0.0,0.0,0.0,0.0,0.0,0.0,0.0,0.0,0.0,0.0,0.0,0.0,0.0,0.0,0.0,0.0,0.0,0.0,0.0,0.0,0.0,0.0,0.0,0.0,0.0,0.0,0.0,0.0,0.0,0.0,0.0,0.0,-0.0211,-0.2308,-0.4617,-0.5308,-0.5708,-0.5805,-0.5527,0.0,0.0,0.0,0.0,0.0,0.0,0.0,0.0,0.0,0.0,0.0,0.0,0.0,0.0,0.0,0.0,0.0,0.0,0.0,0.0,0.0,0.0,0.0,0.0,-1.2888,-1.2963,-1.2963,-1.2963,-1.2908,-1.28,-1.2929,-1.2983,-1.3043,-1.2827,-1.2752,-1.2725,-1.2596,-1.2522,-1.2501,0.0,-1.2501,-1.2501,-1.2501,-1.2433,-1.2318,-1.2298,-1.2128,-1.1898,-1.185,-1.1755,-1.1647,0.0,0.0,0.0,0.0,0.0,0.0,0.0,0.0,0.0,0.0,0.0,0.0,0.0,0.0,0.0,0.0,0.0,0.0,0.0,0.0,0.0,0.0,0.0,0.0,0.0,0.0,0.0,0.0,0.0,0.0,0.0,0.0,0.0,0.0,0.0,0.0,0.0,0.0,0.0,0.0,0.0,0.0,0.0,0.0,0.0,0.0,0.0,0.0,0.0,0.0,0.0,0.0,0.0,0.0,0.0,0.0,0.0,0.0,0.0,-0.1987,-0.4205,-0.4621,-0.5905,-0.6874,-0.6069,-0.6379,0.0,0.0,0.0,0.0,0.0,0.0,0.0,0.0,0.0,0.0,0.0,0.0,0.0,0.0,0.0,0.0,0.0,0.0,0.0,0.0,0.0,0.0,0.0,0.0,-1.2712,-1.2712,-1.2712,-1.2678,-1.261,-1.2678,-1.2712,-1.2712,-1.2644,-1.261,-1.2603,-1.2535,-1.2501,-1.2501,0.0,-1.2461,-1.2386,-1.2386,-1.2298,-1.2155,-1.2074,-1.1959,-1.1823,-1.1742,-1.1674,-1.1619,0.0,0.0,0.0,0.0,0.0,0.0,0.0,0.0,0.0,0.0,0.0,0.0,0.0,0.0,0.0,0.0,0.0,0.0,0.0,0.0,0.0,0.0,0.0,0.0,0.0,0.0,0.0,0.0,0.0,0.0,0.0,0.0,0.0,0.0,0.0,0.0,0.0,0.0,0.0,0.0,0.0,0.0,0.0,0.0,0.0,0.0,0.0,0.0,0.0,0.0,0.0,0.0,0.0,0.0,0.0,0.0,0.0,0.0,0.0,-0.1745,-0.3595,-0.3644,0.0,-0.7139,-0.6594,-0.6833,0.0,0.0,0.0,0.0,0.0,0.0,0.0,0.0,0.0,0.0,0.0,0.0,0.0,0.0,0.0,0.0,0.0,0.0,0.0,0.0,0.0,0.0,0.0,-1.2501,-1.2501,-1.2501,-1.2501,-1.2501,-1.2501,-1.2501,-1.2501,-1.2501,-1.2501,-1.2501,-1.2501,-1.2501,-1.2501,-1.2501,-1.2467,-1.2393,-1.2284,-1.225,-1.2149,-1.1993,-1.1877,-1.1809,-1.1769,-1.166,-1.1619,-1.1619,0.0,0.0,0.0,0.0,0.0,0.0,0.0,0.0,0.0,0.0,0.0,0.0,0.0,0.0,0.0,0.0,0.0,0.0,0.0,0.0,0.0,0.0,0.0,0.0,0.0,0.0,0.0,0.0,0.0,0.0,0.0,0.0,0.0,0.0,0.0,0.0,0.0,0.0,0.0,0.0,0.0,0.0,0.0,0.0,0.0,0.0,0.0,0.0,0.0,0.0,0.0,0.0,0.0,0.0,0.0,0.0,0.0,0.0,0.0,-0.116,-0.2305,-0.221,-0.3226,-0.4759,-0.6443,-0.585,0.0,-0.5398,0.0,0.0,0.0,0.0,0.0,0.0,0.0,0.0,0.0,0.0,0.0,0.0,0.0,0.0,0.0,0.0,0.0,0.0,0.0,0.0,-1.2501,-1.2501,-1.2501,-1.2501,-1.2501,-1.2501,-1.2501,-1.2501,-1.2501,-1.2501,-1.2501,-1.2501,-1.2501,-1.2501,-1.2501,-1.2494,-1.2366,-1.2298,-1.2277,-1.2135,-1.1986,-1.1843,-1.1837,-1.1748,-1.1633,-1.1619,-1.1619,-1.1619,0.0,0.0,0.0,0.0,0.0,0.0,0.0,0.0,0.0,0.0,0.0,0.0,0.0,0.0,0.0,0.0,0.0,0.0,0.0,0.0,0.0,0.0,0.0,0.0,0.0,0.0,0.0,0.0,0.0,0.0,0.0,0.0,0.0,0.0,0.0,0.0,0.0,0.0,0.0,0.0,0.0,0.0,0.0,0.0,0.0,0.0,0.0,0.0,0.0,0.0,0.0,0.0,0.0,0.0,0.0,0.0,0.0,0.0,0.0,-0.102,-0.2095,-0.2099,-0.2463,0.0,0.0,-0.6553,-0.657,-0.7898,-0.8885,0.0,0.0,0.0,0.0,0.0,0.0,0.0,0.0,0.0,0.0,0.0,0.0,0.0,0.0,0.0,0.0,0.0,0.0,0.0,0.0,-1.2501,-1.2501,-1.2501,-1.2501,-1.2501,-1.2501,-1.2501,-1.2461,-1.2372,-1.2461,-1.2501,-1.2501,-1.2413,-1.2372,-1.2366,-1.221,-1.2094,-1.1999,-1.1945,-1.183,-1.1701,-1.1701,-1.1667,-1.1619,-1.1619,-1.1619,-1.1619,0.0,0.0,0.0,0.0,0.0,0.0,0.0,0.0,0.0,0.0,0.0,0.0,0.0,0.0,0.0,0.0,0.0,0.0,0.0,0.0,0.0,0.0,0.0,0.0,0.0,0.0,0.0,0.0,0.0,0.0,0.0,0.0,0.0,0.0,0.0,0.0,0.0,0.0,0.0,0.0,0.0,0.0,0.0,0.0,0.0,0.0,0.0,0.0,0.0,0.0,0.0,0.0,0.0,0.0,0.0,0.0,0.0,0.0,0.0,-0.0665,-0.1414,-0.1505,0.0,0.0,-0.5777,-0.6484,-0.722,-0.9585,-1.0032,0.0,0.0,0.0,0.0,0.0,0.0,0.0,0.0,0.0,0.0,0.0,0.0,0.0,0.0,0.0,0.0,0.0,0.0,0.0,0.0,-1.2366,-1.2366,-1.2366,-1.2366,-1.2366,-1.2366,-1.2366,-1.2311,-1.2223,-1.2318,-1.2366,-1.2359,-1.2264,-1.2216,-1.221,-1.2054,-1.1932,-1.183,-1.1782,-1.1708,-1.1619,-1.1619,-1.1619,-1.1619,-1.1619,-1.1619,-1.1619,0.0,0.0,0.0,0.0,0.0,0.0,0.0,0.0,0.0,0.0,0.0,0.0,0.0,0.0,0.0,0.0,0.0,0.0,0.0,0.0,0.0,0.0,0.0,0.0,0.0,0.0,0.0,0.0,0.0,0.0,0.0,0.0,0.0,0.0,0.0,0.0,0.0,0.0,0.0,0.0,0.0,0.0,0.0,0.0,0.0,0.0,0.0,0.0,0.0,0.0,0.0,0.0,0.0,0.0,0.0,0.0,0.0,0.0,0.0,0.0,0.0,0.0,0.0,0.0,-0.4968,-0.5407,-0.6434,-0.9933,0.0,0.0,0.0,0.0,0.0,0.0,0.0,0.0,0.0,0.0,0.0,0.0,0.0,0.0,0.0,0.0,0.0,0.0,0.0,0.0,0.0,-1.2135,-1.2135,-1.2135,-1.2135,-1.2135,-1.2135,-1.2135,-1.2135,-1.2135,-1.2135,-1.2135,-1.2135,-1.2135,-1.2135,-1.2128,-1.1898,-1.183,-1.1816,-1.1681,-1.1619,-1.1619,-1.1619,-1.1619,-1.1619,-1.1619,-1.1619,-1.1619,0.0,0.0,0.0,0.0,0.0,0.0,0.0,0.0,0.0,0.0,0.0,0.0,0.0,0.0,0.0,0.0,0.0,0.0,0.0,0.0,0.0,0.0,0.0,0.0,0.0,0.0,0.0,0.0,0.0,0.0,0.0,0.0,0.0,0.0,0.0,0.0,0.0,0.0,0.0,0.0,0.0,0.0,0.0,0.0,0.0,0.0,0.0,0.0,0.0,0.0,0.0,0.0,0.0,0.0,0.0,0.0,0.0,0.0,0.0,0.0,0.0,0.0,0.0,0.0,0.0,-0.539,0.0,0.0,0.0,0.0,0.0,0.0,0.0,0.0,0.0,0.0,0.0,0.0,0.0,0.0,0.0,0.0,0.0,0.0,0.0,0.0,0.0,0.0,0.0,-1.2135,-1.2135,-1.2135,-1.2135,-1.2135,-1.2135,-1.2135,-1.2006,-1.1898,-1.1898,-1.1959,-1.2135,-1.1952,-1.1898,-1.1891,-1.1742,-1.1681,-1.1681,-1.164,-1.1619,-1.1619,-1.1619,-1.1619,-1.1619,-1.1619,-1.1619,-1.1619,0.0,0.0,0.0,0.0,0.0,0.0,0.0,0.0,0.0,0.0,0.0,0.0,0.0,0.0,0.0,0.0,0.0,0.0,0.0,0.0,0.0,0.0,0.0,0.0,0.0,0.0,0.0,0.0,0.0,0.0,0.0,0.0,0.0,0.0,0.0,0.0,0.0,0.0,0.0,0.0,0.0,0.0,0.0,0.0,0.0,0.0,0.0,0.0,0.0,0.0,0.0,0.0,0.0,0.0,0.0,0.0,0.0,0.0,0.0,0.0,0.0,0.0,0.0,0.0,0.0,0.0,0.0,0.0,0.0,0.0,0.0,0.0,0.0,0.0,0.0,0.0,0.0,0.0,0.0,0.0,0.0,0.0,0.0,0.0,0.0,0.0,0.0,0.0,0.0,-1.1884,-1.1884,-1.1884,-1.1884,-1.1884,-1.1884,-1.1884,-1.1837,-1.1748,-1.1748,-1.1796,-1.1884,-1.1789,-1.1748,-1.1742,-1.1653,-1.1619,-1.1619,-1.1619,-1.1619,-1.1619,-1.1619,-1.1619,-1.1619,-1.1619,-1.1579,-1.1531,0.0,0.0,0.0,0.0,0.0,0.0,0.0,0.0,0.0,0.0,0.0,0.0,0.0,0.0,0.0,0.0,0.0,0.0,0.0,0.0,0.0,0.0,0.0,0.0,0.0,0.0,0.0,0.0,0.0,0.0,0.0,0.0,0.0,0.0,0.0,0.0,0.0,0.0,0.0,0.0,0.0,0.0,0.0,0.0,0.0,0.0,0.0,0.0,0.0,0.0,0.0,0.0,0.0,0.0,0.0,0.0,0.0,0.0,0.0,0.0,0.0,0.0,0.0,0.0,0.0,0.0,0.0,0.0,0.0,0.0,0.0,0.0,0.0,0.0,0.0,0.0,0.0,0.0,0.0,0.0,0.0,0.0,0.0,0.0,0.0,0.0,0.0,0.0,0.0,-1.1619,-1.1619,-1.1619,-1.1619,-1.1619,-1.1619,-1.1619,-1.1619,-1.1619,-1.1619,-1.1619,-1.1619,-1.1619,-1.1619,-1.1619,-1.1619,-1.1619,-1.1619,-1.1619,-1.1619,-1.1619,-1.1619,-1.1613,-1.1599,-1.1599,-1.1504,-1.1369,0.0,0.0,0.0,0.0,0.0,0.0,0.0,0.0,0.0,0.0,0.0,0.0,0.0,0.0,0.0,0.0,0.0,0.0,0.0,0.0,0.0,0.0,0.0,0.0,0.0,0.0,0.0,0.0,0.0,0.0,0.0,0.0,0.0,0.0,0.0,0.0,0.0,0.0,0.0,0.0,0.0,0.0,0.0,0.0,0.0,0.0,0.0,0.0,0.0,0.0,0.0,0.0,0.0,0.0,0.0,0.0,0.0,0.0,0.0,0.0,0.0,0.0,0.0,0.0,0.0,0.0,0.0,0.0,0.0,0.0,0.0,0.0,0.0,0.0,0.0,0.0,0.0,0.0,0.0,0.0,0.0,0.0,0.0,0.0,0.0,0.0,0.0,0.0,-1.1619,-1.1619,-1.1619,-1.1619,-1.1619,-1.1619,-1.1619,-1.1619,-1.1619,0.0,-1.1619,-1.1619,-1.1619,-1.1619,-1.1619,-1.1619,-1.1619,-1.1619,-1.1619,-1.1619,-1.1619,-1.1619,-1.1619,-1.1545,-1.1443,-1.1443,-1.1341,-1.1212,0.0,0.0,0.0,0.0,0.0,0.0,0.0,0.0,0.0,0.0,0.0,0.0,0.0,0.0,0.0,0.0,0.0,0.0,0.0,0.0,0.0,0.0,0.0,0.0,0.0,0.0,0.0,0.0,0.0,0.0,0.0,0.0,0.0,0.0,0.0,0.0,0.0,0.0,0.0,0.0,0.0,0.0,0.0,0.0,0.0,0.0,0.0,0.0,0.0,0.0,0.0,0.0,0.0,0.0,0.0,0.0,0.0,0.0,0.0,0.0,0.0,0.0,0.0,0.0,0.0,0.0,0.0,0.0,0.0,0.0,0.0,0.0,0.0,0.0,0.0,0.0,0.0,0.0,0.0,0.0,0.0,0.0,0.0,0.0,0.0,0.0,0.0,-1.1619,-1.1619,-1.1619,-1.1619,-1.1619,-1.1619,-1.1619,-1.1619,-1.1619,-1.1619,-1.1619,-1.1619,-1.1619,-1.1619,-1.1619,-1.1619,-1.1619,-1.1619,-1.1619,-1.1613,-1.1538,-1.1511,-1.1504,-1.143,-1.1355,-1.128,-1.128,-1.1185,-1.1063,0.0,0.0,0.0,0.0,0.0,0.0,0.0,0.0,0.0,0.0,0.0,0.0,0.0,0.0,0.0,0.0,0.0,0.0,0.0,0.0,0.0,0.0,0.0,0.0,0.0,0.0,0.0,0.0,0.0,0.0,0.0,0.0,0.0,0.0,0.0,0.0,0.0,0.0,0.0,0.0,0.0,0.0,0.0,0.0,0.0,0.0,0.0,0.0,0.0,0.0,0.0,0.0,0.0,0.0,0.0,0.0,0.0,0.0,0.0,0.0,0.0,0.0,0.0,0.0,0.0,0.0,0.0,0.0,0.0,0.0,0.0,0.0,0.0,0.0,0.0,0.0,0.0,0.0,0.0,0.0,0.0,0.0,0.0,0.0,0.0,0.0,0.0,-1.1538,-1.1538,-1.1538,-1.1538,-1.1538,-1.1538,-1.1538,-1.1538,-1.1538,-1.1538,-1.1538,-1.1538,-1.1538,-1.1538,-1.1538,-1.1552,-1.1579,-1.1579,-1.1565,-1.1531,-1.1402,-1.1355,-1.1341,-1.1212,-1.1151,-1.1124,-1.1124,-1.1036,-1.084,0.0,0.0,0.0,0.0,0.0,0.0,0.0,0.0,0.0,0.0,0.0,0.0,0.0,0.0,0.0,0.0,0.0,0.0,0.0,0.0,0.0,0.0,0.0,0.0,0.0,0.0,0.0,0.0,0.0,0.0,0.0,0.0,0.0,0.0,0.0,0.0,0.0,0.0,0.0,0.0,0.0,0.0,0.0,0.0,0.0,0.0,0.0,0.0,0.0,0.0,0.0,0.0,0.0,0.0,0.0,0.0,0.0,0.0,0.0,0.0,0.0,0.0,0.0,0.0,0.0,0.0,0.0,0.0,0.0,0.0,0.0,0.0,0.0,0.0,0.0,0.0,0.0,0.0,0.0,0.0,0.0,0.0,0.0,0.0,0.0,0.0,-1.1226,-1.1226,-1.1226,-1.1226,-1.1226,-1.1226,-1.1226,-1.1226,-1.1226,-1.1226,-1.1226,-1.1226,-1.1226,-1.1226,-1.1226,-1.1226,-1.1294,-1.1423,-1.1423,-1.1348,-1.1219,-1.1199,-1.1261,-1.1192,-1.1241,-1.1084,-1.0907,-1.0907,-1.088,-1.0751,0.0,0.0,0.0,0.0,0.0,0.0,0.0,0.0,0.0,0.0,0.0,0.0,0.0,0.0,0.0,0.0,0.0,0.0,0.0,0.0,0.0,0.0,0.0,0.0,0.0,0.0,0.0,0.0,0.0,0.0,0.0,0.0,0.0,0.0,0.0,0.0,0.0,0.0,0.0,0.0,0.0,0.0,0.0,0.0,0.0,0.0,0.0,0.0,0.0,0.0,0.0,0.0,0.0,0.0,0.0,0.0,0.0,0.0,0.0,0.0,0.0,0.0,0.0,0.0,0.0,0.0,0.0,0.0,0.0,0.0,0.0,0.0,0.0,0.0,0.0,0.0,0.0,0.0,0.0,0.0,0.0,0.0,0.0,0.0,0.0,0.0,-1.1234,-1.1234,-1.1234,-1.1234,-1.1234,-1.1234,-1.1234,-1.1234,-1.1234,-1.1234,-1.1234,-1.1234,-1.1234,-1.1234,-1.1234,-1.1234,-1.1199,-1.126,-1.126,-1.1226,-1.1158,-1.1077,-1.1043,-1.1036,-1.0948,-1.0873,-1.0819,-1.0819,-1.0778,-1.0717,0.0,0.0,0.0,0.0,0.0,0.0,0.0,0.0,0.0,0.0,0.0,0.0,0.0,0.0,0.0,0.0,0.0,0.0,0.0,0.0,0.0,0.0,0.0,0.0,0.0,0.0,0.0,0.0,0.0,0.0,0.0,0.0,0.0,0.0,0.0,0.0,0.0,0.0,0.0,0.0,0.0,0.0,0.0,0.0,0.0,0.0,0.0,0.0,0.0,0.0,0.0,0.0,0.0,0.0,0.0,0.0,0.0,0.0,0.0,0.0,0.0,0.0,0.0,0.0,0.0,0.0,0.0,0.0,0.0,0.0,0.0,0.0,0.0,0.0,0.0,0.0,0.0,0.0,0.0,0.0,0.0,0.0,0.0,0.0,0.0,0.0,-1.105,-1.105,-1.105,-1.105,-1.105,-1.105,-1.105,-1.105,-1.105,-1.105,-1.105,-1.105,-1.105,-1.105,-1.105,-1.105,-1.105,-1.105,-1.109,-1.1084,-1.1043,-1.0934,-1.0826,-1.0813,-1.0765,-1.0717,-1.0717,-1.0717,-1.0717,-1.0717,0.0,0.0,0.0,0.0,0.0,0.0,0.0,0.0,0.0,0.0,0.0,0.0,0.0,0.0,0.0,0.0,0.0,0.0,0.0,0.0,0.0,0.0,0.0,0.0,0.0,0.0,0.0,0.0,0.0,0.0,0.0,0.0,0.0,0.0,0.0,0.0,0.0,0.0,0.0,0.0,0.0,0.0,0.0,0.0,0.0,0.0,0.0,0.0,0.0,0.0,0.0,0.0,0.0,0.0,0.0,0.0,0.0,0.0,0.0,0.0,0.0,0.0,0.0,0.0,0.0,0.0,0.0,0.0,0.0,0.0,0.0,0.0,0.0,0.0,0.0,0.0,0.0,0.0,0.0,0.0,0.0,0.0,0.0,0.0,0.0,0.0,-1.0744,-1.0744,-1.0744,-1.0744,-1.0744,-1.0744,-1.0744,-1.0744,-1.0744,-1.0744,-1.0744,-1.0744,-1.0744,-1.0744,-1.0744,-1.0744,-1.0744,-1.0751,-1.0826,-1.0806,-1.0744,-1.0731,-1.0731,-1.0731,-1.0724,-1.0717,-1.0717,-1.0717,-1.0717,-1.0717,0.0,0.0,0.0,0.0,0.0,0.0,0.0,0.0,0.0,0.0,0.0,0.0,0.0,0.0,0.0,0.0,0.0,0.0,0.0,0.0,0.0,0.0,0.0,0.0,0.0,0.0,0.0,0.0,0.0,0.0,0.0,0.0,0.0,0.0,0.0,0.0,0.0,0.0,0.0,0.0,0.0,0.0,0.0,0.0,0.0,0.0,0.0,0.0,0.0,0.0,0.0,0.0,0.0,0.0,0.0,0.0,0.0,0.0,0.0,0.0,0.0,0.0,0.0,0.0,0.0,0.0,0.0,0.0,0.0,0.0,0.0,0.0,0.0,0.0,0.0,0.0,0.0,0.0,0.0,0.0,0.0,0.0,0.0,0.0,0.0,0.0,0.0,-0.951,-1.0651,-1.0717,-1.0717,-1.0717,-1.0717,-1.0717,-1.0717,-1.0717,-1.0717,-1.0717,-1.0717,-1.0717,-1.0717,-1.0717,-1.0717,-1.0724,-1.0778,-1.0772,-1.0717,-1.0717,-1.0717,-1.0717,-1.0717,-1.0717,-1.0717,-1.0717,-1.0717,-1.0717,0.0,0.0,0.0,0.0,0.0,0.0,0.0,0.0,0.0,0.0,0.0,0.0,0.0,0.0,0.0,0.0,0.0,0.0,0.0,0.0,0.0,0.0,0.0,0.0,0.0,0.0,0.0,0.0,0.0,0.0,0.0,0.0,0.0,0.0,0.0,0.0,0.0,0.0,0.0,0.0,0.0,0.0,0.0,0.0,0.0,0.0,0.0,0.0,0.0,0.0,0.0,0.0,0.0,0.0,0.0,0.0,0.0,0.0,0.0,0.0,0.0,0.0,0.0,0.0,0.0,0.0,0.0,0.0,0.0,0.0,0.0,0.0,0.0,0.0,0.0,0.0,0.0,0.0,0.0,0.0,0.0,0.0,0.0,0.0,0.0,0.0,0.0,0.0,-0.8839,-0.951,-1.0047,-1.0651,-1.0717,-1.0717,-1.0717,-1.0717,-1.0717,-1.0717,-1.0717,-1.0717,-1.0717,-1.0717,-1.0717,-1.0717,-1.0717,-1.0717,-1.0717,-1.0717,-1.0717,-1.0717,-1.0717,-1.0717,-1.0717,-1.0717,-1.0717,-1.0717,0.0,0.0,0.0,0.0,0.0,0.0,0.0,0.0,0.0,0.0,0.0,0.0,0.0,0.0,0.0,0.0,0.0,0.0,0.0,0.0,0.0,0.0,0.0,0.0,0.0,0.0,0.0,0.0,0.0,0.0,0.0,0.0,0.0,0.0,0.0,0.0,0.0,0.0,0.0,0.0,0.0,0.0,0.0,0.0,0.0,0.0,0.0,0.0,0.0,0.0,0.0,0.0,0.0,0.0,0.0,0.0,0.0,0.0,0.0,0.0,0.0,0.0,0.0,0.0,0.0,0.0,0.0,0.0,0.0,0.0,0.0,0.0,0.0,0.0,0.0,0.0,0.0,0.0,0.0,0.0,0.0,0.0,0.0,0.0,0.0,0.0,-0.5295,-0.5362,-0.5429,-0.7031,-0.8701,-1.0518,-1.0518,-1.0518,-1.0518,-1.0518,-1.0518,-1.0518,-1.0518,-1.0518,-1.0518,-1.0518,-1.0518,-1.0518,-1.0518,-1.0518,-1.0518,-1.0651,-1.0717,-1.0717,-1.0717,-1.0717,-1.0717,-1.0717,-1.0651,-1.0651,0.0,0.0,0.0,0.0,0.0,0.0,0.0,0.0,0.0,0.0,0.0,0.0,0.0,0.0,0.0,0.0,0.0,0.0,0.0,0.0,0.0,0.0,0.0,0.0,0.0,0.0,0.0,0.0,0.0,0.0,0.0,0.0,0.0,0.0,0.0,0.0,0.0,0.0,0.0,0.0,0.0,0.0,0.0,0.0,0.0,0.0,0.0,0.0,0.0,0.0,0.0,0.0,0.0,0.0,0.0,0.0,0.0,0.0,0.0,0.0,0.0,0.0,0.0,0.0,0.0,0.0,0.0,0.0,0.0,0.0,0.0,0.0,0.0,0.0,0.0,0.0,0.0,0.0,0.0,0.0,0.0,0.0,0.0,0.0,0.0,0.0,-0.3421,-0.4024,-0.5295,-0.583,-0.6364,-0.6831,-0.6836,-0.6836,-0.6836,-0.6836,-0.6836,-0.6836,-0.6836,-0.6836,-0.6836,-0.6836,-0.6836,-0.6836,-0.6836,-0.6836,-0.7036,-0.9643,-1.0717,-1.0717,-1.0717,-1.0717,-1.0717,-1.0717,-0.9842,-0.8767,0.0,0.0,0.0,0.0,0.0,0.0,0.0,0.0,0.0,0.0,0.0,0.0,0.0,0.0,0.0,0.0,0.0,0.0,0.0,0.0,0.0,0.0,0.0,0.0,0.0,0.0,0.0,0.0,0.0,0.0,0.0,0.0,0.0,0.0,0.0,0.0,0.0,0.0,0.0,0.0,0.0,0.0,0.0,0.0,0.0,0.0,0.0,0.0,0.0,0.0,0.0,0.0,0.0,0.0,0.0,0.0,0.0,0.0,0.0,0.0,0.0,0.0,0.0,0.0,0.0,0.0,0.0,0.0,0.0,0.0,0.0,0.0,0.0,0.0,0.0,0.0,0.0,0.0,0.0,0.0,0.0,0.0,0.0,0.0,-0.0471,-0.1478,-0.1545,-0.235,-0.4158,-0.4292,-0.4626,-0.5362,-0.5429,-0.5429,-0.5429,-0.5429,-0.5429,-0.5429,-0.5429,-0.5429,-0.5429,-0.5429,-0.5429,-0.5429,-0.5429,-0.5429,-0.5563,-0.7636,-0.8507,-0.8507,-0.8507,-0.8507,-0.8507,-0.8507,-0.7836,-0.6898,0.0,0.0,0.0,0.0,0.0,0.0,0.0,0.0,0.0,0.0,0.0,0.0,0.0,0.0,0.0,0.0,0.0,0.0,0.0,0.0,0.0,0.0,0.0,0.0,0.0,0.0,0.0,0.0,0.0,0.0,0.0,0.0,0.0,0.0,0.0,0.0,0.0,0.0,0.0,0.0,0.0,0.0,0.0,0.0,0.0,0.0,0.0,0.0,0.0,0.0,0.0,0.0,0.0,0.0,0.0,0.0,0.0,0.0,0.0,0.0,0.0,0.0,0.0,0.0,0.0,0.0,0.0,0.0,0.0,0.0,0.0,0.0,0.0,0.0,0.0,0.0,0.0,0.0,0.0,0.0,0.0,0.0,0.0,0.0,0.0,0.0,0.0,-0.0672,-0.2283,-0.2417,-0.3155,-0.476,-0.4827,-0.4827,-0.4827,-0.4827,-0.4827,-0.4827,-0.4827,-0.4827,-0.4827,-0.4827,-0.4827,-0.4827,-0.4827,-0.4827,-0.4827,-0.4827,-0.5028,-0.5429,-0.5429,-0.5429,-0.5429,-0.5429,-0.5295,-0.5095,0.0,0.0,0.0,0.0,0.0,0.0,0.0,0.0,0.0,0.0,0.0,0.0,0.0,0.0,0.0,0.0,0.0,0.0,0.0,0.0,0.0,0.0,0.0,0.0,0.0,0.0,0.0,0.0,0.0,0.0,0.0,0.0,0.0,0.0,0.0,0.0,0.0,0.0,0.0,0.0,0.0,0.0,0.0,0.0,0.0,0.0,0.0,0.0,0.0,0.0,0.0,0.0,0.0,0.0,0.0,0.0,0.0,0.0,0.0,0.0,0.0,0.0,0.0,0.0,0.0,0.0,0.0,0.0,0.0,0.0,0.0,0.0,0.0,0.0,0.0,0.0,0.0,0.0,0.0,0.0,0.0,0.0,0.0,0.0,0.0,0.0,0.0,-0.0135,-0.0538,-0.0538,-0.0672,-0.1076,-0.1076,-0.1076,-0.1076,-0.1076,-0.1076,-0.1076,-0.1076,-0.1076,-0.1076,-0.1076,-0.1076,-0.1076,-0.1076,-0.1076,-0.1076,-0.1076,-0.2752,-0.5429,-0.5429,-0.5429,-0.5429,-0.5429,-0.4492,-0.3222,0.0,0.0,0.0,0.0,0.0,0.0,0.0,0.0,0.0,0.0,0.0,0.0,0.0,0.0,0.0,0.0,0.0,0.0,0.0,0.0,0.0,0.0,0.0,0.0,0.0,0.0,0.0,0.0,0.0,0.0,0.0,0.0,0.0,0.0,0.0,0.0,0.0,0.0,0.0,0.0,0.0,0.0,0.0,0.0,0.0,0.0,0.0,0.0,0.0,0.0,0.0,0.0,0.0,0.0,0.0,0.0,0.0,0.0,0.0,0.0,0.0,0.0,0.0,0.0,0.0,0.0,0.0,0.0,0.0,0.0,0.0,0.0,0.0,0.0,0.0,0.0,0.0,0.0,0.0,0.0,0.0,0.0,0.0,0.0,0.0,0.0,0.0,0.0,0.0,0.0,0.0,0.0,0.0,0.0,0.0,0.0,0.0,0.0,0.0,0.0,0.0,0.0,0.0,0.0,0.0,0.0,0.0,0.0,-0.1076,-0.2685,-0.2685,-0.2685,-0.2685,-0.2685,-0.2148,-0.1344,0.0,0.0,0.0,0.0,0.0,0.0,0.0,0.0,0.0,0.0,0.0,0.0,0.0,0.0,0.0,0.0,0.0,0.0,0.0,0.0,0.0,0.0,0.0,0.0,0.0,0.0,0.0,0.0,0.0,0.0,0.0,0.0,0.0,0.0,0.0,0.0,0.0,0.0,0.0,0.0,0.0,0.0,0.0,0.0,0.0,0.0,0.0,0.0,0.0,0.0,0.0,0.0,0.0,0.0,0.0,0.0,0.0,0.0,0.0,0.0,0.0,0.0,0.0,0.0,0.0,0.0,0.0,0.0,0.0,0.0,0.0,0.0,0.0,0.0,0.0,0.0,0.0,0.0,0.0,0.0,0.0,0.0,0.0,0.0,0.0,0.0,0.0,0.0,0.0,0.0,0.0,0.0,0.0,0.0,0.0,0.0,0.0,0.0,0.0,0.0,0.0,0.0,0.0,0.0,0.0,0.0,0.0,0.0,0.0,0.0,0.0,0.0,0.0,0.0,0.0,0.0,0.0,0.0,0.0,0.0,0.0,0.0,0.0,0.0,0.0,0.0,0.0,0.0,0.0,0.0,0.0,0.0,0.0,0.0,0.0,0.0,0.0,0.0,0.0,0.0,0.0,0.0,0.0,0.0,0.0,0.0,0.0,0.0,0.0,0.0,0.0,0.0,0.0,0.0,0.0,0.0,0.0,0.0,0.0,0.0,0.0,0.0,0.0,0.0,0.0,0.0,0.0,0.0,0.0,0.0,0.0,0.0,0.0,0.0,0.0,0.0,0.0,0.0,0.0,0.0,0.0,0.0,0.0,0.0,0.0,0.0,0.0,0.0,0.0,0.0,0.0,0.0,0.0,0.0,0.0,0.0,0.0,0.0,0.0,0.0,0.0,0.0,0.0,0.0,0.0,0.0,0.0,0.0,0.0,0.0,0.0,0.0,0.0,0.0,0.0,0.0,0.0,0.0,0.0,0.0,0.0,0.0,0.0,0.0,0.0,0.0,0.0,0.0,0.0,0.0,0.0,0.0,0.0,0.0,0.0,0.0,0.0,0.0,0.0,0.0,0.0,0.0,0.0,0.0,0.0,0.0,0.0,0.0,0.0,0.0,0.0,0.0,0.0,0.0,0.0,0.0,0.0,0.0,0.0,0.0,0.0,0.0,0.0,0.0,0.0,0.0,0.0,0.0,0.0,0.0,0.0,0.0,0.0,0.0,0.0,0.0,0.0,0.0,0.0,0.0,0.0,0.0,0.0,0.0,0.0,0.0,0.0,0.0,0.0,0.0,0.0,0.0,0.0,0.0,0.0,0.0,0.0,0.0,0.0,0.0,0.0,0.0,0.0,0.0,0.0,0.0,0.0,0.0,0.0,0.0,0.0,0.0,0.0,0.0,0.0,0.0,0.0,0.0,0.0,0.0,0.0,0.0,0.0,0.0,0.0,0.0,0.0,0.0,0.0,0.0,0.0,0.0,0.0,0.0,0.0,0.0,0.0,0.0,0.0,0.0,0.0,0.0,0.0,0.0,0.0,0.0,0.0,0.0,0.0,0.0,0.0,0.0,0.0,0.0,0.0,0.0,0.0,0.0,0.0,0.0,0.0,0.0,0.0,0.0,0.0,0.0,0.0,0.0,0.0,0.0,0.0,0.0,0.0,0.0,0.0,0.0,0.0,0.0,0.0,0.0,0.0,0.0,0.0,0.0,0.0,0.0,0.0,0.0,0.0,0.0,0.0,0.0,0.0,0.0,0.0,0.0,0.0,0.0,0.0,0.0,0.0,0.0,0.0,0.0,0.0,0.0,0.0,0.0,0.0,0.0,0.0,0.0,0.0,0.0,0.0,0.0,0.0,0.0,0.0,0.0,0.0,0.0,0.0,0.0,0.0,0.0,0.0,0.0,0.0,0.0,0.0,0.0,0.0,0.0,0.0,0.0,0.0,0.0,0.0,0.0,0.0,0.0,0.0,0.0,0.0,0.0,0.0,0.0,0.0,0.0,0.0,0.0,0.0,0.0,0.0,0.0,0.0,0.0,0.0,0.0,0.0,0.0,0.0,0.0,0.0,0.0,0.0,0.0,0.0,0.0,0.0,0.0,0.0,0.0,0.0,0.0,0.0,0.0,0.0,0.0,0.0,0.0,0.0,0.0,0.0,0.0,0.0,0.0,0.0,0.0,0.0,0.0,0.0,0.0,0.0,0.0,0.0,0.0,0.0,0.0,0.0,0.0,0.0,0.0,0.0,0.0,0.0,0.0,0.0,0.0,0.0,0.0,0.0,0.0,0.0,0.0,0.0,0.0,0.0,0.0,0.0,0.0,0.0,0.0,0.0,0.0,0.0,0.0,0.0,0.0,0.0,0.0,0.0,0.0,0.0,0.0,0.0,0.0,0.0,0.0,0.0,0.0,0.0,0.0,0.0,0.0,0.0,0.0,0.0,0.0,0.0,0.0,0.0,0.0,0.0,0.0,0.0,0.0,0.0,0.0,0.0,0.0,0.0,0.0,0.0,0.0,0.0,0.0,0.0,0.0,0.0,0.0,0.0,0.0,0.0,0.0,0.0,0.0,0.0,0.0,0.0,0.0,0.0,0.0,0.0,0.0,0.0,0.0,0.0,0.0,0.0,0.0,0.0,0.0,0.0,0.0,0.0,0.0,0.0,0.0,0.0,0.0,0.0,0.0,0.0,0.0,0.0,0.0,0.0,0.0,0.0,0.0,0.0,0.0,0.0,0.0,0.0,0.0,0.0,0.0,0.0,0.0,0.0,0.0,0.0,0.0,0.0,0.0,0.0,0.0,0.0,0.0,0.0,0.0,0.0,0.0,0.0,0.0,0.0,0.0,0.0,0.0,0.0,0.0,0.0,0.0,0.0,0.0,0.0,0.0,0.0,0.0,0.0,0.0,0.0,0.0,0.0,0.0,0.0,0.0,0.0,0.0,0.0,0.0,0.0,0.0,0.0,0.0,0.0,0.0,0.0,0.0,0.0,0.0,0.0,0.0,0.0,0.0,0.0,0.0,0.0,0.0,0.0,0.0,0.0,0.0,0.0,0.0,0.0,0.0,0.0,0.0,0.0,0.0,0.0,0.0,0.0,0.0,0.0,0.0,0.0,0.0,0.0,0.0,0.0,0.0,0.0,0.0,0.0,0.0,0.0,0.0,0.0,0.0,0.0,0.0,0.0,0.0,0.0,0.0,0.0,0.0,0.0,0.0,0.0,0.0,0.0,0.0,0.0,0.0,0.0,0.0,0.0,0.0,0.0,0.0,0.0,0.0,0.0,0.0,0.0,0.0,0.0,0.0,0.0,0.0,0.0,0.0,0.0,0.0,0.0,0.0,0.0,0.0,0.0,0.0,0.0,0.0,0.0,0.0,0.0,0.0,0.0,0.0,0.0,0.0,0.0,0.0,0.0,0.0,0.0,0.0,0.0,0.0,0.0,0.0,0.0,0.0,0.0,0.0,0.0,0.0,0.0,0.0,0.0,0.0,0.0,0.0,0.0,0.0,0.0,0.0,0.0,0.0,0.0,0.0,0.0,0.0,0.0,0.0,0.0,0.0,0.0,0.0,0.0,0.0,0.0,0.0,0.0,0.0,0.0,0.0,0.0,0.0,0.0,0.0,0.0,0.0,0.0,0.0,0.0,0.0,0.0,0.0,0.0,0.0,0.0,0.0,0.0,0.0,0.0,0.0,0.0,0.0,0.0,0.0,0.0,0.0,0.0,0.0,0.0,0.0,0.0,0.0,0.0,0.0,0.0,0.0,0.0,0.0,0.0,0.0,0.0,0.0,0.0,0.0,0.0,0.0,0.0,0.0,0.0,0.0,0.0,0.0,0.0,0.0,0.0,0.0,0.0,0.0,0.0,0.0,0.0,0.0,0.0,0.0,0.0,0.0,0.0,0.0,0.0,0.0,0.0,0.0,0.0,0.0,0.0,0.0,0.0,0.0,0.0,0.0,0.0,0.0,0.0,0.0,0.0,0.0,0.0,0.0,0.0,0.0,0.0,0.0,0.0,0.0,0.0,0.0,0.0,0.0,0.0,0.0,0.0,0.0,0.0,0.0,0.0,0.0,0.0,0.0,0.0,0.0,0.0,0.0,0.0,0.0,0.0,0.0,0.0,0.0,0.0,0.0,0.0,0.0,0.0,0.0,0.0,0.0,0.0,0.0,0.0,0.0,0.0,0.0,0.0,0.0,0.0,0.0,0.0,0.0,0.0,0.0,0.0,0.0,0.0,0.0,0.0,0.0,0.0,0.0,0.0,0.0,0.0,0.0,0.0,0.0,0.0,0.0,0.0,0.0,0.0,0.0,0.0,0.0,0.0,0.0,0.0,0.0,0.0,0.0,0.0,0.0,0.0,0.0,0.0,0.0,0.0,0.0,0.0,0.0,0.0,0.0,0.0,0.0,0.0,0.0,0.0,0.0,0.0,0.0,0.0,0.0,0.0,0.0,0.0,0.0,0.0,0.0,0.0,0.0,0.0,0.0,0.0,0.0,0.0,0.0,0.0,0.0,0.0,0.0,0.0,0.0,0.0,0.0,0.0,0.0,0.0,0.0,0.0,0.0,0.0,0.0,0.0,0.0,0.0,0.0,0.0,0.0,0.0,0.0,0.0,0.0,0.0,0.0,0.0,0.0,0.0,0.0,0.0,0.0,0.0,0.0,0.0,0.0,0.0,0.0,0.0,0.0,0.0,0.0,0.0,0.0,0.0,0.0,0.0,0.0,0.0,0.0,0.0,0.0,0.0,0.0,0.0,0.0,0.0,0.0,0.0,0.0,0.0,0.0,0.0,0.0,0.0,0.0,0.0,0.0,0.0,0.0,0.0,0.0,0.0,0.0,0.0,0.0,0.0,0.0,0.0,0.0,0.0,0.0,0.0,0.0,0.0,0.0,0.0,0.0,0.0,0.0,0.0,0.0,0.0,0.0,0.0,0.0,0.0,0.0,0.0,0.0,0.0,0.0,0.0,0.0,0.0,0.0,0.0,0.0,0.0,0.0,0.0,0.0,0.0,0.0,0.0,0.0,0.0,0.0,0.0,0.0,0.0,0.0,0.0,0.0,0.0,0.0,0.0,0.0,0.0,0.0,0.0,0.0,0.0,0.0,0.0,0.0,0.0,0.0,0.0,0.0,0.0,0.0,0.0,0.0,0.0,0.0,0.0,0.0,0.0,0.0,0.0,0.0,0.0,0.0,0.0,0.0,0.0,0.0,0.0,0.0,0.0,0.0,0.0,0.0,0.0,0.0,0.0,0.0,0.0,0.0,0.0,0.0,0.0,0.0,0.0,0.0,0.0,0.0,0.0,0.0,0.0,0.0,0.0,0.0,0.0,0.0,0.0,0.0,0.0,0.0,0.0,0.0,0.0,0.0,0.0,0.0,0.0,0.0,0.0,0.0,0.0,0.0,0.0,0.0,0.0,0.0,0.0,0.0,0.0,0.0,0.0,0.0,0.0,0.0,0.0,0.0,0.0,0.0,0.0,0.0,0.0,0.0,0.0,0.0,0.0,0.0,0.0,0.0,0.0,0.0,0.0,0.0,0.0,0.0,0.0,0.0,0.0,0.0,0.0,0.0,0.0,0.0,0.0,0.0,0.0,0.0,0.0,0.0,0.0,0.0,0.0,0.0,0.0,0.0,0.0,0.0,0.0,0.0,0.0,0.0,0.0,0.0,0.0,0.0,0.0,0.0,0.0,0.0,0.0,0.0,0.0,0.0,0.0,0.0,0.0,0.0,0.0,0.0,0.0,0.0,0.0,0.0,0.0,0.0,0.0,0.0,0.0,0.0,0.0,0.0,0.0,0.0,0.0,0.0,0.0,0.0,0.0,0.0,0.0,0.0,0.0,0.0,0.0,0.0,0.0,0.0,0.0,0.0,0.0,0.0,0.0,0.0,0.0,0.0,0.0,0.0,0.0,0.0,0.0,0.0,0.0,0.0,0.0,0.0,0.0,0.0,0.0,0.0,0.0,0.0,0.0,0.0,0.0,0.0,0.0,0.0,0.0,0.0,0.0,0.0,0.0,0.0,0.0,0.0,0.0,0.0,0.0,0.0,0.0,0.0,0.0,0.0,0.0,0.0,0.0,0.0,0.0,0.0,0.0,0.0,0.0,0.0,0.0,0.0,0.0,0.0,0.0,0.0,0.0,0.0,0.0,0.0,0.0,0.0,0.0,0.0,0.0,0.0,0.0,0.0,0.0,0.0,0.0,0.0,0.0,0.0,0.0,0.0,0.0,0.0,0.0,0.0,0.0,0.0,0.0,0.0,0.0,0.0,0.0,0.0,0.0,0.0,0.0,0.0,0.0,0.0,0.0,0.0,0.0,0.0,0.0,0.0,0.0,0.0,0.0,0.0,0.0,0.0,0.0,0.0,0.0,0.0,0.0,0.0,0.0,0.0,0.0,0.0,0.0,0.0,0.0,0.0,0.0,0.0,0.0,0.0,0.0,0.0,0.0,0.0,0.0,0.0,0.0,0.0,0.0,0.0,0.0,0.0,0.0,0.0,0.0,0.0,0.0,0.0,0.0,0.0,0.0,0.0,0.0,0.0,0.0,0.0,0.0,0.0,0.0,0.0,0.0,0.0,0.0,0.0,0.0,0.0,0.0,0.0,0.0,0.0,0.0,0.0,0.0,0.0,0.0,0.0,0.0,0.0,0.0,0.0,0.0,0.0,0.0,0.0,0.0,0.0,0.0,0.0,0.0,0.0,0.0,0.0,0.0,0.0,0.0,0.0,0.0,0.0,0.0,0.0,0.0,0.0,0.0,0.0,0.0,0.0,0.0,0.0,0.0,0.0,0.0,0.0,0.0,0.0,0.0,0.0,0.0,0.0,0.0,0.0,0.0,0.0,0.0,0.0,0.0,0.0,0.0,0.0,0.0,0.0,0.0,0.0,0.0,0.0,0.0,0.0,0.0,0.0,0.0,0.0,0.0,0.0,0.0,0.0,0.0,0.0,0.0,0.0,0.0,0.0,0.0,0.0,0.0,0.0,0.0,0.0,0.0,0.0,0.0,0.0,0.0,0.0,0.0,0.0,0.0,0.0,0.0,0.0,0.0,0.0,0.0,0.0,0.0,0.0,0.0,0.0,0.0,0.0,0.0,0.0,0.0,0.0,0.0,0.0,0.0,0.0,0.0,0.0,0.0,0.0,0.0,0.0,0.0,0.0,0.0,0.0,0.0,0.0,0.0,0.0,0.0,0.0,0.0,0.0,0.0,0.0,0.0,0.0,0.0,0.0,0.0,0.0,0.0,0.0,0.0,0.0,0.0,0.0,0.0,0.0,0.0,0.0,0.0,0.0,0.0,0.0,0.0,0.0,0.0,0.0,0.0,0.0,0.0,0.0,0.0,0.0,0.0,0.0,0.0,0.0,0.0,0.0,0.0,0.0,0.0,0.0,0.0,0.0,0.0,0.0,0.0,0.0,0.0,0.0,0.0,0.0,0.0,0.0,0.0,0.0,0.0,0.0,0.0,0.0,0.0,0.0,0.0,0.0,0.0,0.0,0.0,0.0,0.0,0.0,0.0,0.0,0.0,0.0,0.0,0.0,0.0,0.0,0.0,0.0,0.0,0.0,0.0,0.0,0.0,0.0,0.0,0.0,0.0,0.0,0.0,0.0,0.0,0.0,0.0,0.0,0.0,0.0,0.0,0.0,0.0,0.0,0.0,0.0,0.0,0.0,0.0,0.0,0.0,0.0,0.0,0.0,0.0,0.0,0.0,0.0,0.0,0.0,0.0,0.0,0.0,0.0,0.0,0.0,0.0,0.0,0.0,0.0,0.0,0.0,0.0,0.0,0.0,0.0,0.0,0.0,0.0,0.0,0.0,0.0,0.0,0.0,0.0,0.0,0.0,0.0,0.0,0.0,0.0,0.0,0.0,0.0,0.0,0.0,0.0,0.0,0.0,0.0,0.0,0.0,0.0,0.0,0.0,0.0,0.0,0.0,0.0,0.0,0.0,0.0,0.0,0.0,0.0,0.0,0.0,0.0,0.0,0.0,0.0,0.0,0.0,0.0,0.0,0.0,0.0,0.0,0.0,0.0,0.0,0.0,0.0,0.0,0.0,0.0,0.0,0.0,0.0,0.0,0.0,0.0,0.0,0.0,0.0,0.0,0.0,0.0,0.0,0.0,0.0,0.0,0.0,0.0,0.0,0.0,0.0,0.0,0.0,0.0,0.0,0.0,0.0,0.0,0.0,0.0,0.0,0.0,0.0,0.0,0.0,0.0,0.0,0.0,0.0,0.0,0.0,0.0,0.0,0.0,0.0,0.0,0.0,0.0,0.0,0.0,0.0,0.0,0.0,0.0,0.0,0.0,0.0,0.0,0.0,0.0,0.0,0.0,0.0,0.0,0.0,0.0,0.0,0.0,0.0,0.0,0.0,0.0,0.0,0.0,0.0,0.0,0.0,0.0,0.0,0.0,0.0,0.0,0.0,0.0,0.0,0.0,0.0,0.0,0.0,0.0,0.0,0.0,0.0,0.0,0.0,0.0,0.0,0.0,0.0,0.0,0.0,0.0,0.0,0.0,0.0,0.0,0.0,0.0,0.0,0.0,0.0,0.0,0.0,0.0,0.0,0.0,0.0,0.0,0.0,0.0,0.0,0.0,0.0,0.0,0.0,0.0,0.0,0.0,0.0,0.0,0.0,0.0,0.0,0.0,0.0,0.0,0.0,0.0,0.0,0.0,0.0,0.0,0.0,0.0,0.0,0.0,0.0,0.0,0.0,0.0,0.0,0.0,0.0,0.0,0.0,0.0,0.0,0.0,0.0,0.0,0.0,0.0,0.0,0.0,0.0,0.0,0.0,0.0,0.0,0.0,0.0,0.0,0.0,0.0,0.0,0.0,0.0,0.0,0.0,0.0,0.0,0.0,0.0,0.0,0.0,0.0,0.0,0.0,0.0,0.0,0.0,0.0,0.0,0.0,0.0,0.0,0.0,0.0,0.0,0.0,0.0,0.0,0.0,0.0,0.0,0.0,0.0,0.0,0.0,0.0,0.0,0.0,0.0,0.0,0.0,0.0,0.0,0.0,0.0,0.0,0.0,0.0,0.0,0.0,0.0,0.0,0.0,0.0,0.0,0.0,0.0,0.0,0.0,0.0,0.0,0.0,0.0,0.0,0.0,0.0,0.0,0.0,0.0,0.0,0.0,0.0,0.0,0.0,0.0,0.0,0.0,0.0,0.0,0.0,0.0,0.0,0.0,0.0,0.0,0.0,0.0,0.0,0.0,0.0,0.0,0.0,0.0,0.0,0.0,0.0,0.0,0.0,0.0,0.0,0.0,0.0,0.0,0.0,0.0,0.0,0.0,0.0,0.0,0.0,0.0,0.0,0.0,0.0,0.0,0.0,0.0,0.0,0.0,0.0,0.0,0.0,0.0,0.0,0.0,0.0,0.0,0.0,0.0,0.0,0.0,0.0,0.0,0.0,0.0,0.0,0.0,0.0,0.0,0.0,0.0,0.0,0.0,0.0,0.0,0.0,0.0,0.0,0.0,0.0,0.0,0.0,0.0,0.0,0.0,0.0,0.0,0.0,0.0,0.0,0.0,0.0,0.0,0.0,0.0,0.0,0.0,0.0,0.0,0.0,0.0,0.0,0.0,0.0,0.0,0.0,0.0,0.0,0.0,0.0,0.0,0.0,0.0,0.0,0.0,0.0,0.0,0.0,0.0,0.0,0.0,0.0,0.0,0.0,0.0,0.0,0.0,0.0,0.0,0.0,0.0,0.0,0.0,0.0,0.0,0.0,0.0,0.0,0.0,0.0,0.0,0.0,0.0,0.0,0.0,0.0,0.0,0.0,0.0,0.0,0.0,0.0,0.0,0.0,0.0,0.0,0.0,0.0,0.0,0.0,0.0,0.0,0.0,0.0,0.0,0.0,0.0,0.0,0.0,0.0,0.0,0.0,0.0,0.0,0.0,0.0,0.0,0.0,0.0,0.0,0.0,0.0,0.0,0.0,0.0,0.0,0.0,0.0,0.0,0.0,0.0,0.0,0.0,0.0,0.0,0.0,0.0,0.0,0.0,0.0,0.0,0.0,0.0,0.0,0.0,0.0,0.0,0.0,0.0,0.0,0.0,0.0,0.0,0.0,0.0,0.0,0.0,0.0,0.0,0.0,0.0,0.0,0.0,0.0,0.0,0.0,0.0,0.0,0.0,0.0,0.0,0.0,0.0,0.0,0.0,0.0,0.0,0.0,0.0,0.0,0.0,0.0,0.0,0.0,0.0,0.0,0.0,0.0,0.0,0.0,0.0,0.0,0.0,0.0,0.0,0.0,0.0,0.0,0.0,0.0,0.0,0.0,0.0,0.0,0.0,0.0,0.0,0.0,0.0,0.0,0.0,0.0,0.0,0.0,0.0,0.0,0.0,0.0,0.0,0.0,0.0,0.0,0.0,0.0,0.0,0.0,0.0,0.0,0.0,0.0,0.0,0.0,0.0,0.0,0.0,0.0,0.0,0.0,0.0,0.0,0.0,0.0,0.0,0.0,0.0,0.0,0.0,0.0,0.0,0.0,0.0,0.0,0.0,0.0,0.0,0.0,0.0,0.0,0.0,0.0,0.0,0.0,0.0,0.0,0.0,0.0,0.0,0.0,0.0,0.0,0.0,0.0,0.0,0.0,0.0,0.0,0.0,0.0,0.0,0.0,0.0,0.0,0.0,0.0,0.0,0.0,0.0,0.0,0.0,0.0,0.0,0.0,0.0,0.0,0.0,0.0,0.0,0.0,0.0,0.0,0.0,0.0,0.0,0.0,0.0,0.0,0.0,0.0,0.0,0.0,0.0,0.0,0.0,0.0,0.0,0.0,0.0,0.0,0.0,0.0,0.0,0.0,0.0,0.0,0.0,0.0,0.0,0.0,0.0,0.0,0.0,0.0,0.0,0.0,0.0,0.0,0.0,0.0,0.0,0.0,0.0,0.0,0.0,0.0,0.0,0.0,0.0,0.0,0.0,0.0,0.0,0.0,0.0,0.0,0.0,0.0,0.0,0.0,0.0,0.0,0.0,0.0,0.0,0.0,0.0,0.0,0.0,0.0,0.0,0.0,0.0,0.0,0.0,0.0,0.0,0.0,0.0,0.0,0.0,0.0,0.0,0.0,0.0,0.0,0.0,0.0,0.0,0.0,0.0,0.0,0.0,0.0,0.0,0.0,0.0,0.0,0.0,0.0,0.0,0.0,0.0,0.0,0.0,0.0,0.0,0.0,0.0,0.0,0.0,0.0,0.0,0.0,0.0,0.0,0.0,0.0,0.0,0.0,0.0,0.0,0.0,0.0,0.0,0.0,0.0,0.0,0.0,0.0,0.0,0.0,0.0,0.0,0.0,0.0,0.0,0.0,0.0,0.0,0.0,0.0,0.0,0.0,0.0,0.0,0.0,0.0,0.0,0.0,0.0,0.0,0.0,0.0,0.0,0.0,0.0,0.0,0.0,0.0,0.0,0.0,0.0,0.0,0.0,0.0,0.0,0.0,0.0,0.0,0.0,0.0,0.0,0.0,0.0,0.0,0.0,0.0,0.0,0.0,0.0,0.0,0.0,0.0,0.0,0.0,0.0,0.0,0.0,0.0,0.0,0.0,0.0,0.0,0.0,0.0,0.0,0.0,0.0,0.0,0.0,0.0,0.0,0.0,0.0,0.0,0.0,0.0,0.0,0.0,0.0,0.0,0.0,0.0,0.0,0.0,0.0,0.0,0.0,0.0,0.0,0.0,0.0,0.0,0.0,0.0,0.0,0.0,0.0,0.0,0.0,0.0,0.0,0.0,0.0,0.0,0.0,0.0,0.0,0.0,0.0,0.0,0.0,0.0,0.0,0.0,0.0,0.0,0.0,0.0,0.0,0.0,0.0,0.0,0.0,0.0,0.0,0.0,0.0,0.0,0.0,0.0,0.0,0.0,0.0,0.0,0.0,0.0,0.0,0.0,0.0,0.0,0.0,0.0,0.0,0.0,0.0,0.0,0.0,0.0,0.0,0.0,0.0,0.0,0.0,0.0,0.0,0.0,0.0,0.0,0.0,0.0,0.0,0.0,0.0,0.0,0.0,0.0,0.0,0.0,0.0,0.0,0.0,0.0,0.0,0.0,0.0,0.0,0.0,0.0,0.0,0.0,0.0,0.0,0.0,0.0,0.0,0.0,0.0,0.0,0.0,0.0,0.0,0.0,0.0,0.0,0.0,0.0,0.0,0.0,0.0,0.0,0.0,0.0,0.0,0.0,0.0,0.0,0.0,0.0,0.0,0.0,0.0,0.0,0.0,0.0,0.0,0.0,0.0,0.0,0.0,0.0,0.0,0.0,0.0,0.0,0.0,0.0,0.0,0.0,0.0,0.0,0.0,0.0,0.0,0.0,0.0,0.0,0.0,0.0,0.0,0.0,0.0,0.0,0.0,0.0,0.0,0.0,0.0,0.0,0.0,0.0,0.0,0.0,0.0,0.0,0.0,0.0,0.0,0.0,0.0,0.0,0.0,0.0,0.0,0.0,0.0,0.0,0.0,0.0,0.0,0.0,0.0,0.0,0.0,0.0,0.0,0.0,0.0,0.0,0.0,0.0,0.0,0.0,0.0,0.0,0.0,0.0,0.0,0.0,0.0,0.0,0.0,0.0,0.0,0.0,0.0,0.0,0.0,0.0,0.0,0.0,0.0,0.0,0.0,0.0,0.0,0.0,0.0,0.0,0.0,0.0,0.0,0.0,0.0,0.0,0.0,0.0,0.0,0.0,0.0,0.0,0.0,0.0,0.0,0.0,0.0,0.0,0.0,0.0,0.0,0.0,0.0,0.0,0.0,0.0,0.0,0.0,0.0,0.0,0.0,0.0,0.0,0.0,0.0,0.0,0.2348,0.2066,0.1597,0.0282,0.0,0.0,0.0,0.0,0.0,0.0,0.0,0.0,0.0,0.0,0.0,0.0,0.0,0.0,0.0,0.0,0.0,0.0,0.0,0.0,0.0,0.0,0.0,0.0,0.0,0.0,0.0,0.0,0.0,0.0,0.0,0.0,0.0,0.0,0.0,0.0,0.0,0.0,0.0,0.0,0.0,0.0,0.0,0.0,0.0,0.0,0.0,0.0,0.0,0.0,0.0,0.0,0.0,0.0,0.0,0.0,0.0,0.0,0.0,0.0,0.0,0.0,0.0,0.0,0.0,0.0,0.0,0.0,0.0,0.0,0.0,0.0,0.0,0.0,0.0,0.0,0.0,0.0,0.0,0.0,0.0,0.0,0.0,0.0,0.0,0.0,0.0,0.0,0.0,0.0,0.0,0.0,0.0,0.0,0.0,0.0,0.0,0.0,0.0,0.0,0.0,0.0,0.0,0.0,0.0,0.0,0.0,0.0,0.0,0.0,0.0,0.0,0.5036,0.4656,0.3898,0.1334,0.0858,0.0665,0.0094,0.0,0.0,0.0,0.0,0.0,0.0,0.0,0.0,0.0,0.0,0.0,0.0,0.0,0.0,0.0,0.0,0.0,0.0,0.0,0.0,0.0,0.0,0.0,0.0,0.0,0.0,0.0,0.0,0.0,0.0,0.0,0.0,0.0,0.0,0.0,0.0,0.0,0.0,0.0,0.0,0.0,0.0,0.0,0.0,0.0,0.0,0.0,0.0,0.0,0.0,0.0,0.0,0.0,0.0,0.0,0.0,0.0,0.0,0.0,0.0,0.0,0.0,0.0,0.0,0.0,0.0,0.0,0.0,0.0,0.0,0.0,0.0,0.0,0.0,0.0,0.0,0.0,0.0,0.0,0.0,0.0,0.0,0.0,0.0,0.0,0.0,0.0,0.0,0.0,0.0,0.0,0.0,0.0,0.0,0.0,0.0,0.0,0.0,0.0,0.0,0.0,0.0,0.0,0.0,0.0,0.0,0.0,0.0,0.0,0.7311,0.7308,0.6553,0.3993,0.3518,0.275,0.0377,0.0,0.0,0.0,0.0,0.0,0.0,0.0,0.0,0.0,0.0,0.0,0.0,0.0,0.0,0.0,0.0,0.0,0.0,0.0,0.0,0.0,0.0,0.0,0.0,0.0,0.0,0.0,0.0,0.0,0.0,0.0,0.0,0.0,0.0,0.0,0.0,0.0,0.0,0.0,0.0,0.0,0.0,0.0,0.0,0.0,0.0,0.0,0.0,0.0,0.0,0.0,0.0,0.0,0.0,0.0,0.0,0.0,0.0,0.0,0.0,0.0,0.0,0.0,0.0,0.0,0.0,0.0,0.0,0.0,0.0,0.0,0.0,0.0,0.0,0.0,0.0,0.0,0.0,0.0,0.0,0.0,0.0,0.0,0.0,0.0,0.0,0.0,0.0,0.0,0.0,0.0,0.0,0.0,0.0,0.0,0.0,0.0,0.0,0.0,0.0,0.0,0.0,0.0,0.0,0.0,0.0,0.0,0.0,0.0,1.0248,0.9964,0.9109,0.6648,0.6171,0.5763,0.4742,0.3332,0.2297,0.2258,0.0899,0.0,0.0,0.0,0.0,0.0,0.0,0.0,0.0,0.0,0.0,0.0,0.0,0.0,0.0,0.0,0.0,0.0,0.0,0.0,0.0,0.0,0.0,0.0,0.0,0.0,0.0,0.0,0.0,0.0,0.0,0.0,0.0,0.0,0.0,0.0,0.0,0.0,0.0,0.0,0.0,0.0,0.0,0.0,0.0,0.0,0.0,0.0,0.0,0.0,0.0,0.0,0.0,0.0,0.0,0.0,0.0,0.0,0.0,0.0,0.0,0.0,0.0,0.0,0.0,0.0,0.0,0.0,0.0,0.0,0.0,0.0,0.0,0.0,0.0,0.0,0.0,0.0,0.0,0.0,0.0,0.0,0.0,0.0,0.0,0.0,0.0,0.0,0.0,0.0,0.0,0.0,0.0,0.0,0.0,0.0,0.0,0.0,0.0,0.0,0.0,0.0,0.0,0.0,0.0,0.0,1.2904,1.2616,1.1763,0.9204,0.8802,0.8462,0.7511,0.5897,0.4841,0.4684,0.323,0.1971,0.1256,0.1166,0.1166,0.1166,0.1166,0.1434,0.215,0.224,0.1524,0.009,0.0,0.0,0.0,0.0,0.0,0.0,0.0,0.0,0.0,0.0,0.0,0.0,0.0,0.0,0.0,0.0,0.0,0.0,0.0,0.0,0.0,0.0,0.0,0.0,0.0,0.0,0.0,0.0,0.0,0.0,0.0,0.0,0.0,0.0,0.0,0.0,0.0,0.0,0.0,0.0,0.0,0.0,0.0,0.0,0.0,0.0,0.0,0.0,0.0,0.0,0.0,0.0,0.0,0.0,0.0,0.0,0.0,0.0,0.0,0.0,0.0,0.0,0.0,0.0,0.0,0.0,0.0,0.0,0.0,0.0,0.0,0.0,0.0,0.0,0.0,0.0,0.0,0.0,0.0,0.0,0.0,0.0,0.0,0.0,0.0,0.0,0.0,0.0,0.0,0.0,0.0,0.0,0.0,0.0,1.5181,1.5181,1.4422,1.1862,1.1294,1.0375,0.7853,0.7262,0.7168,0.7168,0.7104,0.6258,0.3848,0.3669,0.3669,0.3669,0.3669,0.4651,0.6968,0.7057,0.5008,0.0269,0.0,0.0,0.0,0.0,0.0,0.0,0.0,0.0,0.0,0.0,0.0,0.0,0.0,0.0,0.0,0.0,0.0,0.0,0.0,0.0,0.0,0.0,0.0,0.0,0.0,0.0,0.0,0.0,0.0,0.0,0.0,0.0,0.0,0.0,0.0,0.0,0.0,0.0,0.0,0.0,0.0,0.0,0.0,0.0,0.0,0.0,0.0,0.0,0.0,0.0,0.0,0.0,0.0,0.0,0.0,0.0,0.0,0.0,0.0,0.0,0.0,0.0,0.0,0.0,0.0,0.0,0.0,0.0,0.0,0.0,0.0,0.0,0.0,0.0,0.0,0.0,0.0,0.0,0.0,0.0,0.0,0.0,0.0,0.0,0.0,0.0,0.0,0.0,0.0,0.0,0.0,0.0,0.0,0.0,1.5181,1.5181,1.4959,1.4107,1.387,1.3493,1.2562,1.0921,0.9766,0.9607,0.8145,0.679,0.6165,0.6079,0.6079,0.6079,0.6079,0.6344,0.7057,0.7057,0.6433,0.5008,0.3401,0.2507,0.2507,0.0897,0.0,0.0,0.0,0.0,0.0,0.0,0.0,0.0,0.0,0.0,0.0,0.0,0.0,0.0,0.0,0.0,0.0,0.0,0.0,0.0,0.0,0.0,0.0,0.0,0.0,0.0,0.0,0.0,0.0,0.0,0.0,0.0,0.0,0.0,0.0,0.0,0.0,0.0,0.0,0.0,0.0,0.0,0.0,0.0,0.0,0.0,0.0,0.0,0.0,0.0,0.0,0.0,0.0,0.0,0.0,0.0,0.0,0.0,0.0,0.0,0.0,0.0,0.0,0.0,0.0,0.0,0.0,0.0,0.0,0.0,0.0,0.0,0.0,0.0,0.0,0.0,0.0,0.0,0.0,0.0,0.0,0.0,0.0,0.0,0.0,0.0,0.0,0.0,0.0,0.0,1.5113,1.5099,1.5052,1.4903,1.4828,1.4726,1.4536,1.3195,1.2229,1.216,1.0806,0.9557,0.8664,0.8486,0.8486,0.8486,0.9375,0.9913,0.9913,0.9913,0.9913,0.9913,0.7684,0.599,0.5008,0.358,0.2776,0.2776,0.1882,0.1434,0.1434,0.0449,0.0,0.0,0.0,0.0,0.0,0.0,0.0,0.0,0.0,0.0,0.0,0.0,0.0,0.0,0.0,0.0,0.0,0.0,0.0,0.0,0.0,0.0,0.0,0.0,0.0,0.0,0.0,0.0,0.0,0.0,0.0,0.0,0.0,0.0,0.0,0.0,0.0,0.0,0.0,0.0,0.0,0.0,0.0,0.0,0.0,0.0,0.0,0.0,0.0,0.0,0.0,0.0,0.0,0.0,0.0,0.0,0.0,0.0,0.0,0.0,0.0,0.0,0.0,0.0,0.0,0.0,0.0,0.0,0.0,0.0,0.0,0.0,0.0,0.0,0.0,0.0,0.0,0.0,0.0,0.0,0.0,0.0,0.0,0.0,1.4977,1.495,1.4903,1.4746,1.4604,1.4509,1.4496,1.438,1.4299,1.4299,1.4299,1.3489,1.125,1.0984,1.0984,1.0984,1.3046,1.4299,1.4299,1.4299,1.4299,1.4299,1.2148,1.0002,0.777,0.7324,0.7057,0.7057,0.4919,0.3938,0.3848,0.1703,0.0628,0.0628,0.0628,0.0628,0.0628,0.0449,0.0359,0.0269,0.009,0.0,0.0,0.0,0.0,0.0,0.0,0.0,0.0,0.0,0.0,0.0,0.0,0.0,0.0,0.0,0.0,0.0,0.0,0.0,0.0,0.0,0.0,0.0,0.0,0.0,0.0,0.0,0.0,0.0,0.0,0.0,0.0,0.0,0.0,0.0,0.0,0.0,0.0,0.0,0.0,0.0,0.0,0.0,0.0,0.0,0.0,0.0,0.0,0.0,0.0,0.0,0.0,0.0,0.0,0.0,0.0,0.0,0.0,0.0,0.0,0.0,0.0,0.0,0.0,0.0,0.0,0.0,0.0,0.0,0.0,0.0,0.0,0.0,0.0,0.0,1.4821,1.4787,1.474,1.4584,1.4536,1.4475,1.4367,1.4319,1.4299,1.4299,1.4299,1.4122,1.3584,1.3496,1.3496,1.3496,1.4033,1.4299,1.4299,1.4299,1.4299,1.4299,1.3761,1.3312,1.2774,0.9019,0.7057,0.7057,0.6611,0.6347,0.6347,0.5811,0.5544,0.5544,0.5544,0.5544,0.5454,0.358,0.2776,0.2687,0.0718,0.0,0.0,0.0,0.0,0.0,0.0,0.0,0.0,0.0,0.0,0.0,0.0,0.0,0.0,0.0,0.0,0.0,0.0,0.0,0.0,0.0,0.0,0.0,0.0,0.0,0.0,0.0,0.0,0.0,0.0,0.0,0.0,0.0,0.0,0.0,0.0,0.0,0.0,0.0,0.0,0.0,0.0,0.0,0.0,0.0,0.0,0.0,0.0,0.0,0.0,0.0,0.0,0.0,0.0,0.0,0.0,0.0,0.0,0.0,0.0,0.0,0.0,0.0,0.0,0.0,0.0,0.0,0.0,0.0,0.0,0.0,0.0,0.0,0.0,0.0,1.4658,1.4631,1.4584,1.4434,1.4414,1.4387,1.4312,1.4299,1.4299,1.4299,1.4299,1.4299,1.4299,1.4299,1.4299,1.4299,1.4299,1.4299,1.4299,1.4299,1.4299,1.4299,1.4299,1.4299,1.4299,1.1788,1.0535,1.0535,0.9375,0.8842,0.8753,0.7684,0.7057,0.7057,0.7057,0.7057,0.7057,0.5811,0.5276,0.5186,0.3938,0.3401,0.3401,0.3401,0.2687,0.1703,0.1703,0.1703,0.1881,0.3024,0.2646,0.1748,0.1738,0.1638,0.1537,0.1613,0.2362,0.3191,0.3191,0.2425,0.1914,0.2893,0.2373,0.1293,0.0239,0.0,0.0,0.0,0.0,0.0311,0.1311,0.1449,0.181,0.2846,0.296,0.2569,0.1617,0.1389,0.102,0.0146,0.0,0.0,0.0,0.0,0.0,0.0,0.0,0.0,0.0,0.0,0.0,0.0,0.0,0.0,0.0,0.0,0.0,0.0,0.0,0.0,0.0,0.0,0.0,0.0,0.0,0.0,0.0,0.0,0.0,0.0,0.0,0.0,0.0,0.0,0.0,0.0,1.4502,1.4475,1.4434,1.4319,1.4299,1.4299,1.4299,1.4299,1.4299,1.4299,1.4299,1.4299,1.4299,1.4299,1.4299,1.4299,1.4299,1.4299,1.4299,1.4299,1.4299,1.4299,1.4299,1.4299,1.4299,1.4299,1.4299,1.4299,1.2325,1.1344,1.125,0.9286,0.8308,0.8308,0.8308,0.8308,0.8308,0.7859,0.7684,0.7681,0.7239,0.7057,0.7057,0.7057,0.5901,0.4206,0.4206,0.4206,0.4472,0.6436,0.5775,0.4236,0.423,0.409,0.3944,0.3928,0.5251,0.6717,0.6703,0.5365,0.4435,0.6212,0.5283,0.3365,0.1532,0.1113,0.0866,0.0158,0.0314,0.1095,0.2783,0.3082,0.3833,0.5984,0.6134,0.549,0.3864,0.3529,0.2844,0.1242,0.1022,0.1021,0.1021,0.0656,0.051,0.051,0.0219,0.0,0.0,0.0,0.0,0.0,0.0,0.0,0.0,0.0,0.0,0.0,0.0,0.0,0.0,0.0,0.0,0.0,0.0,0.0,0.0,0.0,0.0,0.0,0.0,0.0,0.0,0.0,0.0,0.0,1.4353,1.4326,1.4326,1.4306,1.4299,1.4299,1.4299,1.4299,1.4299,1.4299,1.4299,1.4299,1.4299,1.4299,1.4299,1.4299,1.4299,1.4299,1.4299,1.4299,1.4299,1.4299,1.4299,1.4299,1.4299,1.4299,1.4299,1.4299,1.3938,1.385,1.385,1.3489,1.3312,1.3312,1.3312,1.3312,1.3224,1.1072,1.018,1.0002,0.7951,0.7057,0.7057,0.7057,0.6879,0.6611,0.6611,0.6611,0.6704,0.6968,0.6872,0.6586,0.6614,0.6582,0.6544,0.642,0.6633,0.6863,0.6717,0.6449,0.6366,0.6606,0.6473,0.6174,0.5827,0.5724,0.4527,0.0797,0.1422,0.2739,0.3047,0.3099,0.3767,0.5979,0.629,0.6166,0.5941,0.5725,0.5459,0.5238,0.5116,0.5011,0.5011,0.349,0.2472,0.2472,0.0947,0.0,0.0,0.0,0.0,0.0,0.0,0.0,0.0,0.0,0.0,0.0,0.0,0.0,0.0,0.0,0.0,0.0,0.0,0.0,0.0,0.0,0.0,0.0,0.0,0.0,0.0,0.0,0.0,0.0,1.4312,1.4299,1.4299,1.4299,1.4299,1.4299,1.4299,1.4299,1.4299,1.4299,1.4299,1.4299,1.4299,1.4299,1.4299,1.4299,1.4299,1.4299,1.4299,1.4299,1.4299,1.4299,1.4299,1.4299,1.4299,1.4299,1.4299,1.4299,1.4299,1.4299,1.4299,1.4299,1.4299,1.4299,1.4299,1.4299,1.421,1.3135,1.2686,1.2597,1.1522,1.1161,1.1161,1.1161,1.0268,0.9108,0.9108,0.9108,0.9286,1.0629,1.0268,0.9104,0.9149,0.9097,0.8948,0.8948,0.9706,1.0625,1.0577,0.9588,0.8874,1.0128,0.9506,0.8558,0.8558,0.9433,0.8965,0.4549,0.4361,0.5358,0.6414,0.6615,0.7289,0.9454,0.9666,0.9288,0.8218,0.7906,0.7372,0.6142,0.596,0.5852,0.5812,0.4068,0.2909,0.2909,0.1093,0.0,0.0,0.0,0.0,0.0,0.0,0.0,0.0,0.0,0.0,0.0,0.0,0.0,0.0,0.0,0.0,0.0,0.0,0.0,0.0,0.0,0.0,0.0,0.0,0.0,0.0,0.0,0.0,0.0]}]]